<?xml version="1.0" encoding="UTF-8" standalone="no" ?>
<gpx xmlns="http://www.topografix.com/GPX/1/1" xmlns:xsi="http://www.w3.org/2001/XMLSchema-instance" xsi:schemaLocation="http://www.topografix.com/GPX/1/1 http://www.topografix.com/GPX/1/1/gpx.xsd" version="1.1" creator="VisuGPX - https://www.visugpx.com">
  <metadata>
    <name>footing tranquille autour de St Sauveur en Médoc</name>
    <desc><![CDATA[footing entre vigne et forêt, 99% de chemins]]></desc>
  </metadata>
  <trk>
    <name><![CDATA[footing avec papa en vélo]]></name>
    <cmt><![CDATA[fin à pied, mal au tendon d'achile]]></cmt>
    <trkseg>
      <trkpt lat="45.20547" lon="-0.7919">
        <ele>23</ele>
        <time>2012-08-03T08:14:27Z</time>
      </trkpt>
      <trkpt lat="45.20547" lon="-0.79185">
        <ele>23</ele>
        <time>2012-08-03T08:14:29Z</time>
      </trkpt>
      <trkpt lat="45.20546" lon="-0.7918">
        <ele>22</ele>
        <time>2012-08-03T08:14:31Z</time>
      </trkpt>
      <trkpt lat="45.20544" lon="-0.79174">
        <ele>22</ele>
        <time>2012-08-03T08:14:33Z</time>
      </trkpt>
      <trkpt lat="45.20541" lon="-0.79169">
        <ele>22</ele>
        <time>2012-08-03T08:14:35Z</time>
      </trkpt>
      <trkpt lat="45.20538" lon="-0.79163">
        <ele>21</ele>
        <time>2012-08-03T08:14:37Z</time>
      </trkpt>
      <trkpt lat="45.20536" lon="-0.79158">
        <ele>21</ele>
        <time>2012-08-03T08:14:39Z</time>
      </trkpt>
      <trkpt lat="45.20533" lon="-0.79152">
        <ele>21</ele>
        <time>2012-08-03T08:14:41Z</time>
      </trkpt>
      <trkpt lat="45.2053" lon="-0.79142">
        <ele>21</ele>
        <time>2012-08-03T08:14:43Z</time>
      </trkpt>
      <trkpt lat="45.20528" lon="-0.79139">
        <ele>21</ele>
        <time>2012-08-03T08:14:45Z</time>
      </trkpt>
      <trkpt lat="45.20524" lon="-0.79136">
        <ele>21</ele>
        <time>2012-08-03T08:14:47Z</time>
      </trkpt>
      <trkpt lat="45.2052" lon="-0.79134">
        <ele>21</ele>
        <time>2012-08-03T08:14:50Z</time>
      </trkpt>
      <trkpt lat="45.20516" lon="-0.79133">
        <ele>21</ele>
        <time>2012-08-03T08:14:52Z</time>
      </trkpt>
      <trkpt lat="45.20513" lon="-0.79131">
        <ele>20</ele>
        <time>2012-08-03T08:14:54Z</time>
      </trkpt>
      <trkpt lat="45.20506" lon="-0.79133">
        <ele>20</ele>
        <time>2012-08-03T08:14:56Z</time>
      </trkpt>
      <trkpt lat="45.20502" lon="-0.79133">
        <ele>19</ele>
        <time>2012-08-03T08:14:58Z</time>
      </trkpt>
      <trkpt lat="45.20496" lon="-0.79131">
        <ele>19</ele>
        <time>2012-08-03T08:15:00Z</time>
      </trkpt>
      <trkpt lat="45.20492" lon="-0.79129">
        <ele>18</ele>
        <time>2012-08-03T08:15:03Z</time>
      </trkpt>
      <trkpt lat="45.20486" lon="-0.7913">
        <ele>18</ele>
        <time>2012-08-03T08:15:05Z</time>
      </trkpt>
      <trkpt lat="45.20481" lon="-0.79134">
        <ele>17</ele>
        <time>2012-08-03T08:15:07Z</time>
      </trkpt>
      <trkpt lat="45.20478" lon="-0.79142">
        <ele>17</ele>
        <time>2012-08-03T08:15:09Z</time>
      </trkpt>
      <trkpt lat="45.20476" lon="-0.79149">
        <ele>17</ele>
        <time>2012-08-03T08:15:11Z</time>
      </trkpt>
      <trkpt lat="45.20475" lon="-0.79156">
        <ele>17</ele>
        <time>2012-08-03T08:15:13Z</time>
      </trkpt>
      <trkpt lat="45.20475" lon="-0.79163">
        <ele>17</ele>
        <time>2012-08-03T08:15:16Z</time>
      </trkpt>
      <trkpt lat="45.20474" lon="-0.7917">
        <ele>17</ele>
        <time>2012-08-03T08:15:18Z</time>
      </trkpt>
      <trkpt lat="45.20473" lon="-0.79177">
        <ele>18</ele>
        <time>2012-08-03T08:15:20Z</time>
      </trkpt>
      <trkpt lat="45.20471" lon="-0.79183">
        <ele>18</ele>
        <time>2012-08-03T08:15:22Z</time>
      </trkpt>
      <trkpt lat="45.20468" lon="-0.79193">
        <ele>18</ele>
        <time>2012-08-03T08:15:24Z</time>
      </trkpt>
      <trkpt lat="45.20467" lon="-0.79199">
        <ele>18</ele>
        <time>2012-08-03T08:15:26Z</time>
      </trkpt>
      <trkpt lat="45.20466" lon="-0.79205">
        <ele>18</ele>
        <time>2012-08-03T08:15:28Z</time>
      </trkpt>
      <trkpt lat="45.20465" lon="-0.79211">
        <ele>17</ele>
        <time>2012-08-03T08:15:31Z</time>
      </trkpt>
      <trkpt lat="45.20464" lon="-0.79218">
        <ele>17</ele>
        <time>2012-08-03T08:15:33Z</time>
      </trkpt>
      <trkpt lat="45.20464" lon="-0.79224">
        <ele>18</ele>
        <time>2012-08-03T08:15:35Z</time>
      </trkpt>
      <trkpt lat="45.20463" lon="-0.79231">
        <ele>18</ele>
        <time>2012-08-03T08:15:37Z</time>
      </trkpt>
      <trkpt lat="45.20462" lon="-0.79239">
        <ele>18</ele>
        <time>2012-08-03T08:15:39Z</time>
      </trkpt>
      <trkpt lat="45.20462" lon="-0.79246">
        <ele>18</ele>
        <time>2012-08-03T08:15:41Z</time>
      </trkpt>
      <trkpt lat="45.20461" lon="-0.79253">
        <ele>18</ele>
        <time>2012-08-03T08:15:43Z</time>
      </trkpt>
      <trkpt lat="45.20459" lon="-0.7926">
        <ele>18</ele>
        <time>2012-08-03T08:15:45Z</time>
      </trkpt>
      <trkpt lat="45.20458" lon="-0.79267">
        <ele>18</ele>
        <time>2012-08-03T08:15:48Z</time>
      </trkpt>
      <trkpt lat="45.20456" lon="-0.79274">
        <ele>18</ele>
        <time>2012-08-03T08:15:50Z</time>
      </trkpt>
      <trkpt lat="45.20454" lon="-0.79281">
        <ele>17</ele>
        <time>2012-08-03T08:15:52Z</time>
      </trkpt>
      <trkpt lat="45.20451" lon="-0.79291">
        <ele>17</ele>
        <time>2012-08-03T08:15:54Z</time>
      </trkpt>
      <trkpt lat="45.20449" lon="-0.79297">
        <ele>17</ele>
        <time>2012-08-03T08:15:56Z</time>
      </trkpt>
      <trkpt lat="45.20448" lon="-0.79303">
        <ele>18</ele>
        <time>2012-08-03T08:15:58Z</time>
      </trkpt>
      <trkpt lat="45.20446" lon="-0.79309">
        <ele>18</ele>
        <time>2012-08-03T08:16:00Z</time>
      </trkpt>
      <trkpt lat="45.20444" lon="-0.79316">
        <ele>18</ele>
        <time>2012-08-03T08:16:03Z</time>
      </trkpt>
      <trkpt lat="45.20443" lon="-0.79321">
        <ele>18</ele>
        <time>2012-08-03T08:16:05Z</time>
      </trkpt>
      <trkpt lat="45.20441" lon="-0.79327">
        <ele>17</ele>
        <time>2012-08-03T08:16:07Z</time>
      </trkpt>
      <trkpt lat="45.20439" lon="-0.79336">
        <ele>17</ele>
        <time>2012-08-03T08:16:09Z</time>
      </trkpt>
      <trkpt lat="45.20438" lon="-0.79344">
        <ele>17</ele>
        <time>2012-08-03T08:16:11Z</time>
      </trkpt>
      <trkpt lat="45.20436" lon="-0.79351">
        <ele>17</ele>
        <time>2012-08-03T08:16:13Z</time>
      </trkpt>
      <trkpt lat="45.20435" lon="-0.79358">
        <ele>17</ele>
        <time>2012-08-03T08:16:16Z</time>
      </trkpt>
      <trkpt lat="45.20434" lon="-0.79366">
        <ele>17</ele>
        <time>2012-08-03T08:16:18Z</time>
      </trkpt>
      <trkpt lat="45.20433" lon="-0.79374">
        <ele>17</ele>
        <time>2012-08-03T08:16:20Z</time>
      </trkpt>
      <trkpt lat="45.20431" lon="-0.79381">
        <ele>17</ele>
        <time>2012-08-03T08:16:22Z</time>
      </trkpt>
      <trkpt lat="45.20428" lon="-0.79393">
        <ele>17</ele>
        <time>2012-08-03T08:16:24Z</time>
      </trkpt>
      <trkpt lat="45.20427" lon="-0.794">
        <ele>17</ele>
        <time>2012-08-03T08:16:26Z</time>
      </trkpt>
      <trkpt lat="45.20425" lon="-0.79408">
        <ele>17</ele>
        <time>2012-08-03T08:16:28Z</time>
      </trkpt>
      <trkpt lat="45.20424" lon="-0.79415">
        <ele>17</ele>
        <time>2012-08-03T08:16:30Z</time>
      </trkpt>
      <trkpt lat="45.20422" lon="-0.79422">
        <ele>17</ele>
        <time>2012-08-03T08:16:32Z</time>
      </trkpt>
      <trkpt lat="45.20421" lon="-0.7943">
        <ele>17</ele>
        <time>2012-08-03T08:16:35Z</time>
      </trkpt>
      <trkpt lat="45.20419" lon="-0.79437">
        <ele>17</ele>
        <time>2012-08-03T08:16:37Z</time>
      </trkpt>
      <trkpt lat="45.20419" lon="-0.79444">
        <ele>17</ele>
        <time>2012-08-03T08:16:39Z</time>
      </trkpt>
      <trkpt lat="45.20416" lon="-0.79453">
        <ele>17</ele>
        <time>2012-08-03T08:16:41Z</time>
      </trkpt>
      <trkpt lat="45.20415" lon="-0.79459">
        <ele>16</ele>
        <time>2012-08-03T08:16:43Z</time>
      </trkpt>
      <trkpt lat="45.20414" lon="-0.79465">
        <ele>16</ele>
        <time>2012-08-03T08:16:45Z</time>
      </trkpt>
      <trkpt lat="45.20414" lon="-0.79472">
        <ele>16</ele>
        <time>2012-08-03T08:16:47Z</time>
      </trkpt>
      <trkpt lat="45.20414" lon="-0.79479">
        <ele>16</ele>
        <time>2012-08-03T08:16:50Z</time>
      </trkpt>
      <trkpt lat="45.20413" lon="-0.79487">
        <ele>16</ele>
        <time>2012-08-03T08:16:52Z</time>
      </trkpt>
      <trkpt lat="45.20412" lon="-0.79493">
        <ele>16</ele>
        <time>2012-08-03T08:16:54Z</time>
      </trkpt>
      <trkpt lat="45.20412" lon="-0.79499">
        <ele>16</ele>
        <time>2012-08-03T08:16:56Z</time>
      </trkpt>
      <trkpt lat="45.20411" lon="-0.79505">
        <ele>16</ele>
        <time>2012-08-03T08:16:58Z</time>
      </trkpt>
      <trkpt lat="45.20409" lon="-0.79511">
        <ele>16</ele>
        <time>2012-08-03T08:17:00Z</time>
      </trkpt>
      <trkpt lat="45.20408" lon="-0.79519">
        <ele>15</ele>
        <time>2012-08-03T08:17:02Z</time>
      </trkpt>
      <trkpt lat="45.20405" lon="-0.79529">
        <ele>15</ele>
        <time>2012-08-03T08:17:04Z</time>
      </trkpt>
      <trkpt lat="45.20404" lon="-0.79536">
        <ele>15</ele>
        <time>2012-08-03T08:17:06Z</time>
      </trkpt>
      <trkpt lat="45.20404" lon="-0.79544">
        <ele>15</ele>
        <time>2012-08-03T08:17:08Z</time>
      </trkpt>
      <trkpt lat="45.20404" lon="-0.79551">
        <ele>15</ele>
        <time>2012-08-03T08:17:10Z</time>
      </trkpt>
      <trkpt lat="45.20404" lon="-0.79558">
        <ele>15</ele>
        <time>2012-08-03T08:17:12Z</time>
      </trkpt>
      <trkpt lat="45.20404" lon="-0.79567">
        <ele>15</ele>
        <time>2012-08-03T08:17:14Z</time>
      </trkpt>
      <trkpt lat="45.20404" lon="-0.79576">
        <ele>14</ele>
        <time>2012-08-03T08:17:16Z</time>
      </trkpt>
      <trkpt lat="45.20406" lon="-0.79582">
        <ele>14</ele>
        <time>2012-08-03T08:17:18Z</time>
      </trkpt>
      <trkpt lat="45.20407" lon="-0.79589">
        <ele>14</ele>
        <time>2012-08-03T08:17:20Z</time>
      </trkpt>
      <trkpt lat="45.20409" lon="-0.79597">
        <ele>14</ele>
        <time>2012-08-03T08:17:22Z</time>
      </trkpt>
      <trkpt lat="45.20411" lon="-0.79605">
        <ele>15</ele>
        <time>2012-08-03T08:17:25Z</time>
      </trkpt>
      <trkpt lat="45.20413" lon="-0.79612">
        <ele>15</ele>
        <time>2012-08-03T08:17:27Z</time>
      </trkpt>
      <trkpt lat="45.20415" lon="-0.79619">
        <ele>15</ele>
        <time>2012-08-03T08:17:29Z</time>
      </trkpt>
      <trkpt lat="45.20417" lon="-0.79627">
        <ele>15</ele>
        <time>2012-08-03T08:17:31Z</time>
      </trkpt>
      <trkpt lat="45.2042" lon="-0.79634">
        <ele>15</ele>
        <time>2012-08-03T08:17:33Z</time>
      </trkpt>
      <trkpt lat="45.20424" lon="-0.79641">
        <ele>15</ele>
        <time>2012-08-03T08:17:35Z</time>
      </trkpt>
      <trkpt lat="45.20428" lon="-0.79647">
        <ele>15</ele>
        <time>2012-08-03T08:17:37Z</time>
      </trkpt>
      <trkpt lat="45.20431" lon="-0.79652">
        <ele>15</ele>
        <time>2012-08-03T08:17:39Z</time>
      </trkpt>
      <trkpt lat="45.20436" lon="-0.79657">
        <ele>15</ele>
        <time>2012-08-03T08:17:41Z</time>
      </trkpt>
      <trkpt lat="45.20443" lon="-0.79662">
        <ele>15</ele>
        <time>2012-08-03T08:17:43Z</time>
      </trkpt>
      <trkpt lat="45.20447" lon="-0.79665">
        <ele>15</ele>
        <time>2012-08-03T08:17:45Z</time>
      </trkpt>
      <trkpt lat="45.20449" lon="-0.79671">
        <ele>15</ele>
        <time>2012-08-03T08:17:47Z</time>
      </trkpt>
      <trkpt lat="45.20451" lon="-0.79679">
        <ele>15</ele>
        <time>2012-08-03T08:17:49Z</time>
      </trkpt>
      <trkpt lat="45.2045" lon="-0.79685">
        <ele>14</ele>
        <time>2012-08-03T08:17:51Z</time>
      </trkpt>
      <trkpt lat="45.20447" lon="-0.79689">
        <ele>14</ele>
        <time>2012-08-03T08:17:53Z</time>
      </trkpt>
      <trkpt lat="45.20445" lon="-0.79694">
        <ele>14</ele>
        <time>2012-08-03T08:17:55Z</time>
      </trkpt>
      <trkpt lat="45.20441" lon="-0.79698">
        <ele>13</ele>
        <time>2012-08-03T08:17:57Z</time>
      </trkpt>
      <trkpt lat="45.20438" lon="-0.79701">
        <ele>13</ele>
        <time>2012-08-03T08:17:59Z</time>
      </trkpt>
      <trkpt lat="45.20434" lon="-0.79706">
        <ele>13</ele>
        <time>2012-08-03T08:18:02Z</time>
      </trkpt>
      <trkpt lat="45.2043" lon="-0.7971">
        <ele>13</ele>
        <time>2012-08-03T08:18:04Z</time>
      </trkpt>
      <trkpt lat="45.20425" lon="-0.79715">
        <ele>13</ele>
        <time>2012-08-03T08:18:06Z</time>
      </trkpt>
      <trkpt lat="45.20422" lon="-0.7972">
        <ele>13</ele>
        <time>2012-08-03T08:18:08Z</time>
      </trkpt>
      <trkpt lat="45.20418" lon="-0.79721">
        <ele>13</ele>
        <time>2012-08-03T08:18:10Z</time>
      </trkpt>
      <trkpt lat="45.20415" lon="-0.79722">
        <ele>13</ele>
        <time>2012-08-03T08:18:12Z</time>
      </trkpt>
      <trkpt lat="45.20412" lon="-0.79723">
        <ele>13</ele>
        <time>2012-08-03T08:18:14Z</time>
      </trkpt>
      <trkpt lat="45.20408" lon="-0.79725">
        <ele>13</ele>
        <time>2012-08-03T08:18:16Z</time>
      </trkpt>
      <trkpt lat="45.20404" lon="-0.79728">
        <ele>13</ele>
        <time>2012-08-03T08:18:18Z</time>
      </trkpt>
      <trkpt lat="45.204" lon="-0.7973">
        <ele>13</ele>
        <time>2012-08-03T08:18:20Z</time>
      </trkpt>
      <trkpt lat="45.20396" lon="-0.7973">
        <ele>13</ele>
        <time>2012-08-03T08:18:23Z</time>
      </trkpt>
      <trkpt lat="45.20392" lon="-0.79731">
        <ele>14</ele>
        <time>2012-08-03T08:18:25Z</time>
      </trkpt>
      <trkpt lat="45.20388" lon="-0.79733">
        <ele>13</ele>
        <time>2012-08-03T08:18:27Z</time>
      </trkpt>
      <trkpt lat="45.20383" lon="-0.79735">
        <ele>14</ele>
        <time>2012-08-03T08:18:29Z</time>
      </trkpt>
      <trkpt lat="45.20379" lon="-0.79738">
        <ele>14</ele>
        <time>2012-08-03T08:18:31Z</time>
      </trkpt>
      <trkpt lat="45.20374" lon="-0.79742">
        <ele>14</ele>
        <time>2012-08-03T08:18:33Z</time>
      </trkpt>
      <trkpt lat="45.20369" lon="-0.79745">
        <ele>13</ele>
        <time>2012-08-03T08:18:35Z</time>
      </trkpt>
      <trkpt lat="45.20363" lon="-0.79748">
        <ele>13</ele>
        <time>2012-08-03T08:18:37Z</time>
      </trkpt>
      <trkpt lat="45.20359" lon="-0.79751">
        <ele>13</ele>
        <time>2012-08-03T08:18:39Z</time>
      </trkpt>
      <trkpt lat="45.20352" lon="-0.79756">
        <ele>13</ele>
        <time>2012-08-03T08:18:41Z</time>
      </trkpt>
      <trkpt lat="45.20348" lon="-0.7976">
        <ele>13</ele>
        <time>2012-08-03T08:18:43Z</time>
      </trkpt>
      <trkpt lat="45.20342" lon="-0.79765">
        <ele>13</ele>
        <time>2012-08-03T08:18:45Z</time>
      </trkpt>
      <trkpt lat="45.20338" lon="-0.7977">
        <ele>13</ele>
        <time>2012-08-03T08:18:47Z</time>
      </trkpt>
      <trkpt lat="45.20334" lon="-0.79775">
        <ele>13</ele>
        <time>2012-08-03T08:18:50Z</time>
      </trkpt>
      <trkpt lat="45.2033" lon="-0.79779">
        <ele>13</ele>
        <time>2012-08-03T08:18:52Z</time>
      </trkpt>
      <trkpt lat="45.20324" lon="-0.79784">
        <ele>14</ele>
        <time>2012-08-03T08:18:54Z</time>
      </trkpt>
      <trkpt lat="45.2032" lon="-0.79786">
        <ele>14</ele>
        <time>2012-08-03T08:18:56Z</time>
      </trkpt>
      <trkpt lat="45.20315" lon="-0.79788">
        <ele>14</ele>
        <time>2012-08-03T08:18:58Z</time>
      </trkpt>
      <trkpt lat="45.20311" lon="-0.7979">
        <ele>14</ele>
        <time>2012-08-03T08:19:00Z</time>
      </trkpt>
      <trkpt lat="45.20307" lon="-0.79792">
        <ele>14</ele>
        <time>2012-08-03T08:19:02Z</time>
      </trkpt>
      <trkpt lat="45.20302" lon="-0.79795">
        <ele>14</ele>
        <time>2012-08-03T08:19:05Z</time>
      </trkpt>
      <trkpt lat="45.20298" lon="-0.79798">
        <ele>15</ele>
        <time>2012-08-03T08:19:07Z</time>
      </trkpt>
      <trkpt lat="45.20294" lon="-0.798">
        <ele>15</ele>
        <time>2012-08-03T08:19:09Z</time>
      </trkpt>
      <trkpt lat="45.2029" lon="-0.79801">
        <ele>15</ele>
        <time>2012-08-03T08:19:11Z</time>
      </trkpt>
      <trkpt lat="45.20283" lon="-0.79805">
        <ele>16</ele>
        <time>2012-08-03T08:19:13Z</time>
      </trkpt>
      <trkpt lat="45.20278" lon="-0.79807">
        <ele>16</ele>
        <time>2012-08-03T08:19:15Z</time>
      </trkpt>
      <trkpt lat="45.20274" lon="-0.79808">
        <ele>16</ele>
        <time>2012-08-03T08:19:17Z</time>
      </trkpt>
      <trkpt lat="45.20268" lon="-0.7981">
        <ele>16</ele>
        <time>2012-08-03T08:19:20Z</time>
      </trkpt>
      <trkpt lat="45.20262" lon="-0.79812">
        <ele>16</ele>
        <time>2012-08-03T08:19:22Z</time>
      </trkpt>
      <trkpt lat="45.20257" lon="-0.79815">
        <ele>16</ele>
        <time>2012-08-03T08:19:24Z</time>
      </trkpt>
      <trkpt lat="45.20248" lon="-0.79819">
        <ele>17</ele>
        <time>2012-08-03T08:19:26Z</time>
      </trkpt>
      <trkpt lat="45.20243" lon="-0.79822">
        <ele>17</ele>
        <time>2012-08-03T08:19:28Z</time>
      </trkpt>
      <trkpt lat="45.20236" lon="-0.79825">
        <ele>18</ele>
        <time>2012-08-03T08:19:30Z</time>
      </trkpt>
      <trkpt lat="45.2023" lon="-0.79827">
        <ele>18</ele>
        <time>2012-08-03T08:19:32Z</time>
      </trkpt>
      <trkpt lat="45.20225" lon="-0.79829">
        <ele>18</ele>
        <time>2012-08-03T08:19:34Z</time>
      </trkpt>
      <trkpt lat="45.20219" lon="-0.7983">
        <ele>17</ele>
        <time>2012-08-03T08:19:37Z</time>
      </trkpt>
      <trkpt lat="45.20215" lon="-0.79832">
        <ele>17</ele>
        <time>2012-08-03T08:19:39Z</time>
      </trkpt>
      <trkpt lat="45.20211" lon="-0.79838">
        <ele>17</ele>
        <time>2012-08-03T08:19:41Z</time>
      </trkpt>
      <trkpt lat="45.20209" lon="-0.79849">
        <ele>17</ele>
        <time>2012-08-03T08:19:43Z</time>
      </trkpt>
      <trkpt lat="45.20209" lon="-0.79855">
        <ele>17</ele>
        <time>2012-08-03T08:19:45Z</time>
      </trkpt>
      <trkpt lat="45.20209" lon="-0.79862">
        <ele>18</ele>
        <time>2012-08-03T08:19:47Z</time>
      </trkpt>
      <trkpt lat="45.2021" lon="-0.7987">
        <ele>18</ele>
        <time>2012-08-03T08:19:49Z</time>
      </trkpt>
      <trkpt lat="45.2021" lon="-0.79877">
        <ele>18</ele>
        <time>2012-08-03T08:19:52Z</time>
      </trkpt>
      <trkpt lat="45.2021" lon="-0.79884">
        <ele>19</ele>
        <time>2012-08-03T08:19:54Z</time>
      </trkpt>
      <trkpt lat="45.2021" lon="-0.79892">
        <ele>19</ele>
        <time>2012-08-03T08:19:56Z</time>
      </trkpt>
      <trkpt lat="45.20211" lon="-0.79902">
        <ele>19</ele>
        <time>2012-08-03T08:19:58Z</time>
      </trkpt>
      <trkpt lat="45.20212" lon="-0.7991">
        <ele>19</ele>
        <time>2012-08-03T08:20:00Z</time>
      </trkpt>
      <trkpt lat="45.20213" lon="-0.79917">
        <ele>19</ele>
        <time>2012-08-03T08:20:02Z</time>
      </trkpt>
      <trkpt lat="45.20214" lon="-0.79924">
        <ele>19</ele>
        <time>2012-08-03T08:20:04Z</time>
      </trkpt>
      <trkpt lat="45.20216" lon="-0.79931">
        <ele>20</ele>
        <time>2012-08-03T08:20:06Z</time>
      </trkpt>
      <trkpt lat="45.20218" lon="-0.79939">
        <ele>20</ele>
        <time>2012-08-03T08:20:09Z</time>
      </trkpt>
      <trkpt lat="45.20219" lon="-0.79946">
        <ele>20</ele>
        <time>2012-08-03T08:20:11Z</time>
      </trkpt>
      <trkpt lat="45.20221" lon="-0.79953">
        <ele>20</ele>
        <time>2012-08-03T08:20:13Z</time>
      </trkpt>
      <trkpt lat="45.20222" lon="-0.79963">
        <ele>20</ele>
        <time>2012-08-03T08:20:15Z</time>
      </trkpt>
      <trkpt lat="45.20224" lon="-0.7997">
        <ele>20</ele>
        <time>2012-08-03T08:20:17Z</time>
      </trkpt>
      <trkpt lat="45.20225" lon="-0.79978">
        <ele>21</ele>
        <time>2012-08-03T08:20:19Z</time>
      </trkpt>
      <trkpt lat="45.20226" lon="-0.79985">
        <ele>21</ele>
        <time>2012-08-03T08:20:21Z</time>
      </trkpt>
      <trkpt lat="45.20227" lon="-0.79992">
        <ele>21</ele>
        <time>2012-08-03T08:20:23Z</time>
      </trkpt>
      <trkpt lat="45.20228" lon="-0.79999">
        <ele>21</ele>
        <time>2012-08-03T08:20:25Z</time>
      </trkpt>
      <trkpt lat="45.20229" lon="-0.80006">
        <ele>21</ele>
        <time>2012-08-03T08:20:27Z</time>
      </trkpt>
      <trkpt lat="45.2023" lon="-0.80014">
        <ele>21</ele>
        <time>2012-08-03T08:20:29Z</time>
      </trkpt>
      <trkpt lat="45.20232" lon="-0.80021">
        <ele>21</ele>
        <time>2012-08-03T08:20:31Z</time>
      </trkpt>
      <trkpt lat="45.20233" lon="-0.80029">
        <ele>21</ele>
        <time>2012-08-03T08:20:33Z</time>
      </trkpt>
      <trkpt lat="45.20234" lon="-0.80036">
        <ele>21</ele>
        <time>2012-08-03T08:20:36Z</time>
      </trkpt>
      <trkpt lat="45.20232" lon="-0.80042">
        <ele>22</ele>
        <time>2012-08-03T08:20:38Z</time>
      </trkpt>
      <trkpt lat="45.20227" lon="-0.80044">
        <ele>23</ele>
        <time>2012-08-03T08:20:40Z</time>
      </trkpt>
      <trkpt lat="45.20219" lon="-0.80046">
        <ele>24</ele>
        <time>2012-08-03T08:20:42Z</time>
      </trkpt>
      <trkpt lat="45.20214" lon="-0.80049">
        <ele>24</ele>
        <time>2012-08-03T08:20:44Z</time>
      </trkpt>
      <trkpt lat="45.20208" lon="-0.8005">
        <ele>24</ele>
        <time>2012-08-03T08:20:46Z</time>
      </trkpt>
      <trkpt lat="45.20203" lon="-0.80052">
        <ele>24</ele>
        <time>2012-08-03T08:20:49Z</time>
      </trkpt>
      <trkpt lat="45.20198" lon="-0.80055">
        <ele>24</ele>
        <time>2012-08-03T08:20:51Z</time>
      </trkpt>
      <trkpt lat="45.20192" lon="-0.80058">
        <ele>24</ele>
        <time>2012-08-03T08:20:53Z</time>
      </trkpt>
      <trkpt lat="45.20187" lon="-0.80059">
        <ele>24</ele>
        <time>2012-08-03T08:20:55Z</time>
      </trkpt>
      <trkpt lat="45.20182" lon="-0.80061">
        <ele>24</ele>
        <time>2012-08-03T08:20:57Z</time>
      </trkpt>
      <trkpt lat="45.20177" lon="-0.80062">
        <ele>23</ele>
        <time>2012-08-03T08:20:59Z</time>
      </trkpt>
      <trkpt lat="45.20171" lon="-0.80064">
        <ele>23</ele>
        <time>2012-08-03T08:21:01Z</time>
      </trkpt>
      <trkpt lat="45.20166" lon="-0.80065">
        <ele>22</ele>
        <time>2012-08-03T08:21:03Z</time>
      </trkpt>
      <trkpt lat="45.20158" lon="-0.80066">
        <ele>22</ele>
        <time>2012-08-03T08:21:05Z</time>
      </trkpt>
      <trkpt lat="45.20153" lon="-0.80067">
        <ele>23</ele>
        <time>2012-08-03T08:21:07Z</time>
      </trkpt>
      <trkpt lat="45.20148" lon="-0.80068">
        <ele>23</ele>
        <time>2012-08-03T08:21:09Z</time>
      </trkpt>
      <trkpt lat="45.20143" lon="-0.80069">
        <ele>23</ele>
        <time>2012-08-03T08:21:11Z</time>
      </trkpt>
      <trkpt lat="45.20138" lon="-0.8007">
        <ele>23</ele>
        <time>2012-08-03T08:21:13Z</time>
      </trkpt>
      <trkpt lat="45.20133" lon="-0.80071">
        <ele>24</ele>
        <time>2012-08-03T08:21:15Z</time>
      </trkpt>
      <trkpt lat="45.20127" lon="-0.80072">
        <ele>25</ele>
        <time>2012-08-03T08:21:17Z</time>
      </trkpt>
      <trkpt lat="45.20122" lon="-0.80073">
        <ele>26</ele>
        <time>2012-08-03T08:21:19Z</time>
      </trkpt>
      <trkpt lat="45.20116" lon="-0.80074">
        <ele>27</ele>
        <time>2012-08-03T08:21:22Z</time>
      </trkpt>
      <trkpt lat="45.2011" lon="-0.80076">
        <ele>27</ele>
        <time>2012-08-03T08:21:24Z</time>
      </trkpt>
      <trkpt lat="45.20105" lon="-0.80078">
        <ele>26</ele>
        <time>2012-08-03T08:21:26Z</time>
      </trkpt>
      <trkpt lat="45.20099" lon="-0.8008">
        <ele>26</ele>
        <time>2012-08-03T08:21:28Z</time>
      </trkpt>
      <trkpt lat="45.20094" lon="-0.80082">
        <ele>26</ele>
        <time>2012-08-03T08:21:30Z</time>
      </trkpt>
      <trkpt lat="45.20088" lon="-0.80085">
        <ele>26</ele>
        <time>2012-08-03T08:21:32Z</time>
      </trkpt>
      <trkpt lat="45.2008" lon="-0.80088">
        <ele>26</ele>
        <time>2012-08-03T08:21:34Z</time>
      </trkpt>
      <trkpt lat="45.20075" lon="-0.8009">
        <ele>25</ele>
        <time>2012-08-03T08:21:36Z</time>
      </trkpt>
      <trkpt lat="45.20069" lon="-0.80092">
        <ele>25</ele>
        <time>2012-08-03T08:21:38Z</time>
      </trkpt>
      <trkpt lat="45.20064" lon="-0.80095">
        <ele>25</ele>
        <time>2012-08-03T08:21:40Z</time>
      </trkpt>
      <trkpt lat="45.20059" lon="-0.80097">
        <ele>25</ele>
        <time>2012-08-03T08:21:42Z</time>
      </trkpt>
      <trkpt lat="45.20053" lon="-0.80099">
        <ele>25</ele>
        <time>2012-08-03T08:21:44Z</time>
      </trkpt>
      <trkpt lat="45.20048" lon="-0.80101">
        <ele>26</ele>
        <time>2012-08-03T08:21:46Z</time>
      </trkpt>
      <trkpt lat="45.20043" lon="-0.80102">
        <ele>26</ele>
        <time>2012-08-03T08:21:49Z</time>
      </trkpt>
      <trkpt lat="45.20037" lon="-0.80104">
        <ele>27</ele>
        <time>2012-08-03T08:21:51Z</time>
      </trkpt>
      <trkpt lat="45.20032" lon="-0.80105">
        <ele>26</ele>
        <time>2012-08-03T08:21:53Z</time>
      </trkpt>
      <trkpt lat="45.20024" lon="-0.80107">
        <ele>26</ele>
        <time>2012-08-03T08:21:55Z</time>
      </trkpt>
      <trkpt lat="45.20018" lon="-0.80108">
        <ele>26</ele>
        <time>2012-08-03T08:21:57Z</time>
      </trkpt>
      <trkpt lat="45.20013" lon="-0.80109">
        <ele>25</ele>
        <time>2012-08-03T08:21:59Z</time>
      </trkpt>
      <trkpt lat="45.20007" lon="-0.80111">
        <ele>25</ele>
        <time>2012-08-03T08:22:01Z</time>
      </trkpt>
      <trkpt lat="45.20001" lon="-0.80112">
        <ele>25</ele>
        <time>2012-08-03T08:22:03Z</time>
      </trkpt>
      <trkpt lat="45.19996" lon="-0.80113">
        <ele>25</ele>
        <time>2012-08-03T08:22:05Z</time>
      </trkpt>
      <trkpt lat="45.19991" lon="-0.80115">
        <ele>25</ele>
        <time>2012-08-03T08:22:07Z</time>
      </trkpt>
      <trkpt lat="45.19986" lon="-0.80117">
        <ele>25</ele>
        <time>2012-08-03T08:22:09Z</time>
      </trkpt>
      <trkpt lat="45.1998" lon="-0.80118">
        <ele>24</ele>
        <time>2012-08-03T08:22:11Z</time>
      </trkpt>
      <trkpt lat="45.19975" lon="-0.8012">
        <ele>24</ele>
        <time>2012-08-03T08:22:13Z</time>
      </trkpt>
      <trkpt lat="45.1997" lon="-0.80122">
        <ele>23</ele>
        <time>2012-08-03T08:22:15Z</time>
      </trkpt>
      <trkpt lat="45.19965" lon="-0.80125">
        <ele>23</ele>
        <time>2012-08-03T08:22:17Z</time>
      </trkpt>
      <trkpt lat="45.19959" lon="-0.80128">
        <ele>23</ele>
        <time>2012-08-03T08:22:20Z</time>
      </trkpt>
      <trkpt lat="45.19954" lon="-0.8013">
        <ele>23</ele>
        <time>2012-08-03T08:22:22Z</time>
      </trkpt>
      <trkpt lat="45.19947" lon="-0.80134">
        <ele>23</ele>
        <time>2012-08-03T08:22:24Z</time>
      </trkpt>
      <trkpt lat="45.19941" lon="-0.80137">
        <ele>23</ele>
        <time>2012-08-03T08:22:26Z</time>
      </trkpt>
      <trkpt lat="45.19936" lon="-0.80139">
        <ele>24</ele>
        <time>2012-08-03T08:22:28Z</time>
      </trkpt>
      <trkpt lat="45.19931" lon="-0.80142">
        <ele>24</ele>
        <time>2012-08-03T08:22:30Z</time>
      </trkpt>
      <trkpt lat="45.19928" lon="-0.80148">
        <ele>24</ele>
        <time>2012-08-03T08:22:32Z</time>
      </trkpt>
      <trkpt lat="45.19928" lon="-0.80156">
        <ele>24</ele>
        <time>2012-08-03T08:22:34Z</time>
      </trkpt>
      <trkpt lat="45.19929" lon="-0.80163">
        <ele>23</ele>
        <time>2012-08-03T08:22:36Z</time>
      </trkpt>
      <trkpt lat="45.19931" lon="-0.80171">
        <ele>23</ele>
        <time>2012-08-03T08:22:38Z</time>
      </trkpt>
      <trkpt lat="45.19933" lon="-0.80177">
        <ele>23</ele>
        <time>2012-08-03T08:22:40Z</time>
      </trkpt>
      <trkpt lat="45.19935" lon="-0.80184">
        <ele>23</ele>
        <time>2012-08-03T08:22:42Z</time>
      </trkpt>
      <trkpt lat="45.19938" lon="-0.80191">
        <ele>23</ele>
        <time>2012-08-03T08:22:44Z</time>
      </trkpt>
      <trkpt lat="45.1994" lon="-0.80199">
        <ele>23</ele>
        <time>2012-08-03T08:22:46Z</time>
      </trkpt>
      <trkpt lat="45.19942" lon="-0.80206">
        <ele>22</ele>
        <time>2012-08-03T08:22:49Z</time>
      </trkpt>
      <trkpt lat="45.19944" lon="-0.80213">
        <ele>22</ele>
        <time>2012-08-03T08:22:51Z</time>
      </trkpt>
      <trkpt lat="45.19946" lon="-0.80221">
        <ele>22</ele>
        <time>2012-08-03T08:22:53Z</time>
      </trkpt>
      <trkpt lat="45.1995" lon="-0.80232">
        <ele>22</ele>
        <time>2012-08-03T08:22:55Z</time>
      </trkpt>
      <trkpt lat="45.19952" lon="-0.80239">
        <ele>22</ele>
        <time>2012-08-03T08:22:57Z</time>
      </trkpt>
      <trkpt lat="45.19955" lon="-0.80246">
        <ele>22</ele>
        <time>2012-08-03T08:22:59Z</time>
      </trkpt>
      <trkpt lat="45.19958" lon="-0.80252">
        <ele>22</ele>
        <time>2012-08-03T08:23:01Z</time>
      </trkpt>
      <trkpt lat="45.19962" lon="-0.80259">
        <ele>22</ele>
        <time>2012-08-03T08:23:03Z</time>
      </trkpt>
      <trkpt lat="45.19965" lon="-0.80265">
        <ele>22</ele>
        <time>2012-08-03T08:23:06Z</time>
      </trkpt>
      <trkpt lat="45.19966" lon="-0.80272">
        <ele>22</ele>
        <time>2012-08-03T08:23:08Z</time>
      </trkpt>
      <trkpt lat="45.19968" lon="-0.8028">
        <ele>22</ele>
        <time>2012-08-03T08:23:10Z</time>
      </trkpt>
      <trkpt lat="45.19969" lon="-0.80288">
        <ele>22</ele>
        <time>2012-08-03T08:23:12Z</time>
      </trkpt>
      <trkpt lat="45.1997" lon="-0.80296">
        <ele>22</ele>
        <time>2012-08-03T08:23:14Z</time>
      </trkpt>
      <trkpt lat="45.19971" lon="-0.80304">
        <ele>22</ele>
        <time>2012-08-03T08:23:16Z</time>
      </trkpt>
      <trkpt lat="45.19972" lon="-0.80313">
        <ele>22</ele>
        <time>2012-08-03T08:23:18Z</time>
      </trkpt>
      <trkpt lat="45.19973" lon="-0.80325">
        <ele>22</ele>
        <time>2012-08-03T08:23:20Z</time>
      </trkpt>
      <trkpt lat="45.19974" lon="-0.80333">
        <ele>22</ele>
        <time>2012-08-03T08:23:22Z</time>
      </trkpt>
      <trkpt lat="45.19975" lon="-0.80341">
        <ele>23</ele>
        <time>2012-08-03T08:23:24Z</time>
      </trkpt>
      <trkpt lat="45.19976" lon="-0.80349">
        <ele>23</ele>
        <time>2012-08-03T08:23:26Z</time>
      </trkpt>
      <trkpt lat="45.19977" lon="-0.80358">
        <ele>23</ele>
        <time>2012-08-03T08:23:28Z</time>
      </trkpt>
      <trkpt lat="45.19978" lon="-0.80365">
        <ele>23</ele>
        <time>2012-08-03T08:23:30Z</time>
      </trkpt>
      <trkpt lat="45.19978" lon="-0.80373">
        <ele>23</ele>
        <time>2012-08-03T08:23:32Z</time>
      </trkpt>
      <trkpt lat="45.19979" lon="-0.8038">
        <ele>22</ele>
        <time>2012-08-03T08:23:35Z</time>
      </trkpt>
      <trkpt lat="45.19981" lon="-0.80388">
        <ele>22</ele>
        <time>2012-08-03T08:23:37Z</time>
      </trkpt>
      <trkpt lat="45.19982" lon="-0.80396">
        <ele>22</ele>
        <time>2012-08-03T08:23:39Z</time>
      </trkpt>
      <trkpt lat="45.19983" lon="-0.80404">
        <ele>22</ele>
        <time>2012-08-03T08:23:41Z</time>
      </trkpt>
      <trkpt lat="45.19985" lon="-0.80412">
        <ele>23</ele>
        <time>2012-08-03T08:23:43Z</time>
      </trkpt>
      <trkpt lat="45.19986" lon="-0.80421">
        <ele>23</ele>
        <time>2012-08-03T08:23:45Z</time>
      </trkpt>
      <trkpt lat="45.19987" lon="-0.80429">
        <ele>23</ele>
        <time>2012-08-03T08:23:47Z</time>
      </trkpt>
      <trkpt lat="45.19989" lon="-0.80441">
        <ele>23</ele>
        <time>2012-08-03T08:23:49Z</time>
      </trkpt>
      <trkpt lat="45.19991" lon="-0.80449">
        <ele>23</ele>
        <time>2012-08-03T08:23:51Z</time>
      </trkpt>
      <trkpt lat="45.19992" lon="-0.80456">
        <ele>23</ele>
        <time>2012-08-03T08:23:53Z</time>
      </trkpt>
      <trkpt lat="45.19993" lon="-0.80464">
        <ele>23</ele>
        <time>2012-08-03T08:23:55Z</time>
      </trkpt>
      <trkpt lat="45.19994" lon="-0.80471">
        <ele>23</ele>
        <time>2012-08-03T08:23:57Z</time>
      </trkpt>
      <trkpt lat="45.19995" lon="-0.80479">
        <ele>23</ele>
        <time>2012-08-03T08:23:59Z</time>
      </trkpt>
      <trkpt lat="45.19997" lon="-0.80487">
        <ele>23</ele>
        <time>2012-08-03T08:24:01Z</time>
      </trkpt>
      <trkpt lat="45.19998" lon="-0.80494">
        <ele>23</ele>
        <time>2012-08-03T08:24:04Z</time>
      </trkpt>
      <trkpt lat="45.19999" lon="-0.80502">
        <ele>23</ele>
        <time>2012-08-03T08:24:06Z</time>
      </trkpt>
      <trkpt lat="45.19999" lon="-0.8051">
        <ele>23</ele>
        <time>2012-08-03T08:24:08Z</time>
      </trkpt>
      <trkpt lat="45.2" lon="-0.80518">
        <ele>23</ele>
        <time>2012-08-03T08:24:10Z</time>
      </trkpt>
      <trkpt lat="45.20002" lon="-0.80525">
        <ele>23</ele>
        <time>2012-08-03T08:24:12Z</time>
      </trkpt>
      <trkpt lat="45.20003" lon="-0.80533">
        <ele>24</ele>
        <time>2012-08-03T08:24:14Z</time>
      </trkpt>
      <trkpt lat="45.20004" lon="-0.80541">
        <ele>24</ele>
        <time>2012-08-03T08:24:16Z</time>
      </trkpt>
      <trkpt lat="45.20005" lon="-0.80553">
        <ele>24</ele>
        <time>2012-08-03T08:24:18Z</time>
      </trkpt>
      <trkpt lat="45.20007" lon="-0.8056">
        <ele>24</ele>
        <time>2012-08-03T08:24:20Z</time>
      </trkpt>
      <trkpt lat="45.20007" lon="-0.80568">
        <ele>24</ele>
        <time>2012-08-03T08:24:22Z</time>
      </trkpt>
      <trkpt lat="45.20003" lon="-0.8057">
        <ele>24</ele>
        <time>2012-08-03T08:24:24Z</time>
      </trkpt>
      <trkpt lat="45.19998" lon="-0.80569">
        <ele>25</ele>
        <time>2012-08-03T08:24:26Z</time>
      </trkpt>
      <trkpt lat="45.19993" lon="-0.80568">
        <ele>26</ele>
        <time>2012-08-03T08:24:28Z</time>
      </trkpt>
      <trkpt lat="45.19987" lon="-0.80567">
        <ele>27</ele>
        <time>2012-08-03T08:24:30Z</time>
      </trkpt>
      <trkpt lat="45.19982" lon="-0.80566">
        <ele>28</ele>
        <time>2012-08-03T08:24:33Z</time>
      </trkpt>
      <trkpt lat="45.19977" lon="-0.80564">
        <ele>27</ele>
        <time>2012-08-03T08:24:35Z</time>
      </trkpt>
      <trkpt lat="45.1997" lon="-0.80562">
        <ele>28</ele>
        <time>2012-08-03T08:24:37Z</time>
      </trkpt>
      <trkpt lat="45.19965" lon="-0.80561">
        <ele>28</ele>
        <time>2012-08-03T08:24:39Z</time>
      </trkpt>
      <trkpt lat="45.1996" lon="-0.8056">
        <ele>28</ele>
        <time>2012-08-03T08:24:41Z</time>
      </trkpt>
      <trkpt lat="45.19954" lon="-0.80559">
        <ele>28</ele>
        <time>2012-08-03T08:24:43Z</time>
      </trkpt>
      <trkpt lat="45.19949" lon="-0.80562">
        <ele>28</ele>
        <time>2012-08-03T08:24:45Z</time>
      </trkpt>
      <trkpt lat="45.19945" lon="-0.80568">
        <ele>27</ele>
        <time>2012-08-03T08:24:47Z</time>
      </trkpt>
      <trkpt lat="45.19945" lon="-0.80576">
        <ele>25</ele>
        <time>2012-08-03T08:24:49Z</time>
      </trkpt>
      <trkpt lat="45.19946" lon="-0.80583">
        <ele>25</ele>
        <time>2012-08-03T08:24:51Z</time>
      </trkpt>
      <trkpt lat="45.19947" lon="-0.8059">
        <ele>25</ele>
        <time>2012-08-03T08:24:53Z</time>
      </trkpt>
      <trkpt lat="45.19947" lon="-0.80598">
        <ele>25</ele>
        <time>2012-08-03T08:24:56Z</time>
      </trkpt>
      <trkpt lat="45.19948" lon="-0.80606">
        <ele>25</ele>
        <time>2012-08-03T08:24:58Z</time>
      </trkpt>
      <trkpt lat="45.19949" lon="-0.80612">
        <ele>25</ele>
        <time>2012-08-03T08:25:00Z</time>
      </trkpt>
      <trkpt lat="45.1995" lon="-0.8062">
        <ele>25</ele>
        <time>2012-08-03T08:25:02Z</time>
      </trkpt>
      <trkpt lat="45.19952" lon="-0.80632">
        <ele>25</ele>
        <time>2012-08-03T08:25:04Z</time>
      </trkpt>
      <trkpt lat="45.19953" lon="-0.8064">
        <ele>25</ele>
        <time>2012-08-03T08:25:06Z</time>
      </trkpt>
      <trkpt lat="45.19953" lon="-0.80648">
        <ele>26</ele>
        <time>2012-08-03T08:25:08Z</time>
      </trkpt>
      <trkpt lat="45.19954" lon="-0.80656">
        <ele>26</ele>
        <time>2012-08-03T08:25:10Z</time>
      </trkpt>
      <trkpt lat="45.19955" lon="-0.80664">
        <ele>26</ele>
        <time>2012-08-03T08:25:12Z</time>
      </trkpt>
      <trkpt lat="45.19956" lon="-0.80673">
        <ele>26</ele>
        <time>2012-08-03T08:25:14Z</time>
      </trkpt>
      <trkpt lat="45.19957" lon="-0.8068">
        <ele>25</ele>
        <time>2012-08-03T08:25:17Z</time>
      </trkpt>
      <trkpt lat="45.19958" lon="-0.80688">
        <ele>25</ele>
        <time>2012-08-03T08:25:19Z</time>
      </trkpt>
      <trkpt lat="45.19959" lon="-0.80696">
        <ele>25</ele>
        <time>2012-08-03T08:25:21Z</time>
      </trkpt>
      <trkpt lat="45.1996" lon="-0.80704">
        <ele>24</ele>
        <time>2012-08-03T08:25:23Z</time>
      </trkpt>
      <trkpt lat="45.19961" lon="-0.80712">
        <ele>24</ele>
        <time>2012-08-03T08:25:25Z</time>
      </trkpt>
      <trkpt lat="45.19963" lon="-0.80724">
        <ele>24</ele>
        <time>2012-08-03T08:25:27Z</time>
      </trkpt>
      <trkpt lat="45.19964" lon="-0.80732">
        <ele>25</ele>
        <time>2012-08-03T08:25:29Z</time>
      </trkpt>
      <trkpt lat="45.19966" lon="-0.80741">
        <ele>24</ele>
        <time>2012-08-03T08:25:31Z</time>
      </trkpt>
      <trkpt lat="45.19967" lon="-0.80749">
        <ele>24</ele>
        <time>2012-08-03T08:25:33Z</time>
      </trkpt>
      <trkpt lat="45.19968" lon="-0.80757">
        <ele>24</ele>
        <time>2012-08-03T08:25:35Z</time>
      </trkpt>
      <trkpt lat="45.19969" lon="-0.80765">
        <ele>24</ele>
        <time>2012-08-03T08:25:37Z</time>
      </trkpt>
      <trkpt lat="45.1997" lon="-0.80773">
        <ele>24</ele>
        <time>2012-08-03T08:25:39Z</time>
      </trkpt>
      <trkpt lat="45.19972" lon="-0.80782">
        <ele>24</ele>
        <time>2012-08-03T08:25:41Z</time>
      </trkpt>
      <trkpt lat="45.19973" lon="-0.8079">
        <ele>24</ele>
        <time>2012-08-03T08:25:43Z</time>
      </trkpt>
      <trkpt lat="45.19974" lon="-0.80799">
        <ele>23</ele>
        <time>2012-08-03T08:25:45Z</time>
      </trkpt>
      <trkpt lat="45.19975" lon="-0.80807">
        <ele>23</ele>
        <time>2012-08-03T08:25:48Z</time>
      </trkpt>
      <trkpt lat="45.19976" lon="-0.80815">
        <ele>23</ele>
        <time>2012-08-03T08:25:50Z</time>
      </trkpt>
      <trkpt lat="45.19977" lon="-0.80823">
        <ele>22</ele>
        <time>2012-08-03T08:25:52Z</time>
      </trkpt>
      <trkpt lat="45.19978" lon="-0.80832">
        <ele>22</ele>
        <time>2012-08-03T08:25:54Z</time>
      </trkpt>
      <trkpt lat="45.19979" lon="-0.8084">
        <ele>22</ele>
        <time>2012-08-03T08:25:56Z</time>
      </trkpt>
      <trkpt lat="45.1998" lon="-0.80848">
        <ele>23</ele>
        <time>2012-08-03T08:25:58Z</time>
      </trkpt>
      <trkpt lat="45.19981" lon="-0.80856">
        <ele>23</ele>
        <time>2012-08-03T08:26:00Z</time>
      </trkpt>
      <trkpt lat="45.19983" lon="-0.80868">
        <ele>23</ele>
        <time>2012-08-03T08:26:02Z</time>
      </trkpt>
      <trkpt lat="45.19984" lon="-0.80876">
        <ele>23</ele>
        <time>2012-08-03T08:26:04Z</time>
      </trkpt>
      <trkpt lat="45.19985" lon="-0.80884">
        <ele>23</ele>
        <time>2012-08-03T08:26:06Z</time>
      </trkpt>
      <trkpt lat="45.19986" lon="-0.80892">
        <ele>22</ele>
        <time>2012-08-03T08:26:08Z</time>
      </trkpt>
      <trkpt lat="45.19987" lon="-0.80901">
        <ele>23</ele>
        <time>2012-08-03T08:26:10Z</time>
      </trkpt>
      <trkpt lat="45.19989" lon="-0.80909">
        <ele>23</ele>
        <time>2012-08-03T08:26:12Z</time>
      </trkpt>
      <trkpt lat="45.19989" lon="-0.80918">
        <ele>23</ele>
        <time>2012-08-03T08:26:14Z</time>
      </trkpt>
      <trkpt lat="45.1999" lon="-0.80925">
        <ele>23</ele>
        <time>2012-08-03T08:26:16Z</time>
      </trkpt>
      <trkpt lat="45.19991" lon="-0.80933">
        <ele>22</ele>
        <time>2012-08-03T08:26:18Z</time>
      </trkpt>
      <trkpt lat="45.19992" lon="-0.80941">
        <ele>22</ele>
        <time>2012-08-03T08:26:20Z</time>
      </trkpt>
      <trkpt lat="45.19994" lon="-0.8095">
        <ele>22</ele>
        <time>2012-08-03T08:26:22Z</time>
      </trkpt>
      <trkpt lat="45.19995" lon="-0.80958">
        <ele>23</ele>
        <time>2012-08-03T08:26:25Z</time>
      </trkpt>
      <trkpt lat="45.19995" lon="-0.80965">
        <ele>23</ele>
        <time>2012-08-03T08:26:27Z</time>
      </trkpt>
      <trkpt lat="45.19996" lon="-0.80973">
        <ele>24</ele>
        <time>2012-08-03T08:26:29Z</time>
      </trkpt>
      <trkpt lat="45.19997" lon="-0.80981">
        <ele>24</ele>
        <time>2012-08-03T08:26:31Z</time>
      </trkpt>
      <trkpt lat="45.19999" lon="-0.80993">
        <ele>24</ele>
        <time>2012-08-03T08:26:33Z</time>
      </trkpt>
      <trkpt lat="45.2" lon="-0.81001">
        <ele>24</ele>
        <time>2012-08-03T08:26:35Z</time>
      </trkpt>
      <trkpt lat="45.20001" lon="-0.81009">
        <ele>24</ele>
        <time>2012-08-03T08:26:37Z</time>
      </trkpt>
      <trkpt lat="45.20002" lon="-0.81017">
        <ele>23</ele>
        <time>2012-08-03T08:26:39Z</time>
      </trkpt>
      <trkpt lat="45.20004" lon="-0.81025">
        <ele>23</ele>
        <time>2012-08-03T08:26:41Z</time>
      </trkpt>
      <trkpt lat="45.20006" lon="-0.81032">
        <ele>23</ele>
        <time>2012-08-03T08:26:43Z</time>
      </trkpt>
      <trkpt lat="45.20011" lon="-0.81036">
        <ele>23</ele>
        <time>2012-08-03T08:26:45Z</time>
      </trkpt>
      <trkpt lat="45.20017" lon="-0.81034">
        <ele>23</ele>
        <time>2012-08-03T08:26:47Z</time>
      </trkpt>
      <trkpt lat="45.20022" lon="-0.81032">
        <ele>23</ele>
        <time>2012-08-03T08:26:49Z</time>
      </trkpt>
      <trkpt lat="45.20028" lon="-0.8103">
        <ele>23</ele>
        <time>2012-08-03T08:26:51Z</time>
      </trkpt>
      <trkpt lat="45.20033" lon="-0.81028">
        <ele>23</ele>
        <time>2012-08-03T08:26:53Z</time>
      </trkpt>
      <trkpt lat="45.20039" lon="-0.81025">
        <ele>23</ele>
        <time>2012-08-03T08:26:55Z</time>
      </trkpt>
      <trkpt lat="45.20045" lon="-0.81023">
        <ele>23</ele>
        <time>2012-08-03T08:26:57Z</time>
      </trkpt>
      <trkpt lat="45.2005" lon="-0.81021">
        <ele>23</ele>
        <time>2012-08-03T08:27:00Z</time>
      </trkpt>
      <trkpt lat="45.20056" lon="-0.81019">
        <ele>23</ele>
        <time>2012-08-03T08:27:02Z</time>
      </trkpt>
      <trkpt lat="45.20062" lon="-0.81017">
        <ele>22</ele>
        <time>2012-08-03T08:27:04Z</time>
      </trkpt>
      <trkpt lat="45.20067" lon="-0.81015">
        <ele>22</ele>
        <time>2012-08-03T08:27:06Z</time>
      </trkpt>
      <trkpt lat="45.20076" lon="-0.81011">
        <ele>22</ele>
        <time>2012-08-03T08:27:08Z</time>
      </trkpt>
      <trkpt lat="45.20082" lon="-0.81009">
        <ele>23</ele>
        <time>2012-08-03T08:27:10Z</time>
      </trkpt>
      <trkpt lat="45.20087" lon="-0.81006">
        <ele>23</ele>
        <time>2012-08-03T08:27:12Z</time>
      </trkpt>
      <trkpt lat="45.20093" lon="-0.81004">
        <ele>22</ele>
        <time>2012-08-03T08:27:14Z</time>
      </trkpt>
      <trkpt lat="45.20099" lon="-0.81002">
        <ele>22</ele>
        <time>2012-08-03T08:27:16Z</time>
      </trkpt>
      <trkpt lat="45.20105" lon="-0.80999">
        <ele>22</ele>
        <time>2012-08-03T08:27:19Z</time>
      </trkpt>
      <trkpt lat="45.20111" lon="-0.80997">
        <ele>22</ele>
        <time>2012-08-03T08:27:21Z</time>
      </trkpt>
      <trkpt lat="45.2012" lon="-0.80993">
        <ele>22</ele>
        <time>2012-08-03T08:27:23Z</time>
      </trkpt>
      <trkpt lat="45.20126" lon="-0.80991">
        <ele>22</ele>
        <time>2012-08-03T08:27:25Z</time>
      </trkpt>
      <trkpt lat="45.20132" lon="-0.80989">
        <ele>22</ele>
        <time>2012-08-03T08:27:27Z</time>
      </trkpt>
      <trkpt lat="45.20138" lon="-0.80987">
        <ele>21</ele>
        <time>2012-08-03T08:27:29Z</time>
      </trkpt>
      <trkpt lat="45.20144" lon="-0.80984">
        <ele>21</ele>
        <time>2012-08-03T08:27:31Z</time>
      </trkpt>
      <trkpt lat="45.2015" lon="-0.80981">
        <ele>21</ele>
        <time>2012-08-03T08:27:33Z</time>
      </trkpt>
      <trkpt lat="45.20156" lon="-0.80979">
        <ele>21</ele>
        <time>2012-08-03T08:27:35Z</time>
      </trkpt>
      <trkpt lat="45.20162" lon="-0.80977">
        <ele>21</ele>
        <time>2012-08-03T08:27:37Z</time>
      </trkpt>
      <trkpt lat="45.20168" lon="-0.80975">
        <ele>21</ele>
        <time>2012-08-03T08:27:39Z</time>
      </trkpt>
      <trkpt lat="45.20174" lon="-0.80972">
        <ele>21</ele>
        <time>2012-08-03T08:27:42Z</time>
      </trkpt>
      <trkpt lat="45.2018" lon="-0.80971">
        <ele>20</ele>
        <time>2012-08-03T08:27:44Z</time>
      </trkpt>
      <trkpt lat="45.20186" lon="-0.80968">
        <ele>21</ele>
        <time>2012-08-03T08:27:46Z</time>
      </trkpt>
      <trkpt lat="45.20192" lon="-0.80966">
        <ele>21</ele>
        <time>2012-08-03T08:27:48Z</time>
      </trkpt>
      <trkpt lat="45.20198" lon="-0.80963">
        <ele>21</ele>
        <time>2012-08-03T08:27:50Z</time>
      </trkpt>
      <trkpt lat="45.20206" lon="-0.8096">
        <ele>21</ele>
        <time>2012-08-03T08:27:52Z</time>
      </trkpt>
      <trkpt lat="45.20212" lon="-0.80957">
        <ele>21</ele>
        <time>2012-08-03T08:27:54Z</time>
      </trkpt>
      <trkpt lat="45.20218" lon="-0.80955">
        <ele>21</ele>
        <time>2012-08-03T08:27:56Z</time>
      </trkpt>
      <trkpt lat="45.20223" lon="-0.80953">
        <ele>22</ele>
        <time>2012-08-03T08:27:58Z</time>
      </trkpt>
      <trkpt lat="45.20229" lon="-0.8095">
        <ele>22</ele>
        <time>2012-08-03T08:28:00Z</time>
      </trkpt>
      <trkpt lat="45.20234" lon="-0.80949">
        <ele>22</ele>
        <time>2012-08-03T08:28:02Z</time>
      </trkpt>
      <trkpt lat="45.2024" lon="-0.80947">
        <ele>22</ele>
        <time>2012-08-03T08:28:04Z</time>
      </trkpt>
      <trkpt lat="45.20245" lon="-0.80945">
        <ele>22</ele>
        <time>2012-08-03T08:28:07Z</time>
      </trkpt>
      <trkpt lat="45.20251" lon="-0.80943">
        <ele>21</ele>
        <time>2012-08-03T08:28:09Z</time>
      </trkpt>
      <trkpt lat="45.20256" lon="-0.80941">
        <ele>21</ele>
        <time>2012-08-03T08:28:11Z</time>
      </trkpt>
      <trkpt lat="45.20261" lon="-0.80939">
        <ele>21</ele>
        <time>2012-08-03T08:28:13Z</time>
      </trkpt>
      <trkpt lat="45.20269" lon="-0.80935">
        <ele>21</ele>
        <time>2012-08-03T08:28:15Z</time>
      </trkpt>
      <trkpt lat="45.20275" lon="-0.80933">
        <ele>21</ele>
        <time>2012-08-03T08:28:17Z</time>
      </trkpt>
      <trkpt lat="45.20281" lon="-0.80931">
        <ele>21</ele>
        <time>2012-08-03T08:28:19Z</time>
      </trkpt>
      <trkpt lat="45.20285" lon="-0.80929">
        <ele>22</ele>
        <time>2012-08-03T08:28:21Z</time>
      </trkpt>
      <trkpt lat="45.20291" lon="-0.80926">
        <ele>22</ele>
        <time>2012-08-03T08:28:24Z</time>
      </trkpt>
      <trkpt lat="45.20296" lon="-0.80925">
        <ele>22</ele>
        <time>2012-08-03T08:28:26Z</time>
      </trkpt>
      <trkpt lat="45.20302" lon="-0.80922">
        <ele>22</ele>
        <time>2012-08-03T08:28:28Z</time>
      </trkpt>
      <trkpt lat="45.20307" lon="-0.8092">
        <ele>22</ele>
        <time>2012-08-03T08:28:30Z</time>
      </trkpt>
      <trkpt lat="45.20316" lon="-0.80918">
        <ele>22</ele>
        <time>2012-08-03T08:28:32Z</time>
      </trkpt>
      <trkpt lat="45.20321" lon="-0.80915">
        <ele>22</ele>
        <time>2012-08-03T08:28:34Z</time>
      </trkpt>
      <trkpt lat="45.20327" lon="-0.80913">
        <ele>22</ele>
        <time>2012-08-03T08:28:36Z</time>
      </trkpt>
      <trkpt lat="45.20332" lon="-0.80911">
        <ele>22</ele>
        <time>2012-08-03T08:28:38Z</time>
      </trkpt>
      <trkpt lat="45.20338" lon="-0.80909">
        <ele>22</ele>
        <time>2012-08-03T08:28:40Z</time>
      </trkpt>
      <trkpt lat="45.20343" lon="-0.80907">
        <ele>22</ele>
        <time>2012-08-03T08:28:43Z</time>
      </trkpt>
      <trkpt lat="45.20349" lon="-0.80905">
        <ele>22</ele>
        <time>2012-08-03T08:28:45Z</time>
      </trkpt>
      <trkpt lat="45.20355" lon="-0.80903">
        <ele>23</ele>
        <time>2012-08-03T08:28:47Z</time>
      </trkpt>
      <trkpt lat="45.2036" lon="-0.80901">
        <ele>23</ele>
        <time>2012-08-03T08:28:49Z</time>
      </trkpt>
      <trkpt lat="45.20366" lon="-0.80899">
        <ele>23</ele>
        <time>2012-08-03T08:28:51Z</time>
      </trkpt>
      <trkpt lat="45.20375" lon="-0.80896">
        <ele>22</ele>
        <time>2012-08-03T08:28:53Z</time>
      </trkpt>
      <trkpt lat="45.2038" lon="-0.80893">
        <ele>23</ele>
        <time>2012-08-03T08:28:55Z</time>
      </trkpt>
      <trkpt lat="45.20385" lon="-0.80891">
        <ele>23</ele>
        <time>2012-08-03T08:28:58Z</time>
      </trkpt>
      <trkpt lat="45.20391" lon="-0.8089">
        <ele>23</ele>
        <time>2012-08-03T08:29:00Z</time>
      </trkpt>
      <trkpt lat="45.20396" lon="-0.80888">
        <ele>23</ele>
        <time>2012-08-03T08:29:02Z</time>
      </trkpt>
      <trkpt lat="45.20404" lon="-0.80885">
        <ele>23</ele>
        <time>2012-08-03T08:29:04Z</time>
      </trkpt>
      <trkpt lat="45.2041" lon="-0.80883">
        <ele>23</ele>
        <time>2012-08-03T08:29:06Z</time>
      </trkpt>
      <trkpt lat="45.20415" lon="-0.80881">
        <ele>24</ele>
        <time>2012-08-03T08:29:08Z</time>
      </trkpt>
      <trkpt lat="45.2042" lon="-0.80879">
        <ele>24</ele>
        <time>2012-08-03T08:29:10Z</time>
      </trkpt>
      <trkpt lat="45.20425" lon="-0.80877">
        <ele>24</ele>
        <time>2012-08-03T08:29:12Z</time>
      </trkpt>
      <trkpt lat="45.2043" lon="-0.80875">
        <ele>24</ele>
        <time>2012-08-03T08:29:15Z</time>
      </trkpt>
      <trkpt lat="45.20435" lon="-0.80873">
        <ele>23</ele>
        <time>2012-08-03T08:29:17Z</time>
      </trkpt>
      <trkpt lat="45.20441" lon="-0.80871">
        <ele>23</ele>
        <time>2012-08-03T08:29:19Z</time>
      </trkpt>
      <trkpt lat="45.20446" lon="-0.80869">
        <ele>24</ele>
        <time>2012-08-03T08:29:21Z</time>
      </trkpt>
      <trkpt lat="45.20454" lon="-0.80866">
        <ele>24</ele>
        <time>2012-08-03T08:29:23Z</time>
      </trkpt>
      <trkpt lat="45.20459" lon="-0.80864">
        <ele>24</ele>
        <time>2012-08-03T08:29:25Z</time>
      </trkpt>
      <trkpt lat="45.20465" lon="-0.80862">
        <ele>24</ele>
        <time>2012-08-03T08:29:27Z</time>
      </trkpt>
      <trkpt lat="45.2047" lon="-0.8086">
        <ele>23</ele>
        <time>2012-08-03T08:29:29Z</time>
      </trkpt>
      <trkpt lat="45.20476" lon="-0.80857">
        <ele>23</ele>
        <time>2012-08-03T08:29:31Z</time>
      </trkpt>
      <trkpt lat="45.20481" lon="-0.80856">
        <ele>23</ele>
        <time>2012-08-03T08:29:33Z</time>
      </trkpt>
      <trkpt lat="45.20487" lon="-0.80854">
        <ele>24</ele>
        <time>2012-08-03T08:29:35Z</time>
      </trkpt>
      <trkpt lat="45.20493" lon="-0.80852">
        <ele>23</ele>
        <time>2012-08-03T08:29:37Z</time>
      </trkpt>
      <trkpt lat="45.20498" lon="-0.80849">
        <ele>24</ele>
        <time>2012-08-03T08:29:39Z</time>
      </trkpt>
      <trkpt lat="45.20504" lon="-0.80847">
        <ele>24</ele>
        <time>2012-08-03T08:29:41Z</time>
      </trkpt>
      <trkpt lat="45.20509" lon="-0.80845">
        <ele>24</ele>
        <time>2012-08-03T08:29:44Z</time>
      </trkpt>
      <trkpt lat="45.20515" lon="-0.80844">
        <ele>24</ele>
        <time>2012-08-03T08:29:46Z</time>
      </trkpt>
      <trkpt lat="45.2052" lon="-0.80841">
        <ele>24</ele>
        <time>2012-08-03T08:29:48Z</time>
      </trkpt>
      <trkpt lat="45.20526" lon="-0.80839">
        <ele>25</ele>
        <time>2012-08-03T08:29:50Z</time>
      </trkpt>
      <trkpt lat="45.20534" lon="-0.80836">
        <ele>24</ele>
        <time>2012-08-03T08:29:52Z</time>
      </trkpt>
      <trkpt lat="45.2054" lon="-0.80834">
        <ele>25</ele>
        <time>2012-08-03T08:29:54Z</time>
      </trkpt>
      <trkpt lat="45.20545" lon="-0.80832">
        <ele>24</ele>
        <time>2012-08-03T08:29:56Z</time>
      </trkpt>
      <trkpt lat="45.20551" lon="-0.8083">
        <ele>25</ele>
        <time>2012-08-03T08:29:58Z</time>
      </trkpt>
      <trkpt lat="45.20557" lon="-0.80827">
        <ele>25</ele>
        <time>2012-08-03T08:30:00Z</time>
      </trkpt>
      <trkpt lat="45.20562" lon="-0.80826">
        <ele>25</ele>
        <time>2012-08-03T08:30:02Z</time>
      </trkpt>
      <trkpt lat="45.20567" lon="-0.80824">
        <ele>24</ele>
        <time>2012-08-03T08:30:04Z</time>
      </trkpt>
      <trkpt lat="45.20572" lon="-0.80822">
        <ele>24</ele>
        <time>2012-08-03T08:30:06Z</time>
      </trkpt>
      <trkpt lat="45.20578" lon="-0.8082">
        <ele>24</ele>
        <time>2012-08-03T08:30:08Z</time>
      </trkpt>
      <trkpt lat="45.20583" lon="-0.80817">
        <ele>23</ele>
        <time>2012-08-03T08:30:11Z</time>
      </trkpt>
      <trkpt lat="45.20589" lon="-0.80815">
        <ele>24</ele>
        <time>2012-08-03T08:30:13Z</time>
      </trkpt>
      <trkpt lat="45.20595" lon="-0.80813">
        <ele>24</ele>
        <time>2012-08-03T08:30:15Z</time>
      </trkpt>
      <trkpt lat="45.20601" lon="-0.80811">
        <ele>24</ele>
        <time>2012-08-03T08:30:17Z</time>
      </trkpt>
      <trkpt lat="45.20607" lon="-0.80809">
        <ele>25</ele>
        <time>2012-08-03T08:30:19Z</time>
      </trkpt>
      <trkpt lat="45.20612" lon="-0.80807">
        <ele>25</ele>
        <time>2012-08-03T08:30:21Z</time>
      </trkpt>
      <trkpt lat="45.20617" lon="-0.80805">
        <ele>24</ele>
        <time>2012-08-03T08:30:23Z</time>
      </trkpt>
      <trkpt lat="45.20626" lon="-0.80801">
        <ele>24</ele>
        <time>2012-08-03T08:30:25Z</time>
      </trkpt>
      <trkpt lat="45.20631" lon="-0.808">
        <ele>24</ele>
        <time>2012-08-03T08:30:27Z</time>
      </trkpt>
      <trkpt lat="45.20636" lon="-0.80797">
        <ele>24</ele>
        <time>2012-08-03T08:30:29Z</time>
      </trkpt>
      <trkpt lat="45.20641" lon="-0.80796">
        <ele>24</ele>
        <time>2012-08-03T08:30:31Z</time>
      </trkpt>
      <trkpt lat="45.20647" lon="-0.80793">
        <ele>24</ele>
        <time>2012-08-03T08:30:33Z</time>
      </trkpt>
      <trkpt lat="45.20652" lon="-0.80791">
        <ele>24</ele>
        <time>2012-08-03T08:30:36Z</time>
      </trkpt>
      <trkpt lat="45.20658" lon="-0.80789">
        <ele>24</ele>
        <time>2012-08-03T08:30:38Z</time>
      </trkpt>
      <trkpt lat="45.20663" lon="-0.80787">
        <ele>23</ele>
        <time>2012-08-03T08:30:40Z</time>
      </trkpt>
      <trkpt lat="45.2067" lon="-0.80785">
        <ele>23</ele>
        <time>2012-08-03T08:30:42Z</time>
      </trkpt>
      <trkpt lat="45.20675" lon="-0.80783">
        <ele>22</ele>
        <time>2012-08-03T08:30:44Z</time>
      </trkpt>
      <trkpt lat="45.20681" lon="-0.80781">
        <ele>22</ele>
        <time>2012-08-03T08:30:46Z</time>
      </trkpt>
      <trkpt lat="45.20686" lon="-0.80779">
        <ele>22</ele>
        <time>2012-08-03T08:30:48Z</time>
      </trkpt>
      <trkpt lat="45.20694" lon="-0.80776">
        <ele>22</ele>
        <time>2012-08-03T08:30:50Z</time>
      </trkpt>
      <trkpt lat="45.207" lon="-0.80774">
        <ele>23</ele>
        <time>2012-08-03T08:30:52Z</time>
      </trkpt>
      <trkpt lat="45.20705" lon="-0.80772">
        <ele>23</ele>
        <time>2012-08-03T08:30:54Z</time>
      </trkpt>
      <trkpt lat="45.20711" lon="-0.8077">
        <ele>23</ele>
        <time>2012-08-03T08:30:56Z</time>
      </trkpt>
      <trkpt lat="45.20716" lon="-0.80769">
        <ele>23</ele>
        <time>2012-08-03T08:30:58Z</time>
      </trkpt>
      <trkpt lat="45.20721" lon="-0.80768">
        <ele>22</ele>
        <time>2012-08-03T08:31:00Z</time>
      </trkpt>
      <trkpt lat="45.20727" lon="-0.80768">
        <ele>22</ele>
        <time>2012-08-03T08:31:02Z</time>
      </trkpt>
      <trkpt lat="45.20731" lon="-0.8077">
        <ele>21</ele>
        <time>2012-08-03T08:31:05Z</time>
      </trkpt>
      <trkpt lat="45.20733" lon="-0.80777">
        <ele>21</ele>
        <time>2012-08-03T08:31:07Z</time>
      </trkpt>
      <trkpt lat="45.20736" lon="-0.8079">
        <ele>21</ele>
        <time>2012-08-03T08:31:09Z</time>
      </trkpt>
      <trkpt lat="45.20737" lon="-0.80799">
        <ele>21</ele>
        <time>2012-08-03T08:31:11Z</time>
      </trkpt>
      <trkpt lat="45.20739" lon="-0.80807">
        <ele>20</ele>
        <time>2012-08-03T08:31:13Z</time>
      </trkpt>
      <trkpt lat="45.20741" lon="-0.80816">
        <ele>20</ele>
        <time>2012-08-03T08:31:15Z</time>
      </trkpt>
      <trkpt lat="45.20742" lon="-0.80825">
        <ele>20</ele>
        <time>2012-08-03T08:31:17Z</time>
      </trkpt>
      <trkpt lat="45.20744" lon="-0.80832">
        <ele>20</ele>
        <time>2012-08-03T08:31:20Z</time>
      </trkpt>
      <trkpt lat="45.20745" lon="-0.80841">
        <ele>19</ele>
        <time>2012-08-03T08:31:22Z</time>
      </trkpt>
      <trkpt lat="45.20747" lon="-0.80849">
        <ele>19</ele>
        <time>2012-08-03T08:31:24Z</time>
      </trkpt>
      <trkpt lat="45.2075" lon="-0.80862">
        <ele>18</ele>
        <time>2012-08-03T08:31:26Z</time>
      </trkpt>
      <trkpt lat="45.20752" lon="-0.8087">
        <ele>18</ele>
        <time>2012-08-03T08:31:28Z</time>
      </trkpt>
      <trkpt lat="45.20753" lon="-0.80878">
        <ele>18</ele>
        <time>2012-08-03T08:31:30Z</time>
      </trkpt>
      <trkpt lat="45.20755" lon="-0.80886">
        <ele>17</ele>
        <time>2012-08-03T08:31:32Z</time>
      </trkpt>
      <trkpt lat="45.20757" lon="-0.80894">
        <ele>18</ele>
        <time>2012-08-03T08:31:34Z</time>
      </trkpt>
      <trkpt lat="45.20758" lon="-0.80901">
        <ele>18</ele>
        <time>2012-08-03T08:31:36Z</time>
      </trkpt>
      <trkpt lat="45.20761" lon="-0.80909">
        <ele>18</ele>
        <time>2012-08-03T08:31:39Z</time>
      </trkpt>
      <trkpt lat="45.20766" lon="-0.80911">
        <ele>18</ele>
        <time>2012-08-03T08:31:41Z</time>
      </trkpt>
      <trkpt lat="45.20771" lon="-0.80909">
        <ele>18</ele>
        <time>2012-08-03T08:31:43Z</time>
      </trkpt>
      <trkpt lat="45.20776" lon="-0.80904">
        <ele>18</ele>
        <time>2012-08-03T08:31:45Z</time>
      </trkpt>
      <trkpt lat="45.2078" lon="-0.80899">
        <ele>18</ele>
        <time>2012-08-03T08:31:47Z</time>
      </trkpt>
      <trkpt lat="45.20785" lon="-0.80894">
        <ele>18</ele>
        <time>2012-08-03T08:31:49Z</time>
      </trkpt>
      <trkpt lat="45.20789" lon="-0.80889">
        <ele>17</ele>
        <time>2012-08-03T08:31:51Z</time>
      </trkpt>
      <trkpt lat="45.20796" lon="-0.80882">
        <ele>16</ele>
        <time>2012-08-03T08:31:53Z</time>
      </trkpt>
      <trkpt lat="45.20801" lon="-0.80877">
        <ele>16</ele>
        <time>2012-08-03T08:31:55Z</time>
      </trkpt>
      <trkpt lat="45.20806" lon="-0.80871">
        <ele>15</ele>
        <time>2012-08-03T08:31:57Z</time>
      </trkpt>
      <trkpt lat="45.2081" lon="-0.80867">
        <ele>15</ele>
        <time>2012-08-03T08:31:59Z</time>
      </trkpt>
      <trkpt lat="45.20816" lon="-0.80862">
        <ele>15</ele>
        <time>2012-08-03T08:32:01Z</time>
      </trkpt>
      <trkpt lat="45.2082" lon="-0.80857">
        <ele>15</ele>
        <time>2012-08-03T08:32:04Z</time>
      </trkpt>
      <trkpt lat="45.20827" lon="-0.80848">
        <ele>15</ele>
        <time>2012-08-03T08:32:06Z</time>
      </trkpt>
      <trkpt lat="45.20832" lon="-0.80843">
        <ele>14</ele>
        <time>2012-08-03T08:32:08Z</time>
      </trkpt>
      <trkpt lat="45.20837" lon="-0.80838">
        <ele>14</ele>
        <time>2012-08-03T08:32:10Z</time>
      </trkpt>
      <trkpt lat="45.20843" lon="-0.80832">
        <ele>14</ele>
        <time>2012-08-03T08:32:12Z</time>
      </trkpt>
      <trkpt lat="45.20848" lon="-0.80827">
        <ele>14</ele>
        <time>2012-08-03T08:32:15Z</time>
      </trkpt>
      <trkpt lat="45.20854" lon="-0.80822">
        <ele>15</ele>
        <time>2012-08-03T08:32:17Z</time>
      </trkpt>
      <trkpt lat="45.2086" lon="-0.80816">
        <ele>15</ele>
        <time>2012-08-03T08:32:19Z</time>
      </trkpt>
      <trkpt lat="45.20865" lon="-0.80811">
        <ele>14</ele>
        <time>2012-08-03T08:32:21Z</time>
      </trkpt>
      <trkpt lat="45.20872" lon="-0.80803">
        <ele>14</ele>
        <time>2012-08-03T08:32:23Z</time>
      </trkpt>
      <trkpt lat="45.20877" lon="-0.80797">
        <ele>14</ele>
        <time>2012-08-03T08:32:25Z</time>
      </trkpt>
      <trkpt lat="45.20882" lon="-0.80792">
        <ele>13</ele>
        <time>2012-08-03T08:32:27Z</time>
      </trkpt>
      <trkpt lat="45.20888" lon="-0.80787">
        <ele>13</ele>
        <time>2012-08-03T08:32:29Z</time>
      </trkpt>
      <trkpt lat="45.20893" lon="-0.80782">
        <ele>12</ele>
        <time>2012-08-03T08:32:32Z</time>
      </trkpt>
      <trkpt lat="45.20898" lon="-0.80776">
        <ele>12</ele>
        <time>2012-08-03T08:32:34Z</time>
      </trkpt>
      <trkpt lat="45.20903" lon="-0.8077">
        <ele>12</ele>
        <time>2012-08-03T08:32:36Z</time>
      </trkpt>
      <trkpt lat="45.20909" lon="-0.80765">
        <ele>11</ele>
        <time>2012-08-03T08:32:38Z</time>
      </trkpt>
      <trkpt lat="45.20917" lon="-0.80757">
        <ele>11</ele>
        <time>2012-08-03T08:32:40Z</time>
      </trkpt>
      <trkpt lat="45.20922" lon="-0.80751">
        <ele>11</ele>
        <time>2012-08-03T08:32:42Z</time>
      </trkpt>
      <trkpt lat="45.20927" lon="-0.80745">
        <ele>11</ele>
        <time>2012-08-03T08:32:44Z</time>
      </trkpt>
      <trkpt lat="45.20932" lon="-0.80739">
        <ele>11</ele>
        <time>2012-08-03T08:32:46Z</time>
      </trkpt>
      <trkpt lat="45.20937" lon="-0.80733">
        <ele>10</ele>
        <time>2012-08-03T08:32:48Z</time>
      </trkpt>
      <trkpt lat="45.20942" lon="-0.80728">
        <ele>10</ele>
        <time>2012-08-03T08:32:50Z</time>
      </trkpt>
      <trkpt lat="45.20947" lon="-0.80723">
        <ele>9</ele>
        <time>2012-08-03T08:32:52Z</time>
      </trkpt>
      <trkpt lat="45.20952" lon="-0.80717">
        <ele>9</ele>
        <time>2012-08-03T08:32:54Z</time>
      </trkpt>
      <trkpt lat="45.20957" lon="-0.80712">
        <ele>9</ele>
        <time>2012-08-03T08:32:57Z</time>
      </trkpt>
      <trkpt lat="45.20962" lon="-0.80707">
        <ele>8</ele>
        <time>2012-08-03T08:32:59Z</time>
      </trkpt>
      <trkpt lat="45.20966" lon="-0.807">
        <ele>8</ele>
        <time>2012-08-03T08:33:01Z</time>
      </trkpt>
      <trkpt lat="45.20966" lon="-0.80692">
        <ele>8</ele>
        <time>2012-08-03T08:33:03Z</time>
      </trkpt>
      <trkpt lat="45.20969" lon="-0.8068">
        <ele>8</ele>
        <time>2012-08-03T08:33:05Z</time>
      </trkpt>
      <trkpt lat="45.20972" lon="-0.80672">
        <ele>9</ele>
        <time>2012-08-03T08:33:07Z</time>
      </trkpt>
      <trkpt lat="45.20975" lon="-0.80665">
        <ele>9</ele>
        <time>2012-08-03T08:33:09Z</time>
      </trkpt>
      <trkpt lat="45.20977" lon="-0.80657">
        <ele>9</ele>
        <time>2012-08-03T08:33:11Z</time>
      </trkpt>
      <trkpt lat="45.20978" lon="-0.80649">
        <ele>9</ele>
        <time>2012-08-03T08:33:13Z</time>
      </trkpt>
      <trkpt lat="45.20979" lon="-0.80641">
        <ele>9</ele>
        <time>2012-08-03T08:33:15Z</time>
      </trkpt>
      <trkpt lat="45.20978" lon="-0.80633">
        <ele>10</ele>
        <time>2012-08-03T08:33:18Z</time>
      </trkpt>
      <trkpt lat="45.20977" lon="-0.80625">
        <ele>10</ele>
        <time>2012-08-03T08:33:20Z</time>
      </trkpt>
      <trkpt lat="45.20975" lon="-0.80612">
        <ele>10</ele>
        <time>2012-08-03T08:33:22Z</time>
      </trkpt>
      <trkpt lat="45.20974" lon="-0.80603">
        <ele>10</ele>
        <time>2012-08-03T08:33:24Z</time>
      </trkpt>
      <trkpt lat="45.20973" lon="-0.80595">
        <ele>10</ele>
        <time>2012-08-03T08:33:26Z</time>
      </trkpt>
      <trkpt lat="45.20971" lon="-0.80587">
        <ele>10</ele>
        <time>2012-08-03T08:33:28Z</time>
      </trkpt>
      <trkpt lat="45.20969" lon="-0.80579">
        <ele>9</ele>
        <time>2012-08-03T08:33:30Z</time>
      </trkpt>
      <trkpt lat="45.20967" lon="-0.80571">
        <ele>10</ele>
        <time>2012-08-03T08:33:32Z</time>
      </trkpt>
      <trkpt lat="45.20964" lon="-0.80564">
        <ele>10</ele>
        <time>2012-08-03T08:33:34Z</time>
      </trkpt>
      <trkpt lat="45.20962" lon="-0.80556">
        <ele>11</ele>
        <time>2012-08-03T08:33:36Z</time>
      </trkpt>
      <trkpt lat="45.20959" lon="-0.80549">
        <ele>11</ele>
        <time>2012-08-03T08:33:38Z</time>
      </trkpt>
      <trkpt lat="45.20956" lon="-0.80542">
        <ele>10</ele>
        <time>2012-08-03T08:33:40Z</time>
      </trkpt>
      <trkpt lat="45.20954" lon="-0.80535">
        <ele>10</ele>
        <time>2012-08-03T08:33:43Z</time>
      </trkpt>
      <trkpt lat="45.20953" lon="-0.80528">
        <ele>9</ele>
        <time>2012-08-03T08:33:45Z</time>
      </trkpt>
      <trkpt lat="45.20951" lon="-0.80517">
        <ele>9</ele>
        <time>2012-08-03T08:33:47Z</time>
      </trkpt>
      <trkpt lat="45.2095" lon="-0.8051">
        <ele>9</ele>
        <time>2012-08-03T08:33:49Z</time>
      </trkpt>
      <trkpt lat="45.20948" lon="-0.80502">
        <ele>9</ele>
        <time>2012-08-03T08:33:51Z</time>
      </trkpt>
      <trkpt lat="45.20947" lon="-0.80494">
        <ele>10</ele>
        <time>2012-08-03T08:33:53Z</time>
      </trkpt>
      <trkpt lat="45.20947" lon="-0.80486">
        <ele>10</ele>
        <time>2012-08-03T08:33:55Z</time>
      </trkpt>
      <trkpt lat="45.20946" lon="-0.80478">
        <ele>10</ele>
        <time>2012-08-03T08:33:57Z</time>
      </trkpt>
      <trkpt lat="45.20946" lon="-0.8047">
        <ele>11</ele>
        <time>2012-08-03T08:34:00Z</time>
      </trkpt>
      <trkpt lat="45.20945" lon="-0.80462">
        <ele>11</ele>
        <time>2012-08-03T08:34:02Z</time>
      </trkpt>
      <trkpt lat="45.20943" lon="-0.80451">
        <ele>11</ele>
        <time>2012-08-03T08:34:04Z</time>
      </trkpt>
      <trkpt lat="45.20942" lon="-0.80444">
        <ele>12</ele>
        <time>2012-08-03T08:34:06Z</time>
      </trkpt>
      <trkpt lat="45.2094" lon="-0.80436">
        <ele>11</ele>
        <time>2012-08-03T08:34:08Z</time>
      </trkpt>
      <trkpt lat="45.20938" lon="-0.80429">
        <ele>11</ele>
        <time>2012-08-03T08:34:10Z</time>
      </trkpt>
      <trkpt lat="45.20936" lon="-0.80423">
        <ele>10</ele>
        <time>2012-08-03T08:34:13Z</time>
      </trkpt>
      <trkpt lat="45.20935" lon="-0.80416">
        <ele>9</ele>
        <time>2012-08-03T08:34:15Z</time>
      </trkpt>
      <trkpt lat="45.20934" lon="-0.80405">
        <ele>9</ele>
        <time>2012-08-03T08:34:17Z</time>
      </trkpt>
      <trkpt lat="45.20932" lon="-0.80398">
        <ele>9</ele>
        <time>2012-08-03T08:34:19Z</time>
      </trkpt>
      <trkpt lat="45.20932" lon="-0.80391">
        <ele>9</ele>
        <time>2012-08-03T08:34:21Z</time>
      </trkpt>
      <trkpt lat="45.20932" lon="-0.80384">
        <ele>8</ele>
        <time>2012-08-03T08:34:23Z</time>
      </trkpt>
      <trkpt lat="45.20932" lon="-0.80376">
        <ele>9</ele>
        <time>2012-08-03T08:34:25Z</time>
      </trkpt>
      <trkpt lat="45.20933" lon="-0.80368">
        <ele>9</ele>
        <time>2012-08-03T08:34:27Z</time>
      </trkpt>
      <trkpt lat="45.20933" lon="-0.8036">
        <ele>9</ele>
        <time>2012-08-03T08:34:29Z</time>
      </trkpt>
      <trkpt lat="45.20934" lon="-0.80352">
        <ele>9</ele>
        <time>2012-08-03T08:34:31Z</time>
      </trkpt>
      <trkpt lat="45.20935" lon="-0.80344">
        <ele>9</ele>
        <time>2012-08-03T08:34:33Z</time>
      </trkpt>
      <trkpt lat="45.20937" lon="-0.80336">
        <ele>9</ele>
        <time>2012-08-03T08:34:35Z</time>
      </trkpt>
      <trkpt lat="45.20939" lon="-0.80329">
        <ele>9</ele>
        <time>2012-08-03T08:34:38Z</time>
      </trkpt>
      <trkpt lat="45.20942" lon="-0.80322">
        <ele>9</ele>
        <time>2012-08-03T08:34:40Z</time>
      </trkpt>
      <trkpt lat="45.20945" lon="-0.80312">
        <ele>9</ele>
        <time>2012-08-03T08:34:42Z</time>
      </trkpt>
      <trkpt lat="45.20947" lon="-0.80303">
        <ele>8</ele>
        <time>2012-08-03T08:34:44Z</time>
      </trkpt>
      <trkpt lat="45.20948" lon="-0.80295">
        <ele>8</ele>
        <time>2012-08-03T08:34:46Z</time>
      </trkpt>
      <trkpt lat="45.20948" lon="-0.80288">
        <ele>8</ele>
        <time>2012-08-03T08:34:48Z</time>
      </trkpt>
      <trkpt lat="45.20948" lon="-0.80281">
        <ele>8</ele>
        <time>2012-08-03T08:34:51Z</time>
      </trkpt>
      <trkpt lat="45.20949" lon="-0.80271">
        <ele>8</ele>
        <time>2012-08-03T08:34:53Z</time>
      </trkpt>
      <trkpt lat="45.2095" lon="-0.80264">
        <ele>8</ele>
        <time>2012-08-03T08:34:55Z</time>
      </trkpt>
      <trkpt lat="45.20951" lon="-0.80256">
        <ele>8</ele>
        <time>2012-08-03T08:34:57Z</time>
      </trkpt>
      <trkpt lat="45.20952" lon="-0.80248">
        <ele>9</ele>
        <time>2012-08-03T08:34:59Z</time>
      </trkpt>
      <trkpt lat="45.20953" lon="-0.8024">
        <ele>9</ele>
        <time>2012-08-03T08:35:01Z</time>
      </trkpt>
      <trkpt lat="45.20953" lon="-0.80232">
        <ele>10</ele>
        <time>2012-08-03T08:35:03Z</time>
      </trkpt>
      <trkpt lat="45.20954" lon="-0.80223">
        <ele>10</ele>
        <time>2012-08-03T08:35:05Z</time>
      </trkpt>
      <trkpt lat="45.20954" lon="-0.80216">
        <ele>11</ele>
        <time>2012-08-03T08:35:07Z</time>
      </trkpt>
      <trkpt lat="45.20955" lon="-0.80207">
        <ele>12</ele>
        <time>2012-08-03T08:35:09Z</time>
      </trkpt>
      <trkpt lat="45.20955" lon="-0.80199">
        <ele>12</ele>
        <time>2012-08-03T08:35:11Z</time>
      </trkpt>
      <trkpt lat="45.20955" lon="-0.80192">
        <ele>12</ele>
        <time>2012-08-03T08:35:13Z</time>
      </trkpt>
      <trkpt lat="45.20954" lon="-0.80184">
        <ele>12</ele>
        <time>2012-08-03T08:35:16Z</time>
      </trkpt>
      <trkpt lat="45.20954" lon="-0.80176">
        <ele>12</ele>
        <time>2012-08-03T08:35:18Z</time>
      </trkpt>
      <trkpt lat="45.20954" lon="-0.80165">
        <ele>13</ele>
        <time>2012-08-03T08:35:20Z</time>
      </trkpt>
      <trkpt lat="45.20955" lon="-0.80158">
        <ele>12</ele>
        <time>2012-08-03T08:35:22Z</time>
      </trkpt>
      <trkpt lat="45.20959" lon="-0.80151">
        <ele>12</ele>
        <time>2012-08-03T08:35:24Z</time>
      </trkpt>
      <trkpt lat="45.20961" lon="-0.80143">
        <ele>12</ele>
        <time>2012-08-03T08:35:26Z</time>
      </trkpt>
      <trkpt lat="45.20963" lon="-0.80136">
        <ele>12</ele>
        <time>2012-08-03T08:35:29Z</time>
      </trkpt>
      <trkpt lat="45.20964" lon="-0.80128">
        <ele>11</ele>
        <time>2012-08-03T08:35:31Z</time>
      </trkpt>
      <trkpt lat="45.20966" lon="-0.8012">
        <ele>11</ele>
        <time>2012-08-03T08:35:33Z</time>
      </trkpt>
      <trkpt lat="45.20966" lon="-0.80112">
        <ele>11</ele>
        <time>2012-08-03T08:35:35Z</time>
      </trkpt>
      <trkpt lat="45.20965" lon="-0.80105">
        <ele>11</ele>
        <time>2012-08-03T08:35:37Z</time>
      </trkpt>
      <trkpt lat="45.20965" lon="-0.80098">
        <ele>12</ele>
        <time>2012-08-03T08:35:39Z</time>
      </trkpt>
      <trkpt lat="45.2096" lon="-0.80093">
        <ele>13</ele>
        <time>2012-08-03T08:35:41Z</time>
      </trkpt>
      <trkpt lat="45.20956" lon="-0.80093">
        <ele>13</ele>
        <time>2012-08-03T08:35:43Z</time>
      </trkpt>
      <trkpt lat="45.20951" lon="-0.80093">
        <ele>13</ele>
        <time>2012-08-03T08:35:45Z</time>
      </trkpt>
      <trkpt lat="45.20947" lon="-0.80092">
        <ele>14</ele>
        <time>2012-08-03T08:35:47Z</time>
      </trkpt>
      <trkpt lat="45.20943" lon="-0.8009">
        <ele>14</ele>
        <time>2012-08-03T08:35:49Z</time>
      </trkpt>
      <trkpt lat="45.20942" lon="-0.80086">
        <ele>14</ele>
        <time>2012-08-03T08:35:51Z</time>
      </trkpt>
      <trkpt lat="45.20942" lon="-0.80082">
        <ele>14</ele>
        <time>2012-08-03T08:35:53Z</time>
      </trkpt>
      <trkpt lat="45.20943" lon="-0.80075">
        <ele>13</ele>
        <time>2012-08-03T08:35:55Z</time>
      </trkpt>
      <trkpt lat="45.20945" lon="-0.80068">
        <ele>13</ele>
        <time>2012-08-03T08:35:57Z</time>
      </trkpt>
      <trkpt lat="45.20948" lon="-0.80062">
        <ele>13</ele>
        <time>2012-08-03T08:36:00Z</time>
      </trkpt>
      <trkpt lat="45.2095" lon="-0.80057">
        <ele>13</ele>
        <time>2012-08-03T08:36:02Z</time>
      </trkpt>
      <trkpt lat="45.20951" lon="-0.80052">
        <ele>14</ele>
        <time>2012-08-03T08:36:04Z</time>
      </trkpt>
      <trkpt lat="45.20951" lon="-0.80045">
        <ele>15</ele>
        <time>2012-08-03T08:36:06Z</time>
      </trkpt>
      <trkpt lat="45.20952" lon="-0.80041">
        <ele>17</ele>
        <time>2012-08-03T08:36:08Z</time>
      </trkpt>
      <trkpt lat="45.20951" lon="-0.80036">
        <ele>18</ele>
        <time>2012-08-03T08:36:10Z</time>
      </trkpt>
      <trkpt lat="45.20951" lon="-0.80027">
        <ele>19</ele>
        <time>2012-08-03T08:36:12Z</time>
      </trkpt>
      <trkpt lat="45.20951" lon="-0.8002">
        <ele>20</ele>
        <time>2012-08-03T08:36:14Z</time>
      </trkpt>
      <trkpt lat="45.2095" lon="-0.80013">
        <ele>19</ele>
        <time>2012-08-03T08:36:16Z</time>
      </trkpt>
      <trkpt lat="45.2095" lon="-0.80006">
        <ele>20</ele>
        <time>2012-08-03T08:36:18Z</time>
      </trkpt>
      <trkpt lat="45.20952" lon="-0.8">
        <ele>20</ele>
        <time>2012-08-03T08:36:20Z</time>
      </trkpt>
      <trkpt lat="45.20954" lon="-0.79993">
        <ele>21</ele>
        <time>2012-08-03T08:36:22Z</time>
      </trkpt>
      <trkpt lat="45.20955" lon="-0.79986">
        <ele>21</ele>
        <time>2012-08-03T08:36:24Z</time>
      </trkpt>
      <trkpt lat="45.20955" lon="-0.79979">
        <ele>21</ele>
        <time>2012-08-03T08:36:26Z</time>
      </trkpt>
      <trkpt lat="45.20955" lon="-0.79976">
        <ele>21</ele>
        <time>2012-08-03T08:36:28Z</time>
      </trkpt>
      <trkpt lat="45.20955" lon="-0.79976">
        <ele>21</ele>
        <time>2012-08-03T08:36:30Z</time>
      </trkpt>
      <trkpt lat="45.20955" lon="-0.79976">
        <ele>21</ele>
        <time>2012-08-03T08:36:33Z</time>
      </trkpt>
      <trkpt lat="45.20957" lon="-0.79971">
        <ele>21</ele>
        <time>2012-08-03T08:36:35Z</time>
      </trkpt>
      <trkpt lat="45.2096" lon="-0.79966">
        <ele>20</ele>
        <time>2012-08-03T08:36:37Z</time>
      </trkpt>
      <trkpt lat="45.20967" lon="-0.79956">
        <ele>20</ele>
        <time>2012-08-03T08:36:39Z</time>
      </trkpt>
      <trkpt lat="45.20967" lon="-0.79948">
        <ele>20</ele>
        <time>2012-08-03T08:36:41Z</time>
      </trkpt>
      <trkpt lat="45.20965" lon="-0.79941">
        <ele>21</ele>
        <time>2012-08-03T08:36:43Z</time>
      </trkpt>
      <trkpt lat="45.20963" lon="-0.79934">
        <ele>22</ele>
        <time>2012-08-03T08:36:45Z</time>
      </trkpt>
      <trkpt lat="45.20959" lon="-0.79927">
        <ele>22</ele>
        <time>2012-08-03T08:36:47Z</time>
      </trkpt>
      <trkpt lat="45.20956" lon="-0.79922">
        <ele>22</ele>
        <time>2012-08-03T08:36:49Z</time>
      </trkpt>
      <trkpt lat="45.20952" lon="-0.79917">
        <ele>21</ele>
        <time>2012-08-03T08:36:51Z</time>
      </trkpt>
      <trkpt lat="45.2095" lon="-0.7991">
        <ele>21</ele>
        <time>2012-08-03T08:36:54Z</time>
      </trkpt>
      <trkpt lat="45.20948" lon="-0.79904">
        <ele>21</ele>
        <time>2012-08-03T08:36:56Z</time>
      </trkpt>
      <trkpt lat="45.20945" lon="-0.79899">
        <ele>22</ele>
        <time>2012-08-03T08:36:58Z</time>
      </trkpt>
      <trkpt lat="45.20941" lon="-0.79893">
        <ele>22</ele>
        <time>2012-08-03T08:37:00Z</time>
      </trkpt>
      <trkpt lat="45.20936" lon="-0.79885">
        <ele>22</ele>
        <time>2012-08-03T08:37:02Z</time>
      </trkpt>
      <trkpt lat="45.20934" lon="-0.79878">
        <ele>22</ele>
        <time>2012-08-03T08:37:04Z</time>
      </trkpt>
      <trkpt lat="45.20932" lon="-0.79872">
        <ele>21</ele>
        <time>2012-08-03T08:37:06Z</time>
      </trkpt>
      <trkpt lat="45.20933" lon="-0.79864">
        <ele>20</ele>
        <time>2012-08-03T08:37:08Z</time>
      </trkpt>
      <trkpt lat="45.20934" lon="-0.79858">
        <ele>20</ele>
        <time>2012-08-03T08:37:10Z</time>
      </trkpt>
      <trkpt lat="45.20938" lon="-0.79856">
        <ele>19</ele>
        <time>2012-08-03T08:37:12Z</time>
      </trkpt>
      <trkpt lat="45.20944" lon="-0.79856">
        <ele>18</ele>
        <time>2012-08-03T08:37:14Z</time>
      </trkpt>
      <trkpt lat="45.20949" lon="-0.79855">
        <ele>17</ele>
        <time>2012-08-03T08:37:17Z</time>
      </trkpt>
      <trkpt lat="45.20955" lon="-0.79854">
        <ele>16</ele>
        <time>2012-08-03T08:37:19Z</time>
      </trkpt>
      <trkpt lat="45.2096" lon="-0.79851">
        <ele>16</ele>
        <time>2012-08-03T08:37:21Z</time>
      </trkpt>
      <trkpt lat="45.20969" lon="-0.79847">
        <ele>15</ele>
        <time>2012-08-03T08:37:23Z</time>
      </trkpt>
      <trkpt lat="45.20974" lon="-0.79844">
        <ele>14</ele>
        <time>2012-08-03T08:37:25Z</time>
      </trkpt>
      <trkpt lat="45.20979" lon="-0.7984">
        <ele>13</ele>
        <time>2012-08-03T08:37:27Z</time>
      </trkpt>
      <trkpt lat="45.20984" lon="-0.79836">
        <ele>12</ele>
        <time>2012-08-03T08:37:29Z</time>
      </trkpt>
      <trkpt lat="45.20988" lon="-0.79832">
        <ele>11</ele>
        <time>2012-08-03T08:37:31Z</time>
      </trkpt>
      <trkpt lat="45.2099" lon="-0.79827">
        <ele>11</ele>
        <time>2012-08-03T08:37:34Z</time>
      </trkpt>
      <trkpt lat="45.20992" lon="-0.7982">
        <ele>11</ele>
        <time>2012-08-03T08:37:36Z</time>
      </trkpt>
      <trkpt lat="45.20992" lon="-0.79812">
        <ele>11</ele>
        <time>2012-08-03T08:37:38Z</time>
      </trkpt>
      <trkpt lat="45.20992" lon="-0.79801">
        <ele>10</ele>
        <time>2012-08-03T08:37:40Z</time>
      </trkpt>
      <trkpt lat="45.20992" lon="-0.79794">
        <ele>9</ele>
        <time>2012-08-03T08:37:42Z</time>
      </trkpt>
      <trkpt lat="45.20995" lon="-0.79788">
        <ele>9</ele>
        <time>2012-08-03T08:37:44Z</time>
      </trkpt>
      <trkpt lat="45.20998" lon="-0.79781">
        <ele>8</ele>
        <time>2012-08-03T08:37:46Z</time>
      </trkpt>
      <trkpt lat="45.21001" lon="-0.79772">
        <ele>8</ele>
        <time>2012-08-03T08:37:48Z</time>
      </trkpt>
      <trkpt lat="45.21002" lon="-0.79765">
        <ele>8</ele>
        <time>2012-08-03T08:37:50Z</time>
      </trkpt>
      <trkpt lat="45.21002" lon="-0.79757">
        <ele>8</ele>
        <time>2012-08-03T08:37:52Z</time>
      </trkpt>
      <trkpt lat="45.21001" lon="-0.7975">
        <ele>8</ele>
        <time>2012-08-03T08:37:54Z</time>
      </trkpt>
      <trkpt lat="45.21" lon="-0.79744">
        <ele>8</ele>
        <time>2012-08-03T08:37:56Z</time>
      </trkpt>
      <trkpt lat="45.20998" lon="-0.79738">
        <ele>8</ele>
        <time>2012-08-03T08:37:58Z</time>
      </trkpt>
      <trkpt lat="45.20996" lon="-0.79731">
        <ele>8</ele>
        <time>2012-08-03T08:38:00Z</time>
      </trkpt>
      <trkpt lat="45.20996" lon="-0.79724">
        <ele>8</ele>
        <time>2012-08-03T08:38:03Z</time>
      </trkpt>
      <trkpt lat="45.20998" lon="-0.79718">
        <ele>8</ele>
        <time>2012-08-03T08:38:05Z</time>
      </trkpt>
      <trkpt lat="45.21001" lon="-0.79712">
        <ele>7</ele>
        <time>2012-08-03T08:38:07Z</time>
      </trkpt>
      <trkpt lat="45.21006" lon="-0.79702">
        <ele>7</ele>
        <time>2012-08-03T08:38:09Z</time>
      </trkpt>
      <trkpt lat="45.21008" lon="-0.79695">
        <ele>6</ele>
        <time>2012-08-03T08:38:11Z</time>
      </trkpt>
      <trkpt lat="45.2101" lon="-0.79689">
        <ele>6</ele>
        <time>2012-08-03T08:38:13Z</time>
      </trkpt>
      <trkpt lat="45.21013" lon="-0.79683">
        <ele>6</ele>
        <time>2012-08-03T08:38:15Z</time>
      </trkpt>
      <trkpt lat="45.21017" lon="-0.79677">
        <ele>6</ele>
        <time>2012-08-03T08:38:17Z</time>
      </trkpt>
      <trkpt lat="45.21019" lon="-0.79671">
        <ele>6</ele>
        <time>2012-08-03T08:38:19Z</time>
      </trkpt>
      <trkpt lat="45.21021" lon="-0.79664">
        <ele>7</ele>
        <time>2012-08-03T08:38:21Z</time>
      </trkpt>
      <trkpt lat="45.21022" lon="-0.79657">
        <ele>7</ele>
        <time>2012-08-03T08:38:23Z</time>
      </trkpt>
      <trkpt lat="45.21024" lon="-0.79649">
        <ele>7</ele>
        <time>2012-08-03T08:38:25Z</time>
      </trkpt>
      <trkpt lat="45.21024" lon="-0.79641">
        <ele>7</ele>
        <time>2012-08-03T08:38:27Z</time>
      </trkpt>
      <trkpt lat="45.21023" lon="-0.79633">
        <ele>7</ele>
        <time>2012-08-03T08:38:29Z</time>
      </trkpt>
      <trkpt lat="45.21023" lon="-0.79624">
        <ele>7</ele>
        <time>2012-08-03T08:38:31Z</time>
      </trkpt>
      <trkpt lat="45.21023" lon="-0.79615">
        <ele>7</ele>
        <time>2012-08-03T08:38:34Z</time>
      </trkpt>
      <trkpt lat="45.21024" lon="-0.79608">
        <ele>7</ele>
        <time>2012-08-03T08:38:36Z</time>
      </trkpt>
      <trkpt lat="45.21024" lon="-0.79598">
        <ele>7</ele>
        <time>2012-08-03T08:38:38Z</time>
      </trkpt>
      <trkpt lat="45.21028" lon="-0.79593">
        <ele>7</ele>
        <time>2012-08-03T08:38:40Z</time>
      </trkpt>
      <trkpt lat="45.21032" lon="-0.79592">
        <ele>7</ele>
        <time>2012-08-03T08:38:42Z</time>
      </trkpt>
      <trkpt lat="45.21037" lon="-0.7959">
        <ele>7</ele>
        <time>2012-08-03T08:38:44Z</time>
      </trkpt>
      <trkpt lat="45.21041" lon="-0.79589">
        <ele>7</ele>
        <time>2012-08-03T08:38:46Z</time>
      </trkpt>
      <trkpt lat="45.21046" lon="-0.79588">
        <ele>7</ele>
        <time>2012-08-03T08:38:48Z</time>
      </trkpt>
      <trkpt lat="45.21048" lon="-0.79589">
        <ele>7</ele>
        <time>2012-08-03T08:38:50Z</time>
      </trkpt>
      <trkpt lat="45.21049" lon="-0.79587">
        <ele>7</ele>
        <time>2012-08-03T08:38:52Z</time>
      </trkpt>
      <trkpt lat="45.21049" lon="-0.79586">
        <ele>6</ele>
        <time>2012-08-03T08:38:54Z</time>
      </trkpt>
      <trkpt lat="45.21049" lon="-0.79586">
        <ele>6</ele>
        <time>2012-08-03T08:38:57Z</time>
      </trkpt>
      <trkpt lat="45.21049" lon="-0.79586">
        <ele>6</ele>
        <time>2012-08-03T08:38:59Z</time>
      </trkpt>
      <trkpt lat="45.21049" lon="-0.79585">
        <ele>6</ele>
        <time>2012-08-03T08:39:01Z</time>
      </trkpt>
      <trkpt lat="45.21048" lon="-0.79586">
        <ele>6</ele>
        <time>2012-08-03T08:39:03Z</time>
      </trkpt>
      <trkpt lat="45.21048" lon="-0.79587">
        <ele>6</ele>
        <time>2012-08-03T08:39:05Z</time>
      </trkpt>
      <trkpt lat="45.21047" lon="-0.79587">
        <ele>7</ele>
        <time>2012-08-03T08:39:07Z</time>
      </trkpt>
      <trkpt lat="45.21047" lon="-0.79587">
        <ele>7</ele>
        <time>2012-08-03T08:39:09Z</time>
      </trkpt>
      <trkpt lat="45.21046" lon="-0.79587">
        <ele>7</ele>
        <time>2012-08-03T08:39:11Z</time>
      </trkpt>
      <trkpt lat="45.21046" lon="-0.79587">
        <ele>7</ele>
        <time>2012-08-03T08:39:13Z</time>
      </trkpt>
      <trkpt lat="45.21046" lon="-0.79587">
        <ele>7</ele>
        <time>2012-08-03T08:39:15Z</time>
      </trkpt>
      <trkpt lat="45.21046" lon="-0.79587">
        <ele>7</ele>
        <time>2012-08-03T08:39:18Z</time>
      </trkpt>
      <trkpt lat="45.21046" lon="-0.79586">
        <ele>7</ele>
        <time>2012-08-03T08:39:20Z</time>
      </trkpt>
      <trkpt lat="45.21046" lon="-0.79586">
        <ele>7</ele>
        <time>2012-08-03T08:39:22Z</time>
      </trkpt>
      <trkpt lat="45.21046" lon="-0.79585">
        <ele>7</ele>
        <time>2012-08-03T08:39:24Z</time>
      </trkpt>
      <trkpt lat="45.21046" lon="-0.79586">
        <ele>6</ele>
        <time>2012-08-03T08:39:26Z</time>
      </trkpt>
      <trkpt lat="45.21046" lon="-0.79585">
        <ele>6</ele>
        <time>2012-08-03T08:39:28Z</time>
      </trkpt>
      <trkpt lat="45.21047" lon="-0.79585">
        <ele>6</ele>
        <time>2012-08-03T08:39:30Z</time>
      </trkpt>
      <trkpt lat="45.21048" lon="-0.79584">
        <ele>6</ele>
        <time>2012-08-03T08:39:32Z</time>
      </trkpt>
      <trkpt lat="45.21049" lon="-0.79583">
        <ele>6</ele>
        <time>2012-08-03T08:39:34Z</time>
      </trkpt>
      <trkpt lat="45.21049" lon="-0.79583">
        <ele>6</ele>
        <time>2012-08-03T08:39:36Z</time>
      </trkpt>
      <trkpt lat="45.2105" lon="-0.79583">
        <ele>6</ele>
        <time>2012-08-03T08:39:38Z</time>
      </trkpt>
      <trkpt lat="45.2105" lon="-0.79583">
        <ele>7</ele>
        <time>2012-08-03T08:39:40Z</time>
      </trkpt>
      <trkpt lat="45.21051" lon="-0.79583">
        <ele>6</ele>
        <time>2012-08-03T08:39:43Z</time>
      </trkpt>
      <trkpt lat="45.21051" lon="-0.79582">
        <ele>6</ele>
        <time>2012-08-03T08:39:45Z</time>
      </trkpt>
      <trkpt lat="45.21051" lon="-0.7958">
        <ele>6</ele>
        <time>2012-08-03T08:39:47Z</time>
      </trkpt>
      <trkpt lat="45.21052" lon="-0.79579">
        <ele>6</ele>
        <time>2012-08-03T08:39:49Z</time>
      </trkpt>
      <trkpt lat="45.21052" lon="-0.79579">
        <ele>6</ele>
        <time>2012-08-03T08:39:51Z</time>
      </trkpt>
      <trkpt lat="45.21053" lon="-0.79579">
        <ele>6</ele>
        <time>2012-08-03T08:39:53Z</time>
      </trkpt>
      <trkpt lat="45.21053" lon="-0.79579">
        <ele>6</ele>
        <time>2012-08-03T08:39:55Z</time>
      </trkpt>
      <trkpt lat="45.21054" lon="-0.79579">
        <ele>6</ele>
        <time>2012-08-03T08:39:57Z</time>
      </trkpt>
      <trkpt lat="45.21056" lon="-0.79577">
        <ele>6</ele>
        <time>2012-08-03T08:39:59Z</time>
      </trkpt>
      <trkpt lat="45.21059" lon="-0.79571">
        <ele>7</ele>
        <time>2012-08-03T08:40:01Z</time>
      </trkpt>
      <trkpt lat="45.21064" lon="-0.79567">
        <ele>7</ele>
        <time>2012-08-03T08:40:03Z</time>
      </trkpt>
      <trkpt lat="45.2107" lon="-0.7957">
        <ele>7</ele>
        <time>2012-08-03T08:40:05Z</time>
      </trkpt>
      <trkpt lat="45.21076" lon="-0.79575">
        <ele>6</ele>
        <time>2012-08-03T08:40:07Z</time>
      </trkpt>
      <trkpt lat="45.21081" lon="-0.7958">
        <ele>6</ele>
        <time>2012-08-03T08:40:10Z</time>
      </trkpt>
      <trkpt lat="45.21085" lon="-0.79585">
        <ele>6</ele>
        <time>2012-08-03T08:40:12Z</time>
      </trkpt>
      <trkpt lat="45.21092" lon="-0.79592">
        <ele>5</ele>
        <time>2012-08-03T08:40:14Z</time>
      </trkpt>
      <trkpt lat="45.21096" lon="-0.79597">
        <ele>5</ele>
        <time>2012-08-03T08:40:16Z</time>
      </trkpt>
      <trkpt lat="45.21101" lon="-0.79602">
        <ele>5</ele>
        <time>2012-08-03T08:40:18Z</time>
      </trkpt>
      <trkpt lat="45.21107" lon="-0.79606">
        <ele>4</ele>
        <time>2012-08-03T08:40:20Z</time>
      </trkpt>
      <trkpt lat="45.21112" lon="-0.7961">
        <ele>4</ele>
        <time>2012-08-03T08:40:22Z</time>
      </trkpt>
      <trkpt lat="45.21117" lon="-0.79613">
        <ele>5</ele>
        <time>2012-08-03T08:40:25Z</time>
      </trkpt>
      <trkpt lat="45.21122" lon="-0.79617">
        <ele>5</ele>
        <time>2012-08-03T08:40:27Z</time>
      </trkpt>
      <trkpt lat="45.21127" lon="-0.79621">
        <ele>5</ele>
        <time>2012-08-03T08:40:29Z</time>
      </trkpt>
      <trkpt lat="45.21132" lon="-0.79625">
        <ele>5</ele>
        <time>2012-08-03T08:40:31Z</time>
      </trkpt>
      <trkpt lat="45.2114" lon="-0.79629">
        <ele>4</ele>
        <time>2012-08-03T08:40:33Z</time>
      </trkpt>
      <trkpt lat="45.21145" lon="-0.79632">
        <ele>4</ele>
        <time>2012-08-03T08:40:35Z</time>
      </trkpt>
      <trkpt lat="45.2115" lon="-0.79635">
        <ele>4</ele>
        <time>2012-08-03T08:40:37Z</time>
      </trkpt>
      <trkpt lat="45.21156" lon="-0.79639">
        <ele>4</ele>
        <time>2012-08-03T08:40:39Z</time>
      </trkpt>
      <trkpt lat="45.21161" lon="-0.79642">
        <ele>5</ele>
        <time>2012-08-03T08:40:41Z</time>
      </trkpt>
      <trkpt lat="45.21165" lon="-0.79646">
        <ele>5</ele>
        <time>2012-08-03T08:40:43Z</time>
      </trkpt>
      <trkpt lat="45.2117" lon="-0.7965">
        <ele>5</ele>
        <time>2012-08-03T08:40:45Z</time>
      </trkpt>
      <trkpt lat="45.21176" lon="-0.79654">
        <ele>4</ele>
        <time>2012-08-03T08:40:47Z</time>
      </trkpt>
      <trkpt lat="45.21182" lon="-0.79658">
        <ele>4</ele>
        <time>2012-08-03T08:40:49Z</time>
      </trkpt>
      <trkpt lat="45.21187" lon="-0.79663">
        <ele>4</ele>
        <time>2012-08-03T08:40:51Z</time>
      </trkpt>
      <trkpt lat="45.21193" lon="-0.79667">
        <ele>4</ele>
        <time>2012-08-03T08:40:53Z</time>
      </trkpt>
      <trkpt lat="45.21198" lon="-0.79671">
        <ele>4</ele>
        <time>2012-08-03T08:40:55Z</time>
      </trkpt>
      <trkpt lat="45.21203" lon="-0.79675">
        <ele>4</ele>
        <time>2012-08-03T08:40:58Z</time>
      </trkpt>
      <trkpt lat="45.21209" lon="-0.79678">
        <ele>4</ele>
        <time>2012-08-03T08:41:00Z</time>
      </trkpt>
      <trkpt lat="45.21215" lon="-0.79681">
        <ele>4</ele>
        <time>2012-08-03T08:41:02Z</time>
      </trkpt>
      <trkpt lat="45.2122" lon="-0.79683">
        <ele>3</ele>
        <time>2012-08-03T08:41:04Z</time>
      </trkpt>
      <trkpt lat="45.21226" lon="-0.79684">
        <ele>3</ele>
        <time>2012-08-03T08:41:06Z</time>
      </trkpt>
      <trkpt lat="45.21234" lon="-0.79684">
        <ele>3</ele>
        <time>2012-08-03T08:41:08Z</time>
      </trkpt>
      <trkpt lat="45.21239" lon="-0.79684">
        <ele>3</ele>
        <time>2012-08-03T08:41:10Z</time>
      </trkpt>
      <trkpt lat="45.21244" lon="-0.79684">
        <ele>3</ele>
        <time>2012-08-03T08:41:12Z</time>
      </trkpt>
      <trkpt lat="45.21249" lon="-0.79684">
        <ele>4</ele>
        <time>2012-08-03T08:41:14Z</time>
      </trkpt>
      <trkpt lat="45.21255" lon="-0.79684">
        <ele>4</ele>
        <time>2012-08-03T08:41:16Z</time>
      </trkpt>
      <trkpt lat="45.21261" lon="-0.79685">
        <ele>4</ele>
        <time>2012-08-03T08:41:18Z</time>
      </trkpt>
      <trkpt lat="45.21266" lon="-0.79686">
        <ele>4</ele>
        <time>2012-08-03T08:41:20Z</time>
      </trkpt>
      <trkpt lat="45.21273" lon="-0.79687">
        <ele>4</ele>
        <time>2012-08-03T08:41:23Z</time>
      </trkpt>
      <trkpt lat="45.21282" lon="-0.79687">
        <ele>4</ele>
        <time>2012-08-03T08:41:25Z</time>
      </trkpt>
      <trkpt lat="45.21288" lon="-0.79688">
        <ele>4</ele>
        <time>2012-08-03T08:41:27Z</time>
      </trkpt>
      <trkpt lat="45.21295" lon="-0.79688">
        <ele>3</ele>
        <time>2012-08-03T08:41:29Z</time>
      </trkpt>
      <trkpt lat="45.21301" lon="-0.79688">
        <ele>3</ele>
        <time>2012-08-03T08:41:31Z</time>
      </trkpt>
      <trkpt lat="45.21307" lon="-0.79687">
        <ele>3</ele>
        <time>2012-08-03T08:41:33Z</time>
      </trkpt>
      <trkpt lat="45.21313" lon="-0.79687">
        <ele>3</ele>
        <time>2012-08-03T08:41:35Z</time>
      </trkpt>
      <trkpt lat="45.2132" lon="-0.79687">
        <ele>4</ele>
        <time>2012-08-03T08:41:37Z</time>
      </trkpt>
      <trkpt lat="45.21326" lon="-0.79687">
        <ele>4</ele>
        <time>2012-08-03T08:41:40Z</time>
      </trkpt>
      <trkpt lat="45.21335" lon="-0.79687">
        <ele>4</ele>
        <time>2012-08-03T08:41:42Z</time>
      </trkpt>
      <trkpt lat="45.21341" lon="-0.79686">
        <ele>4</ele>
        <time>2012-08-03T08:41:44Z</time>
      </trkpt>
      <trkpt lat="45.21345" lon="-0.79685">
        <ele>4</ele>
        <time>2012-08-03T08:41:46Z</time>
      </trkpt>
      <trkpt lat="45.2135" lon="-0.79683">
        <ele>4</ele>
        <time>2012-08-03T08:41:48Z</time>
      </trkpt>
      <trkpt lat="45.21357" lon="-0.79683">
        <ele>4</ele>
        <time>2012-08-03T08:41:50Z</time>
      </trkpt>
      <trkpt lat="45.21363" lon="-0.79683">
        <ele>4</ele>
        <time>2012-08-03T08:41:52Z</time>
      </trkpt>
      <trkpt lat="45.21369" lon="-0.79684">
        <ele>4</ele>
        <time>2012-08-03T08:41:54Z</time>
      </trkpt>
      <trkpt lat="45.21375" lon="-0.79684">
        <ele>3</ele>
        <time>2012-08-03T08:41:56Z</time>
      </trkpt>
      <trkpt lat="45.2138" lon="-0.79684">
        <ele>3</ele>
        <time>2012-08-03T08:41:58Z</time>
      </trkpt>
      <trkpt lat="45.21386" lon="-0.79685">
        <ele>3</ele>
        <time>2012-08-03T08:42:00Z</time>
      </trkpt>
      <trkpt lat="45.21391" lon="-0.79686">
        <ele>3</ele>
        <time>2012-08-03T08:42:02Z</time>
      </trkpt>
      <trkpt lat="45.21397" lon="-0.79686">
        <ele>3</ele>
        <time>2012-08-03T08:42:04Z</time>
      </trkpt>
      <trkpt lat="45.21402" lon="-0.79687">
        <ele>3</ele>
        <time>2012-08-03T08:42:06Z</time>
      </trkpt>
      <trkpt lat="45.21408" lon="-0.79686">
        <ele>3</ele>
        <time>2012-08-03T08:42:08Z</time>
      </trkpt>
      <trkpt lat="45.21415" lon="-0.79686">
        <ele>3</ele>
        <time>2012-08-03T08:42:10Z</time>
      </trkpt>
      <trkpt lat="45.21421" lon="-0.79685">
        <ele>3</ele>
        <time>2012-08-03T08:42:12Z</time>
      </trkpt>
      <trkpt lat="45.21426" lon="-0.79683">
        <ele>3</ele>
        <time>2012-08-03T08:42:14Z</time>
      </trkpt>
      <trkpt lat="45.21432" lon="-0.79681">
        <ele>3</ele>
        <time>2012-08-03T08:42:16Z</time>
      </trkpt>
      <trkpt lat="45.21438" lon="-0.7968">
        <ele>3</ele>
        <time>2012-08-03T08:42:18Z</time>
      </trkpt>
      <trkpt lat="45.21443" lon="-0.79679">
        <ele>3</ele>
        <time>2012-08-03T08:42:20Z</time>
      </trkpt>
      <trkpt lat="45.21449" lon="-0.79677">
        <ele>2</ele>
        <time>2012-08-03T08:42:22Z</time>
      </trkpt>
      <trkpt lat="45.21454" lon="-0.79676">
        <ele>2</ele>
        <time>2012-08-03T08:42:25Z</time>
      </trkpt>
      <trkpt lat="45.2146" lon="-0.79675">
        <ele>2</ele>
        <time>2012-08-03T08:42:27Z</time>
      </trkpt>
      <trkpt lat="45.21469" lon="-0.79671">
        <ele>2</ele>
        <time>2012-08-03T08:42:29Z</time>
      </trkpt>
      <trkpt lat="45.21473" lon="-0.79668">
        <ele>2</ele>
        <time>2012-08-03T08:42:31Z</time>
      </trkpt>
      <trkpt lat="45.21478" lon="-0.79666">
        <ele>2</ele>
        <time>2012-08-03T08:42:33Z</time>
      </trkpt>
      <trkpt lat="45.21485" lon="-0.79663">
        <ele>2</ele>
        <time>2012-08-03T08:42:35Z</time>
      </trkpt>
      <trkpt lat="45.2149" lon="-0.7966">
        <ele>2</ele>
        <time>2012-08-03T08:42:38Z</time>
      </trkpt>
      <trkpt lat="45.21495" lon="-0.79658">
        <ele>2</ele>
        <time>2012-08-03T08:42:40Z</time>
      </trkpt>
      <trkpt lat="45.21503" lon="-0.79654">
        <ele>2</ele>
        <time>2012-08-03T08:42:42Z</time>
      </trkpt>
      <trkpt lat="45.2151" lon="-0.79651">
        <ele>1</ele>
        <time>2012-08-03T08:42:44Z</time>
      </trkpt>
      <trkpt lat="45.21516" lon="-0.79647">
        <ele>1</ele>
        <time>2012-08-03T08:42:46Z</time>
      </trkpt>
      <trkpt lat="45.21522" lon="-0.79645">
        <ele>2</ele>
        <time>2012-08-03T08:42:48Z</time>
      </trkpt>
      <trkpt lat="45.21528" lon="-0.79642">
        <ele>2</ele>
        <time>2012-08-03T08:42:50Z</time>
      </trkpt>
      <trkpt lat="45.21533" lon="-0.7964">
        <ele>2</ele>
        <time>2012-08-03T08:42:52Z</time>
      </trkpt>
      <trkpt lat="45.2154" lon="-0.79638">
        <ele>1</ele>
        <time>2012-08-03T08:42:54Z</time>
      </trkpt>
      <trkpt lat="45.21545" lon="-0.79635">
        <ele>1</ele>
        <time>2012-08-03T08:42:56Z</time>
      </trkpt>
      <trkpt lat="45.2155" lon="-0.79632">
        <ele>1</ele>
        <time>2012-08-03T08:42:58Z</time>
      </trkpt>
      <trkpt lat="45.21556" lon="-0.79629">
        <ele>1</ele>
        <time>2012-08-03T08:43:00Z</time>
      </trkpt>
      <trkpt lat="45.21561" lon="-0.79626">
        <ele>1</ele>
        <time>2012-08-03T08:43:02Z</time>
      </trkpt>
      <trkpt lat="45.21568" lon="-0.79624">
        <ele>1</ele>
        <time>2012-08-03T08:43:05Z</time>
      </trkpt>
      <trkpt lat="45.21574" lon="-0.7962">
        <ele>1</ele>
        <time>2012-08-03T08:43:07Z</time>
      </trkpt>
      <trkpt lat="45.2158" lon="-0.79618">
        <ele>1</ele>
        <time>2012-08-03T08:43:09Z</time>
      </trkpt>
      <trkpt lat="45.21586" lon="-0.79615">
        <ele>2</ele>
        <time>2012-08-03T08:43:11Z</time>
      </trkpt>
      <trkpt lat="45.21592" lon="-0.79611">
        <ele>2</ele>
        <time>2012-08-03T08:43:13Z</time>
      </trkpt>
      <trkpt lat="45.21598" lon="-0.79606">
        <ele>2</ele>
        <time>2012-08-03T08:43:15Z</time>
      </trkpt>
      <trkpt lat="45.21606" lon="-0.79598">
        <ele>2</ele>
        <time>2012-08-03T08:43:17Z</time>
      </trkpt>
      <trkpt lat="45.21609" lon="-0.79591">
        <ele>2</ele>
        <time>2012-08-03T08:43:19Z</time>
      </trkpt>
      <trkpt lat="45.21613" lon="-0.79585">
        <ele>2</ele>
        <time>2012-08-03T08:43:21Z</time>
      </trkpt>
      <trkpt lat="45.21617" lon="-0.7958">
        <ele>2</ele>
        <time>2012-08-03T08:43:23Z</time>
      </trkpt>
      <trkpt lat="45.2162" lon="-0.79574">
        <ele>3</ele>
        <time>2012-08-03T08:43:25Z</time>
      </trkpt>
      <trkpt lat="45.21624" lon="-0.79568">
        <ele>2</ele>
        <time>2012-08-03T08:43:27Z</time>
      </trkpt>
      <trkpt lat="45.21627" lon="-0.79561">
        <ele>2</ele>
        <time>2012-08-03T08:43:30Z</time>
      </trkpt>
      <trkpt lat="45.21631" lon="-0.79554">
        <ele>2</ele>
        <time>2012-08-03T08:43:32Z</time>
      </trkpt>
      <trkpt lat="45.21634" lon="-0.79541">
        <ele>1</ele>
        <time>2012-08-03T08:43:34Z</time>
      </trkpt>
      <trkpt lat="45.21635" lon="-0.79533">
        <ele>2</ele>
        <time>2012-08-03T08:43:36Z</time>
      </trkpt>
      <trkpt lat="45.21636" lon="-0.79524">
        <ele>2</ele>
        <time>2012-08-03T08:43:38Z</time>
      </trkpt>
      <trkpt lat="45.21637" lon="-0.79516">
        <ele>3</ele>
        <time>2012-08-03T08:43:40Z</time>
      </trkpt>
      <trkpt lat="45.21637" lon="-0.79508">
        <ele>3</ele>
        <time>2012-08-03T08:43:42Z</time>
      </trkpt>
      <trkpt lat="45.21637" lon="-0.79499">
        <ele>3</ele>
        <time>2012-08-03T08:43:44Z</time>
      </trkpt>
      <trkpt lat="45.21636" lon="-0.79492">
        <ele>3</ele>
        <time>2012-08-03T08:43:46Z</time>
      </trkpt>
      <trkpt lat="45.21635" lon="-0.79484">
        <ele>3</ele>
        <time>2012-08-03T08:43:49Z</time>
      </trkpt>
      <trkpt lat="45.21635" lon="-0.79477">
        <ele>3</ele>
        <time>2012-08-03T08:43:51Z</time>
      </trkpt>
      <trkpt lat="45.21634" lon="-0.7947">
        <ele>3</ele>
        <time>2012-08-03T08:43:53Z</time>
      </trkpt>
      <trkpt lat="45.21631" lon="-0.79458">
        <ele>3</ele>
        <time>2012-08-03T08:43:55Z</time>
      </trkpt>
      <trkpt lat="45.21629" lon="-0.79451">
        <ele>3</ele>
        <time>2012-08-03T08:43:57Z</time>
      </trkpt>
      <trkpt lat="45.21626" lon="-0.79443">
        <ele>4</ele>
        <time>2012-08-03T08:43:59Z</time>
      </trkpt>
      <trkpt lat="45.21624" lon="-0.79437">
        <ele>4</ele>
        <time>2012-08-03T08:44:01Z</time>
      </trkpt>
      <trkpt lat="45.21621" lon="-0.7943">
        <ele>5</ele>
        <time>2012-08-03T08:44:03Z</time>
      </trkpt>
      <trkpt lat="45.21619" lon="-0.79423">
        <ele>5</ele>
        <time>2012-08-03T08:44:05Z</time>
      </trkpt>
      <trkpt lat="45.21616" lon="-0.79414">
        <ele>5</ele>
        <time>2012-08-03T08:44:07Z</time>
      </trkpt>
      <trkpt lat="45.21616" lon="-0.79405">
        <ele>4</ele>
        <time>2012-08-03T08:44:09Z</time>
      </trkpt>
      <trkpt lat="45.21616" lon="-0.79396">
        <ele>3</ele>
        <time>2012-08-03T08:44:11Z</time>
      </trkpt>
      <trkpt lat="45.21618" lon="-0.79388">
        <ele>2</ele>
        <time>2012-08-03T08:44:13Z</time>
      </trkpt>
      <trkpt lat="45.2162" lon="-0.7938">
        <ele>2</ele>
        <time>2012-08-03T08:44:15Z</time>
      </trkpt>
      <trkpt lat="45.21622" lon="-0.79372">
        <ele>3</ele>
        <time>2012-08-03T08:44:17Z</time>
      </trkpt>
      <trkpt lat="45.21624" lon="-0.79364">
        <ele>3</ele>
        <time>2012-08-03T08:44:20Z</time>
      </trkpt>
      <trkpt lat="45.21627" lon="-0.79356">
        <ele>3</ele>
        <time>2012-08-03T08:44:22Z</time>
      </trkpt>
      <trkpt lat="45.2163" lon="-0.79345">
        <ele>2</ele>
        <time>2012-08-03T08:44:24Z</time>
      </trkpt>
      <trkpt lat="45.21633" lon="-0.79338">
        <ele>2</ele>
        <time>2012-08-03T08:44:26Z</time>
      </trkpt>
      <trkpt lat="45.21637" lon="-0.79332">
        <ele>2</ele>
        <time>2012-08-03T08:44:28Z</time>
      </trkpt>
      <trkpt lat="45.2164" lon="-0.79327">
        <ele>2</ele>
        <time>2012-08-03T08:44:30Z</time>
      </trkpt>
      <trkpt lat="45.21644" lon="-0.79322">
        <ele>3</ele>
        <time>2012-08-03T08:44:32Z</time>
      </trkpt>
      <trkpt lat="45.21648" lon="-0.79317">
        <ele>3</ele>
        <time>2012-08-03T08:44:34Z</time>
      </trkpt>
      <trkpt lat="45.21653" lon="-0.79315">
        <ele>3</ele>
        <time>2012-08-03T08:44:37Z</time>
      </trkpt>
      <trkpt lat="45.21658" lon="-0.79317">
        <ele>3</ele>
        <time>2012-08-03T08:44:39Z</time>
      </trkpt>
      <trkpt lat="45.21664" lon="-0.79319">
        <ele>3</ele>
        <time>2012-08-03T08:44:41Z</time>
      </trkpt>
      <trkpt lat="45.21672" lon="-0.7932">
        <ele>3</ele>
        <time>2012-08-03T08:44:43Z</time>
      </trkpt>
      <trkpt lat="45.21677" lon="-0.79321">
        <ele>3</ele>
        <time>2012-08-03T08:44:45Z</time>
      </trkpt>
      <trkpt lat="45.21683" lon="-0.79323">
        <ele>3</ele>
        <time>2012-08-03T08:44:47Z</time>
      </trkpt>
      <trkpt lat="45.21688" lon="-0.79324">
        <ele>3</ele>
        <time>2012-08-03T08:44:49Z</time>
      </trkpt>
      <trkpt lat="45.21693" lon="-0.79325">
        <ele>2</ele>
        <time>2012-08-03T08:44:51Z</time>
      </trkpt>
      <trkpt lat="45.21699" lon="-0.79325">
        <ele>2</ele>
        <time>2012-08-03T08:44:53Z</time>
      </trkpt>
      <trkpt lat="45.21705" lon="-0.79326">
        <ele>2</ele>
        <time>2012-08-03T08:44:55Z</time>
      </trkpt>
      <trkpt lat="45.21711" lon="-0.79325">
        <ele>2</ele>
        <time>2012-08-03T08:44:57Z</time>
      </trkpt>
      <trkpt lat="45.21716" lon="-0.79323">
        <ele>1</ele>
        <time>2012-08-03T08:44:59Z</time>
      </trkpt>
      <trkpt lat="45.21722" lon="-0.79321">
        <ele>2</ele>
        <time>2012-08-03T08:45:01Z</time>
      </trkpt>
      <trkpt lat="45.21727" lon="-0.79318">
        <ele>2</ele>
        <time>2012-08-03T08:45:03Z</time>
      </trkpt>
      <trkpt lat="45.21733" lon="-0.79317">
        <ele>2</ele>
        <time>2012-08-03T08:45:05Z</time>
      </trkpt>
      <trkpt lat="45.21738" lon="-0.79315">
        <ele>2</ele>
        <time>2012-08-03T08:45:07Z</time>
      </trkpt>
      <trkpt lat="45.21745" lon="-0.79314">
        <ele>2</ele>
        <time>2012-08-03T08:45:09Z</time>
      </trkpt>
      <trkpt lat="45.21751" lon="-0.79312">
        <ele>2</ele>
        <time>2012-08-03T08:45:12Z</time>
      </trkpt>
      <trkpt lat="45.21759" lon="-0.79311">
        <ele>2</ele>
        <time>2012-08-03T08:45:14Z</time>
      </trkpt>
      <trkpt lat="45.21764" lon="-0.7931">
        <ele>2</ele>
        <time>2012-08-03T08:45:16Z</time>
      </trkpt>
      <trkpt lat="45.2177" lon="-0.79308">
        <ele>2</ele>
        <time>2012-08-03T08:45:18Z</time>
      </trkpt>
      <trkpt lat="45.21775" lon="-0.79308">
        <ele>2</ele>
        <time>2012-08-03T08:45:20Z</time>
      </trkpt>
      <trkpt lat="45.21781" lon="-0.79307">
        <ele>2</ele>
        <time>2012-08-03T08:45:22Z</time>
      </trkpt>
      <trkpt lat="45.21786" lon="-0.79306">
        <ele>2</ele>
        <time>2012-08-03T08:45:24Z</time>
      </trkpt>
      <trkpt lat="45.21792" lon="-0.79306">
        <ele>2</ele>
        <time>2012-08-03T08:45:26Z</time>
      </trkpt>
      <trkpt lat="45.21798" lon="-0.79305">
        <ele>3</ele>
        <time>2012-08-03T08:45:28Z</time>
      </trkpt>
      <trkpt lat="45.21804" lon="-0.79303">
        <ele>3</ele>
        <time>2012-08-03T08:45:30Z</time>
      </trkpt>
      <trkpt lat="45.21809" lon="-0.79301">
        <ele>3</ele>
        <time>2012-08-03T08:45:32Z</time>
      </trkpt>
      <trkpt lat="45.21815" lon="-0.793">
        <ele>3</ele>
        <time>2012-08-03T08:45:34Z</time>
      </trkpt>
      <trkpt lat="45.21821" lon="-0.79298">
        <ele>2</ele>
        <time>2012-08-03T08:45:36Z</time>
      </trkpt>
      <trkpt lat="45.21826" lon="-0.79296">
        <ele>2</ele>
        <time>2012-08-03T08:45:38Z</time>
      </trkpt>
      <trkpt lat="45.2183" lon="-0.79295">
        <ele>2</ele>
        <time>2012-08-03T08:45:41Z</time>
      </trkpt>
      <trkpt lat="45.21835" lon="-0.79293">
        <ele>2</ele>
        <time>2012-08-03T08:45:43Z</time>
      </trkpt>
      <trkpt lat="45.21841" lon="-0.79292">
        <ele>1</ele>
        <time>2012-08-03T08:45:45Z</time>
      </trkpt>
      <trkpt lat="45.21849" lon="-0.7929">
        <ele>1</ele>
        <time>2012-08-03T08:45:47Z</time>
      </trkpt>
      <trkpt lat="45.21854" lon="-0.79288">
        <ele>1</ele>
        <time>2012-08-03T08:45:49Z</time>
      </trkpt>
      <trkpt lat="45.21859" lon="-0.79287">
        <ele>1</ele>
        <time>2012-08-03T08:45:51Z</time>
      </trkpt>
      <trkpt lat="45.21864" lon="-0.79286">
        <ele>1</ele>
        <time>2012-08-03T08:45:53Z</time>
      </trkpt>
      <trkpt lat="45.2187" lon="-0.79286">
        <ele>1</ele>
        <time>2012-08-03T08:45:55Z</time>
      </trkpt>
      <trkpt lat="45.21875" lon="-0.79285">
        <ele>1</ele>
        <time>2012-08-03T08:45:57Z</time>
      </trkpt>
      <trkpt lat="45.21881" lon="-0.79284">
        <ele>1</ele>
        <time>2012-08-03T08:45:59Z</time>
      </trkpt>
      <trkpt lat="45.21886" lon="-0.79284">
        <ele>2</ele>
        <time>2012-08-03T08:46:01Z</time>
      </trkpt>
      <trkpt lat="45.21893" lon="-0.79283">
        <ele>2</ele>
        <time>2012-08-03T08:46:03Z</time>
      </trkpt>
      <trkpt lat="45.21898" lon="-0.79282">
        <ele>2</ele>
        <time>2012-08-03T08:46:06Z</time>
      </trkpt>
      <trkpt lat="45.21904" lon="-0.79278">
        <ele>2</ele>
        <time>2012-08-03T08:46:08Z</time>
      </trkpt>
      <trkpt lat="45.21913" lon="-0.79274">
        <ele>1</ele>
        <time>2012-08-03T08:46:10Z</time>
      </trkpt>
      <trkpt lat="45.21916" lon="-0.79268">
        <ele>1</ele>
        <time>2012-08-03T08:46:12Z</time>
      </trkpt>
      <trkpt lat="45.21917" lon="-0.79262">
        <ele>2</ele>
        <time>2012-08-03T08:46:14Z</time>
      </trkpt>
      <trkpt lat="45.21918" lon="-0.79254">
        <ele>3</ele>
        <time>2012-08-03T08:46:16Z</time>
      </trkpt>
      <trkpt lat="45.21918" lon="-0.79246">
        <ele>3</ele>
        <time>2012-08-03T08:46:18Z</time>
      </trkpt>
      <trkpt lat="45.21919" lon="-0.79239">
        <ele>4</ele>
        <time>2012-08-03T08:46:20Z</time>
      </trkpt>
      <trkpt lat="45.2192" lon="-0.79232">
        <ele>5</ele>
        <time>2012-08-03T08:46:22Z</time>
      </trkpt>
      <trkpt lat="45.2192" lon="-0.79224">
        <ele>5</ele>
        <time>2012-08-03T08:46:25Z</time>
      </trkpt>
      <trkpt lat="45.21921" lon="-0.79217">
        <ele>6</ele>
        <time>2012-08-03T08:46:27Z</time>
      </trkpt>
      <trkpt lat="45.21921" lon="-0.79206">
        <ele>6</ele>
        <time>2012-08-03T08:46:29Z</time>
      </trkpt>
      <trkpt lat="45.21922" lon="-0.79199">
        <ele>6</ele>
        <time>2012-08-03T08:46:31Z</time>
      </trkpt>
      <trkpt lat="45.21923" lon="-0.79191">
        <ele>6</ele>
        <time>2012-08-03T08:46:33Z</time>
      </trkpt>
      <trkpt lat="45.21924" lon="-0.79184">
        <ele>6</ele>
        <time>2012-08-03T08:46:35Z</time>
      </trkpt>
      <trkpt lat="45.21927" lon="-0.79177">
        <ele>7</ele>
        <time>2012-08-03T08:46:37Z</time>
      </trkpt>
      <trkpt lat="45.21931" lon="-0.7917">
        <ele>7</ele>
        <time>2012-08-03T08:46:39Z</time>
      </trkpt>
      <trkpt lat="45.21935" lon="-0.79164">
        <ele>7</ele>
        <time>2012-08-03T08:46:42Z</time>
      </trkpt>
      <trkpt lat="45.21941" lon="-0.79155">
        <ele>7</ele>
        <time>2012-08-03T08:46:44Z</time>
      </trkpt>
      <trkpt lat="45.21944" lon="-0.79149">
        <ele>7</ele>
        <time>2012-08-03T08:46:46Z</time>
      </trkpt>
      <trkpt lat="45.21948" lon="-0.79143">
        <ele>7</ele>
        <time>2012-08-03T08:46:48Z</time>
      </trkpt>
      <trkpt lat="45.21951" lon="-0.79137">
        <ele>7</ele>
        <time>2012-08-03T08:46:50Z</time>
      </trkpt>
      <trkpt lat="45.21954" lon="-0.79131">
        <ele>8</ele>
        <time>2012-08-03T08:46:52Z</time>
      </trkpt>
      <trkpt lat="45.21958" lon="-0.79124">
        <ele>8</ele>
        <time>2012-08-03T08:46:54Z</time>
      </trkpt>
      <trkpt lat="45.21961" lon="-0.79117">
        <ele>8</ele>
        <time>2012-08-03T08:46:56Z</time>
      </trkpt>
      <trkpt lat="45.21965" lon="-0.7911">
        <ele>8</ele>
        <time>2012-08-03T08:46:58Z</time>
      </trkpt>
      <trkpt lat="45.21968" lon="-0.79102">
        <ele>7</ele>
        <time>2012-08-03T08:47:00Z</time>
      </trkpt>
      <trkpt lat="45.21971" lon="-0.79094">
        <ele>7</ele>
        <time>2012-08-03T08:47:02Z</time>
      </trkpt>
      <trkpt lat="45.21975" lon="-0.79086">
        <ele>7</ele>
        <time>2012-08-03T08:47:04Z</time>
      </trkpt>
      <trkpt lat="45.21978" lon="-0.79079">
        <ele>7</ele>
        <time>2012-08-03T08:47:06Z</time>
      </trkpt>
      <trkpt lat="45.21981" lon="-0.79071">
        <ele>7</ele>
        <time>2012-08-03T08:47:08Z</time>
      </trkpt>
      <trkpt lat="45.21983" lon="-0.79064">
        <ele>7</ele>
        <time>2012-08-03T08:47:10Z</time>
      </trkpt>
      <trkpt lat="45.21984" lon="-0.79057">
        <ele>8</ele>
        <time>2012-08-03T08:47:12Z</time>
      </trkpt>
      <trkpt lat="45.21986" lon="-0.7905">
        <ele>9</ele>
        <time>2012-08-03T08:47:14Z</time>
      </trkpt>
      <trkpt lat="45.21987" lon="-0.79043">
        <ele>9</ele>
        <time>2012-08-03T08:47:16Z</time>
      </trkpt>
      <trkpt lat="45.21989" lon="-0.79037">
        <ele>10</ele>
        <time>2012-08-03T08:47:19Z</time>
      </trkpt>
      <trkpt lat="45.2199" lon="-0.7903">
        <ele>10</ele>
        <time>2012-08-03T08:47:21Z</time>
      </trkpt>
      <trkpt lat="45.21991" lon="-0.79023">
        <ele>11</ele>
        <time>2012-08-03T08:47:23Z</time>
      </trkpt>
      <trkpt lat="45.21993" lon="-0.79014">
        <ele>11</ele>
        <time>2012-08-03T08:47:25Z</time>
      </trkpt>
      <trkpt lat="45.21995" lon="-0.79006">
        <ele>12</ele>
        <time>2012-08-03T08:47:27Z</time>
      </trkpt>
      <trkpt lat="45.21996" lon="-0.79">
        <ele>12</ele>
        <time>2012-08-03T08:47:29Z</time>
      </trkpt>
      <trkpt lat="45.21998" lon="-0.78994">
        <ele>13</ele>
        <time>2012-08-03T08:47:31Z</time>
      </trkpt>
      <trkpt lat="45.22002" lon="-0.7899">
        <ele>12</ele>
        <time>2012-08-03T08:47:33Z</time>
      </trkpt>
      <trkpt lat="45.22005" lon="-0.78993">
        <ele>13</ele>
        <time>2012-08-03T08:47:35Z</time>
      </trkpt>
      <trkpt lat="45.22008" lon="-0.78998">
        <ele>12</ele>
        <time>2012-08-03T08:47:37Z</time>
      </trkpt>
      <trkpt lat="45.22012" lon="-0.79">
        <ele>12</ele>
        <time>2012-08-03T08:47:39Z</time>
      </trkpt>
      <trkpt lat="45.22017" lon="-0.79001">
        <ele>11</ele>
        <time>2012-08-03T08:47:41Z</time>
      </trkpt>
      <trkpt lat="45.22022" lon="-0.79001">
        <ele>11</ele>
        <time>2012-08-03T08:47:43Z</time>
      </trkpt>
      <trkpt lat="45.22027" lon="-0.79002">
        <ele>11</ele>
        <time>2012-08-03T08:47:45Z</time>
      </trkpt>
      <trkpt lat="45.22033" lon="-0.79004">
        <ele>10</ele>
        <time>2012-08-03T08:47:48Z</time>
      </trkpt>
      <trkpt lat="45.22038" lon="-0.79004">
        <ele>9</ele>
        <time>2012-08-03T08:47:50Z</time>
      </trkpt>
      <trkpt lat="45.22043" lon="-0.79005">
        <ele>8</ele>
        <time>2012-08-03T08:47:52Z</time>
      </trkpt>
      <trkpt lat="45.22051" lon="-0.79006">
        <ele>8</ele>
        <time>2012-08-03T08:47:54Z</time>
      </trkpt>
      <trkpt lat="45.22057" lon="-0.79007">
        <ele>7</ele>
        <time>2012-08-03T08:47:56Z</time>
      </trkpt>
      <trkpt lat="45.22062" lon="-0.79008">
        <ele>7</ele>
        <time>2012-08-03T08:47:58Z</time>
      </trkpt>
      <trkpt lat="45.22068" lon="-0.79009">
        <ele>6</ele>
        <time>2012-08-03T08:48:00Z</time>
      </trkpt>
      <trkpt lat="45.22074" lon="-0.79009">
        <ele>6</ele>
        <time>2012-08-03T08:48:02Z</time>
      </trkpt>
      <trkpt lat="45.2208" lon="-0.79005">
        <ele>5</ele>
        <time>2012-08-03T08:48:04Z</time>
      </trkpt>
      <trkpt lat="45.22084" lon="-0.79">
        <ele>5</ele>
        <time>2012-08-03T08:48:06Z</time>
      </trkpt>
      <trkpt lat="45.22086" lon="-0.78992">
        <ele>4</ele>
        <time>2012-08-03T08:48:08Z</time>
      </trkpt>
      <trkpt lat="45.22088" lon="-0.78984">
        <ele>4</ele>
        <time>2012-08-03T08:48:10Z</time>
      </trkpt>
      <trkpt lat="45.22089" lon="-0.78976">
        <ele>4</ele>
        <time>2012-08-03T08:48:12Z</time>
      </trkpt>
      <trkpt lat="45.22089" lon="-0.78968">
        <ele>4</ele>
        <time>2012-08-03T08:48:14Z</time>
      </trkpt>
      <trkpt lat="45.2209" lon="-0.78959">
        <ele>4</ele>
        <time>2012-08-03T08:48:16Z</time>
      </trkpt>
      <trkpt lat="45.22091" lon="-0.78951">
        <ele>4</ele>
        <time>2012-08-03T08:48:18Z</time>
      </trkpt>
      <trkpt lat="45.22091" lon="-0.78942">
        <ele>4</ele>
        <time>2012-08-03T08:48:20Z</time>
      </trkpt>
      <trkpt lat="45.2209" lon="-0.78935">
        <ele>3</ele>
        <time>2012-08-03T08:48:22Z</time>
      </trkpt>
      <trkpt lat="45.2209" lon="-0.78927">
        <ele>3</ele>
        <time>2012-08-03T08:48:24Z</time>
      </trkpt>
      <trkpt lat="45.22091" lon="-0.7892">
        <ele>3</ele>
        <time>2012-08-03T08:48:26Z</time>
      </trkpt>
      <trkpt lat="45.22091" lon="-0.78912">
        <ele>2</ele>
        <time>2012-08-03T08:48:29Z</time>
      </trkpt>
      <trkpt lat="45.22092" lon="-0.789">
        <ele>2</ele>
        <time>2012-08-03T08:48:31Z</time>
      </trkpt>
      <trkpt lat="45.22092" lon="-0.78892">
        <ele>2</ele>
        <time>2012-08-03T08:48:33Z</time>
      </trkpt>
      <trkpt lat="45.22092" lon="-0.78885">
        <ele>2</ele>
        <time>2012-08-03T08:48:35Z</time>
      </trkpt>
      <trkpt lat="45.22092" lon="-0.78877">
        <ele>3</ele>
        <time>2012-08-03T08:48:37Z</time>
      </trkpt>
      <trkpt lat="45.22092" lon="-0.7887">
        <ele>3</ele>
        <time>2012-08-03T08:48:39Z</time>
      </trkpt>
      <trkpt lat="45.22092" lon="-0.78863">
        <ele>3</ele>
        <time>2012-08-03T08:48:41Z</time>
      </trkpt>
      <trkpt lat="45.22093" lon="-0.78855">
        <ele>3</ele>
        <time>2012-08-03T08:48:43Z</time>
      </trkpt>
      <trkpt lat="45.22094" lon="-0.78848">
        <ele>2</ele>
        <time>2012-08-03T08:48:45Z</time>
      </trkpt>
      <trkpt lat="45.22095" lon="-0.7884">
        <ele>2</ele>
        <time>2012-08-03T08:48:47Z</time>
      </trkpt>
      <trkpt lat="45.22096" lon="-0.78833">
        <ele>2</ele>
        <time>2012-08-03T08:48:50Z</time>
      </trkpt>
      <trkpt lat="45.22098" lon="-0.78825">
        <ele>2</ele>
        <time>2012-08-03T08:48:52Z</time>
      </trkpt>
      <trkpt lat="45.221" lon="-0.78818">
        <ele>2</ele>
        <time>2012-08-03T08:48:54Z</time>
      </trkpt>
      <trkpt lat="45.22101" lon="-0.78812">
        <ele>2</ele>
        <time>2012-08-03T08:48:56Z</time>
      </trkpt>
      <trkpt lat="45.22104" lon="-0.78801">
        <ele>3</ele>
        <time>2012-08-03T08:48:58Z</time>
      </trkpt>
      <trkpt lat="45.22105" lon="-0.78794">
        <ele>3</ele>
        <time>2012-08-03T08:49:00Z</time>
      </trkpt>
      <trkpt lat="45.22107" lon="-0.78787">
        <ele>3</ele>
        <time>2012-08-03T08:49:02Z</time>
      </trkpt>
      <trkpt lat="45.22107" lon="-0.7878">
        <ele>3</ele>
        <time>2012-08-03T08:49:04Z</time>
      </trkpt>
      <trkpt lat="45.22108" lon="-0.78773">
        <ele>3</ele>
        <time>2012-08-03T08:49:06Z</time>
      </trkpt>
      <trkpt lat="45.2211" lon="-0.78766">
        <ele>3</ele>
        <time>2012-08-03T08:49:08Z</time>
      </trkpt>
      <trkpt lat="45.22111" lon="-0.78759">
        <ele>3</ele>
        <time>2012-08-03T08:49:10Z</time>
      </trkpt>
      <trkpt lat="45.22113" lon="-0.78752">
        <ele>3</ele>
        <time>2012-08-03T08:49:12Z</time>
      </trkpt>
      <trkpt lat="45.22114" lon="-0.78745">
        <ele>3</ele>
        <time>2012-08-03T08:49:15Z</time>
      </trkpt>
      <trkpt lat="45.22116" lon="-0.78737">
        <ele>3</ele>
        <time>2012-08-03T08:49:17Z</time>
      </trkpt>
      <trkpt lat="45.22118" lon="-0.78727">
        <ele>3</ele>
        <time>2012-08-03T08:49:19Z</time>
      </trkpt>
      <trkpt lat="45.2212" lon="-0.7872">
        <ele>3</ele>
        <time>2012-08-03T08:49:21Z</time>
      </trkpt>
      <trkpt lat="45.22121" lon="-0.78712">
        <ele>3</ele>
        <time>2012-08-03T08:49:23Z</time>
      </trkpt>
      <trkpt lat="45.22123" lon="-0.78705">
        <ele>3</ele>
        <time>2012-08-03T08:49:25Z</time>
      </trkpt>
      <trkpt lat="45.22125" lon="-0.78698">
        <ele>3</ele>
        <time>2012-08-03T08:49:27Z</time>
      </trkpt>
      <trkpt lat="45.22126" lon="-0.78691">
        <ele>3</ele>
        <time>2012-08-03T08:49:29Z</time>
      </trkpt>
      <trkpt lat="45.22127" lon="-0.78684">
        <ele>3</ele>
        <time>2012-08-03T08:49:31Z</time>
      </trkpt>
      <trkpt lat="45.22128" lon="-0.78677">
        <ele>3</ele>
        <time>2012-08-03T08:49:33Z</time>
      </trkpt>
      <trkpt lat="45.2213" lon="-0.7867">
        <ele>3</ele>
        <time>2012-08-03T08:49:35Z</time>
      </trkpt>
      <trkpt lat="45.22131" lon="-0.78662">
        <ele>3</ele>
        <time>2012-08-03T08:49:38Z</time>
      </trkpt>
      <trkpt lat="45.22132" lon="-0.78654">
        <ele>3</ele>
        <time>2012-08-03T08:49:40Z</time>
      </trkpt>
      <trkpt lat="45.22135" lon="-0.78642">
        <ele>3</ele>
        <time>2012-08-03T08:49:42Z</time>
      </trkpt>
      <trkpt lat="45.22136" lon="-0.78633">
        <ele>4</ele>
        <time>2012-08-03T08:49:44Z</time>
      </trkpt>
      <trkpt lat="45.22136" lon="-0.78625">
        <ele>4</ele>
        <time>2012-08-03T08:49:46Z</time>
      </trkpt>
      <trkpt lat="45.22137" lon="-0.78618">
        <ele>4</ele>
        <time>2012-08-03T08:49:48Z</time>
      </trkpt>
      <trkpt lat="45.22136" lon="-0.78609">
        <ele>4</ele>
        <time>2012-08-03T08:49:50Z</time>
      </trkpt>
      <trkpt lat="45.22136" lon="-0.786">
        <ele>5</ele>
        <time>2012-08-03T08:49:52Z</time>
      </trkpt>
      <trkpt lat="45.22136" lon="-0.78592">
        <ele>5</ele>
        <time>2012-08-03T08:49:54Z</time>
      </trkpt>
      <trkpt lat="45.22135" lon="-0.78584">
        <ele>4</ele>
        <time>2012-08-03T08:49:56Z</time>
      </trkpt>
      <trkpt lat="45.22135" lon="-0.78575">
        <ele>4</ele>
        <time>2012-08-03T08:49:58Z</time>
      </trkpt>
      <trkpt lat="45.22134" lon="-0.78567">
        <ele>3</ele>
        <time>2012-08-03T08:50:00Z</time>
      </trkpt>
      <trkpt lat="45.22134" lon="-0.78559">
        <ele>3</ele>
        <time>2012-08-03T08:50:02Z</time>
      </trkpt>
      <trkpt lat="45.22132" lon="-0.78551">
        <ele>3</ele>
        <time>2012-08-03T08:50:05Z</time>
      </trkpt>
      <trkpt lat="45.22131" lon="-0.78543">
        <ele>4</ele>
        <time>2012-08-03T08:50:07Z</time>
      </trkpt>
      <trkpt lat="45.22128" lon="-0.78531">
        <ele>4</ele>
        <time>2012-08-03T08:50:09Z</time>
      </trkpt>
      <trkpt lat="45.22126" lon="-0.78524">
        <ele>5</ele>
        <time>2012-08-03T08:50:11Z</time>
      </trkpt>
      <trkpt lat="45.22123" lon="-0.78517">
        <ele>4</ele>
        <time>2012-08-03T08:50:13Z</time>
      </trkpt>
      <trkpt lat="45.22121" lon="-0.78509">
        <ele>4</ele>
        <time>2012-08-03T08:50:15Z</time>
      </trkpt>
      <trkpt lat="45.22119" lon="-0.78502">
        <ele>2</ele>
        <time>2012-08-03T08:50:17Z</time>
      </trkpt>
      <trkpt lat="45.22116" lon="-0.78495">
        <ele>2</ele>
        <time>2012-08-03T08:50:19Z</time>
      </trkpt>
      <trkpt lat="45.22113" lon="-0.78488">
        <ele>2</ele>
        <time>2012-08-03T08:50:21Z</time>
      </trkpt>
      <trkpt lat="45.2211" lon="-0.78482">
        <ele>3</ele>
        <time>2012-08-03T08:50:23Z</time>
      </trkpt>
      <trkpt lat="45.22108" lon="-0.78474">
        <ele>4</ele>
        <time>2012-08-03T08:50:25Z</time>
      </trkpt>
      <trkpt lat="45.22106" lon="-0.78467">
        <ele>6</ele>
        <time>2012-08-03T08:50:27Z</time>
      </trkpt>
      <trkpt lat="45.22103" lon="-0.7846">
        <ele>6</ele>
        <time>2012-08-03T08:50:29Z</time>
      </trkpt>
      <trkpt lat="45.22101" lon="-0.78453">
        <ele>6</ele>
        <time>2012-08-03T08:50:32Z</time>
      </trkpt>
      <trkpt lat="45.22098" lon="-0.78446">
        <ele>6</ele>
        <time>2012-08-03T08:50:34Z</time>
      </trkpt>
      <trkpt lat="45.22095" lon="-0.78434">
        <ele>6</ele>
        <time>2012-08-03T08:50:36Z</time>
      </trkpt>
      <trkpt lat="45.22092" lon="-0.78427">
        <ele>6</ele>
        <time>2012-08-03T08:50:38Z</time>
      </trkpt>
      <trkpt lat="45.22089" lon="-0.7842">
        <ele>6</ele>
        <time>2012-08-03T08:50:40Z</time>
      </trkpt>
      <trkpt lat="45.22086" lon="-0.78413">
        <ele>6</ele>
        <time>2012-08-03T08:50:42Z</time>
      </trkpt>
      <trkpt lat="45.22084" lon="-0.78405">
        <ele>6</ele>
        <time>2012-08-03T08:50:44Z</time>
      </trkpt>
      <trkpt lat="45.22081" lon="-0.78398">
        <ele>6</ele>
        <time>2012-08-03T08:50:46Z</time>
      </trkpt>
      <trkpt lat="45.22078" lon="-0.7839">
        <ele>6</ele>
        <time>2012-08-03T08:50:48Z</time>
      </trkpt>
      <trkpt lat="45.22076" lon="-0.78383">
        <ele>7</ele>
        <time>2012-08-03T08:50:51Z</time>
      </trkpt>
      <trkpt lat="45.22073" lon="-0.78377">
        <ele>7</ele>
        <time>2012-08-03T08:50:53Z</time>
      </trkpt>
      <trkpt lat="45.22068" lon="-0.78367">
        <ele>7</ele>
        <time>2012-08-03T08:50:55Z</time>
      </trkpt>
      <trkpt lat="45.22065" lon="-0.7836">
        <ele>8</ele>
        <time>2012-08-03T08:50:57Z</time>
      </trkpt>
      <trkpt lat="45.22061" lon="-0.78354">
        <ele>8</ele>
        <time>2012-08-03T08:50:59Z</time>
      </trkpt>
      <trkpt lat="45.22057" lon="-0.78347">
        <ele>7</ele>
        <time>2012-08-03T08:51:01Z</time>
      </trkpt>
      <trkpt lat="45.22054" lon="-0.78342">
        <ele>7</ele>
        <time>2012-08-03T08:51:03Z</time>
      </trkpt>
      <trkpt lat="45.2205" lon="-0.78335">
        <ele>7</ele>
        <time>2012-08-03T08:51:05Z</time>
      </trkpt>
      <trkpt lat="45.22046" lon="-0.7833">
        <ele>7</ele>
        <time>2012-08-03T08:51:07Z</time>
      </trkpt>
      <trkpt lat="45.22042" lon="-0.78324">
        <ele>7</ele>
        <time>2012-08-03T08:51:09Z</time>
      </trkpt>
      <trkpt lat="45.22038" lon="-0.78318">
        <ele>8</ele>
        <time>2012-08-03T08:51:11Z</time>
      </trkpt>
      <trkpt lat="45.22033" lon="-0.78312">
        <ele>9</ele>
        <time>2012-08-03T08:51:13Z</time>
      </trkpt>
      <trkpt lat="45.22029" lon="-0.78307">
        <ele>9</ele>
        <time>2012-08-03T08:51:15Z</time>
      </trkpt>
      <trkpt lat="45.22025" lon="-0.78302">
        <ele>9</ele>
        <time>2012-08-03T08:51:18Z</time>
      </trkpt>
      <trkpt lat="45.2202" lon="-0.78298">
        <ele>9</ele>
        <time>2012-08-03T08:51:20Z</time>
      </trkpt>
      <trkpt lat="45.22015" lon="-0.78295">
        <ele>9</ele>
        <time>2012-08-03T08:51:22Z</time>
      </trkpt>
      <trkpt lat="45.2201" lon="-0.78292">
        <ele>8</ele>
        <time>2012-08-03T08:51:24Z</time>
      </trkpt>
      <trkpt lat="45.22003" lon="-0.78287">
        <ele>8</ele>
        <time>2012-08-03T08:51:26Z</time>
      </trkpt>
      <trkpt lat="45.22001" lon="-0.78281">
        <ele>8</ele>
        <time>2012-08-03T08:51:28Z</time>
      </trkpt>
      <trkpt lat="45.22002" lon="-0.78274">
        <ele>7</ele>
        <time>2012-08-03T08:51:30Z</time>
      </trkpt>
      <trkpt lat="45.22005" lon="-0.78268">
        <ele>7</ele>
        <time>2012-08-03T08:51:32Z</time>
      </trkpt>
      <trkpt lat="45.22008" lon="-0.78262">
        <ele>5</ele>
        <time>2012-08-03T08:51:34Z</time>
      </trkpt>
      <trkpt lat="45.2201" lon="-0.78255">
        <ele>5</ele>
        <time>2012-08-03T08:51:36Z</time>
      </trkpt>
      <trkpt lat="45.22013" lon="-0.78249">
        <ele>5</ele>
        <time>2012-08-03T08:51:38Z</time>
      </trkpt>
      <trkpt lat="45.22016" lon="-0.78243">
        <ele>5</ele>
        <time>2012-08-03T08:51:40Z</time>
      </trkpt>
      <trkpt lat="45.22019" lon="-0.78238">
        <ele>5</ele>
        <time>2012-08-03T08:51:42Z</time>
      </trkpt>
      <trkpt lat="45.22022" lon="-0.78233">
        <ele>5</ele>
        <time>2012-08-03T08:51:44Z</time>
      </trkpt>
      <trkpt lat="45.22025" lon="-0.78228">
        <ele>5</ele>
        <time>2012-08-03T08:51:46Z</time>
      </trkpt>
      <trkpt lat="45.22028" lon="-0.78223">
        <ele>6</ele>
        <time>2012-08-03T08:51:49Z</time>
      </trkpt>
      <trkpt lat="45.22031" lon="-0.78218">
        <ele>7</ele>
        <time>2012-08-03T08:51:51Z</time>
      </trkpt>
      <trkpt lat="45.22035" lon="-0.7821">
        <ele>7</ele>
        <time>2012-08-03T08:51:53Z</time>
      </trkpt>
      <trkpt lat="45.22037" lon="-0.78204">
        <ele>8</ele>
        <time>2012-08-03T08:51:55Z</time>
      </trkpt>
      <trkpt lat="45.2204" lon="-0.78199">
        <ele>8</ele>
        <time>2012-08-03T08:51:57Z</time>
      </trkpt>
      <trkpt lat="45.22041" lon="-0.78193">
        <ele>9</ele>
        <time>2012-08-03T08:51:59Z</time>
      </trkpt>
      <trkpt lat="45.22041" lon="-0.78186">
        <ele>10</ele>
        <time>2012-08-03T08:52:01Z</time>
      </trkpt>
      <trkpt lat="45.22042" lon="-0.7818">
        <ele>11</ele>
        <time>2012-08-03T08:52:03Z</time>
      </trkpt>
      <trkpt lat="45.22043" lon="-0.78174">
        <ele>12</ele>
        <time>2012-08-03T08:52:05Z</time>
      </trkpt>
      <trkpt lat="45.22043" lon="-0.78167">
        <ele>13</ele>
        <time>2012-08-03T08:52:07Z</time>
      </trkpt>
      <trkpt lat="45.22043" lon="-0.78161">
        <ele>14</ele>
        <time>2012-08-03T08:52:09Z</time>
      </trkpt>
      <trkpt lat="45.22043" lon="-0.78154">
        <ele>15</ele>
        <time>2012-08-03T08:52:11Z</time>
      </trkpt>
      <trkpt lat="45.22044" lon="-0.78148">
        <ele>16</ele>
        <time>2012-08-03T08:52:13Z</time>
      </trkpt>
      <trkpt lat="45.22044" lon="-0.78141">
        <ele>16</ele>
        <time>2012-08-03T08:52:15Z</time>
      </trkpt>
      <trkpt lat="45.22044" lon="-0.78135">
        <ele>17</ele>
        <time>2012-08-03T08:52:17Z</time>
      </trkpt>
      <trkpt lat="45.22045" lon="-0.78128">
        <ele>17</ele>
        <time>2012-08-03T08:52:19Z</time>
      </trkpt>
      <trkpt lat="45.22045" lon="-0.78122">
        <ele>18</ele>
        <time>2012-08-03T08:52:21Z</time>
      </trkpt>
      <trkpt lat="45.22046" lon="-0.78116">
        <ele>18</ele>
        <time>2012-08-03T08:52:23Z</time>
      </trkpt>
      <trkpt lat="45.22047" lon="-0.78109">
        <ele>18</ele>
        <time>2012-08-03T08:52:25Z</time>
      </trkpt>
      <trkpt lat="45.22049" lon="-0.78103">
        <ele>18</ele>
        <time>2012-08-03T08:52:28Z</time>
      </trkpt>
      <trkpt lat="45.22051" lon="-0.78092">
        <ele>19</ele>
        <time>2012-08-03T08:52:30Z</time>
      </trkpt>
      <trkpt lat="45.22052" lon="-0.78086">
        <ele>19</ele>
        <time>2012-08-03T08:52:32Z</time>
      </trkpt>
      <trkpt lat="45.22053" lon="-0.7808">
        <ele>19</ele>
        <time>2012-08-03T08:52:34Z</time>
      </trkpt>
      <trkpt lat="45.22054" lon="-0.78073">
        <ele>19</ele>
        <time>2012-08-03T08:52:36Z</time>
      </trkpt>
      <trkpt lat="45.22055" lon="-0.78067">
        <ele>19</ele>
        <time>2012-08-03T08:52:38Z</time>
      </trkpt>
      <trkpt lat="45.22056" lon="-0.78061">
        <ele>20</ele>
        <time>2012-08-03T08:52:40Z</time>
      </trkpt>
      <trkpt lat="45.22056" lon="-0.78059">
        <ele>21</ele>
        <time>2012-08-03T08:52:42Z</time>
      </trkpt>
      <trkpt lat="45.22056" lon="-0.78059">
        <ele>22</ele>
        <time>2012-08-03T08:52:44Z</time>
      </trkpt>
      <trkpt lat="45.22056" lon="-0.7806">
        <ele>22</ele>
        <time>2012-08-03T08:52:46Z</time>
      </trkpt>
      <trkpt lat="45.22055" lon="-0.7806">
        <ele>22</ele>
        <time>2012-08-03T08:52:48Z</time>
      </trkpt>
      <trkpt lat="45.22055" lon="-0.7806">
        <ele>23</ele>
        <time>2012-08-03T08:52:50Z</time>
      </trkpt>
      <trkpt lat="45.22055" lon="-0.7806">
        <ele>23</ele>
        <time>2012-08-03T08:52:52Z</time>
      </trkpt>
      <trkpt lat="45.22055" lon="-0.7806">
        <ele>23</ele>
        <time>2012-08-03T08:52:55Z</time>
      </trkpt>
      <trkpt lat="45.22055" lon="-0.7806">
        <ele>23</ele>
        <time>2012-08-03T08:52:57Z</time>
      </trkpt>
      <trkpt lat="45.22055" lon="-0.7806">
        <ele>22</ele>
        <time>2012-08-03T08:52:59Z</time>
      </trkpt>
      <trkpt lat="45.22055" lon="-0.7806">
        <ele>21</ele>
        <time>2012-08-03T08:53:01Z</time>
      </trkpt>
      <trkpt lat="45.22055" lon="-0.7806">
        <ele>22</ele>
        <time>2012-08-03T08:53:03Z</time>
      </trkpt>
      <trkpt lat="45.22055" lon="-0.7806">
        <ele>22</ele>
        <time>2012-08-03T08:53:05Z</time>
      </trkpt>
      <trkpt lat="45.22054" lon="-0.78061">
        <ele>22</ele>
        <time>2012-08-03T08:53:07Z</time>
      </trkpt>
      <trkpt lat="45.22054" lon="-0.78061">
        <ele>22</ele>
        <time>2012-08-03T08:53:09Z</time>
      </trkpt>
      <trkpt lat="45.22053" lon="-0.78061">
        <ele>22</ele>
        <time>2012-08-03T08:53:11Z</time>
      </trkpt>
      <trkpt lat="45.22052" lon="-0.78065">
        <ele>21</ele>
        <time>2012-08-03T08:53:13Z</time>
      </trkpt>
      <trkpt lat="45.2205" lon="-0.78073">
        <ele>21</ele>
        <time>2012-08-03T08:53:15Z</time>
      </trkpt>
      <trkpt lat="45.22048" lon="-0.78079">
        <ele>20</ele>
        <time>2012-08-03T08:53:17Z</time>
      </trkpt>
      <trkpt lat="45.22047" lon="-0.78087">
        <ele>20</ele>
        <time>2012-08-03T08:53:19Z</time>
      </trkpt>
      <trkpt lat="45.22047" lon="-0.78095">
        <ele>20</ele>
        <time>2012-08-03T08:53:21Z</time>
      </trkpt>
      <trkpt lat="45.22046" lon="-0.78103">
        <ele>20</ele>
        <time>2012-08-03T08:53:23Z</time>
      </trkpt>
      <trkpt lat="45.22044" lon="-0.78111">
        <ele>19</ele>
        <time>2012-08-03T08:53:25Z</time>
      </trkpt>
      <trkpt lat="45.22042" lon="-0.78119">
        <ele>19</ele>
        <time>2012-08-03T08:53:27Z</time>
      </trkpt>
      <trkpt lat="45.22041" lon="-0.78127">
        <ele>18</ele>
        <time>2012-08-03T08:53:29Z</time>
      </trkpt>
      <trkpt lat="45.22041" lon="-0.78136">
        <ele>18</ele>
        <time>2012-08-03T08:53:31Z</time>
      </trkpt>
      <trkpt lat="45.22041" lon="-0.78146">
        <ele>17</ele>
        <time>2012-08-03T08:53:34Z</time>
      </trkpt>
      <trkpt lat="45.22041" lon="-0.78162">
        <ele>16</ele>
        <time>2012-08-03T08:53:36Z</time>
      </trkpt>
      <trkpt lat="45.22041" lon="-0.78173">
        <ele>15</ele>
        <time>2012-08-03T08:53:38Z</time>
      </trkpt>
      <trkpt lat="45.22041" lon="-0.78184">
        <ele>13</ele>
        <time>2012-08-03T08:53:40Z</time>
      </trkpt>
      <trkpt lat="45.22041" lon="-0.78194">
        <ele>12</ele>
        <time>2012-08-03T08:53:42Z</time>
      </trkpt>
      <trkpt lat="45.22038" lon="-0.78203">
        <ele>10</ele>
        <time>2012-08-03T08:53:44Z</time>
      </trkpt>
      <trkpt lat="45.22034" lon="-0.78212">
        <ele>9</ele>
        <time>2012-08-03T08:53:46Z</time>
      </trkpt>
      <trkpt lat="45.22029" lon="-0.7822">
        <ele>8</ele>
        <time>2012-08-03T08:53:48Z</time>
      </trkpt>
      <trkpt lat="45.22024" lon="-0.78228">
        <ele>7</ele>
        <time>2012-08-03T08:53:50Z</time>
      </trkpt>
      <trkpt lat="45.22017" lon="-0.7824">
        <ele>6</ele>
        <time>2012-08-03T08:53:53Z</time>
      </trkpt>
      <trkpt lat="45.22013" lon="-0.78247">
        <ele>5</ele>
        <time>2012-08-03T08:53:55Z</time>
      </trkpt>
      <trkpt lat="45.2201" lon="-0.78254">
        <ele>5</ele>
        <time>2012-08-03T08:53:57Z</time>
      </trkpt>
      <trkpt lat="45.22006" lon="-0.78262">
        <ele>5</ele>
        <time>2012-08-03T08:53:59Z</time>
      </trkpt>
      <trkpt lat="45.22002" lon="-0.78269">
        <ele>5</ele>
        <time>2012-08-03T08:54:01Z</time>
      </trkpt>
      <trkpt lat="45.21999" lon="-0.78276">
        <ele>6</ele>
        <time>2012-08-03T08:54:03Z</time>
      </trkpt>
      <trkpt lat="45.21995" lon="-0.78284">
        <ele>5</ele>
        <time>2012-08-03T08:54:05Z</time>
      </trkpt>
      <trkpt lat="45.21991" lon="-0.78291">
        <ele>6</ele>
        <time>2012-08-03T08:54:07Z</time>
      </trkpt>
      <trkpt lat="45.21987" lon="-0.78298">
        <ele>6</ele>
        <time>2012-08-03T08:54:09Z</time>
      </trkpt>
      <trkpt lat="45.21983" lon="-0.78304">
        <ele>6</ele>
        <time>2012-08-03T08:54:11Z</time>
      </trkpt>
      <trkpt lat="45.21978" lon="-0.78309">
        <ele>7</ele>
        <time>2012-08-03T08:54:13Z</time>
      </trkpt>
      <trkpt lat="45.21973" lon="-0.78314">
        <ele>6</ele>
        <time>2012-08-03T08:54:15Z</time>
      </trkpt>
      <trkpt lat="45.21969" lon="-0.78319">
        <ele>6</ele>
        <time>2012-08-03T08:54:17Z</time>
      </trkpt>
      <trkpt lat="45.21964" lon="-0.78323">
        <ele>6</ele>
        <time>2012-08-03T08:54:19Z</time>
      </trkpt>
      <trkpt lat="45.21959" lon="-0.78327">
        <ele>6</ele>
        <time>2012-08-03T08:54:21Z</time>
      </trkpt>
      <trkpt lat="45.21955" lon="-0.78332">
        <ele>6</ele>
        <time>2012-08-03T08:54:23Z</time>
      </trkpt>
      <trkpt lat="45.2195" lon="-0.78335">
        <ele>7</ele>
        <time>2012-08-03T08:54:25Z</time>
      </trkpt>
      <trkpt lat="45.21946" lon="-0.78339">
        <ele>7</ele>
        <time>2012-08-03T08:54:28Z</time>
      </trkpt>
      <trkpt lat="45.21939" lon="-0.78346">
        <ele>7</ele>
        <time>2012-08-03T08:54:30Z</time>
      </trkpt>
      <trkpt lat="45.21934" lon="-0.78349">
        <ele>8</ele>
        <time>2012-08-03T08:54:32Z</time>
      </trkpt>
      <trkpt lat="45.2193" lon="-0.78353">
        <ele>8</ele>
        <time>2012-08-03T08:54:34Z</time>
      </trkpt>
      <trkpt lat="45.21925" lon="-0.78357">
        <ele>8</ele>
        <time>2012-08-03T08:54:36Z</time>
      </trkpt>
      <trkpt lat="45.2192" lon="-0.78361">
        <ele>9</ele>
        <time>2012-08-03T08:54:38Z</time>
      </trkpt>
      <trkpt lat="45.21916" lon="-0.78365">
        <ele>9</ele>
        <time>2012-08-03T08:54:40Z</time>
      </trkpt>
      <trkpt lat="45.21912" lon="-0.78369">
        <ele>8</ele>
        <time>2012-08-03T08:54:42Z</time>
      </trkpt>
      <trkpt lat="45.21907" lon="-0.78373">
        <ele>8</ele>
        <time>2012-08-03T08:54:44Z</time>
      </trkpt>
      <trkpt lat="45.21902" lon="-0.78377">
        <ele>9</ele>
        <time>2012-08-03T08:54:46Z</time>
      </trkpt>
      <trkpt lat="45.21898" lon="-0.78381">
        <ele>9</ele>
        <time>2012-08-03T08:54:49Z</time>
      </trkpt>
      <trkpt lat="45.21893" lon="-0.78384">
        <ele>9</ele>
        <time>2012-08-03T08:54:51Z</time>
      </trkpt>
      <trkpt lat="45.21888" lon="-0.78386">
        <ele>10</ele>
        <time>2012-08-03T08:54:53Z</time>
      </trkpt>
      <trkpt lat="45.21884" lon="-0.78388">
        <ele>10</ele>
        <time>2012-08-03T08:54:55Z</time>
      </trkpt>
      <trkpt lat="45.21876" lon="-0.7839">
        <ele>10</ele>
        <time>2012-08-03T08:54:57Z</time>
      </trkpt>
      <trkpt lat="45.21871" lon="-0.78391">
        <ele>11</ele>
        <time>2012-08-03T08:54:59Z</time>
      </trkpt>
      <trkpt lat="45.21866" lon="-0.78392">
        <ele>11</ele>
        <time>2012-08-03T08:55:01Z</time>
      </trkpt>
      <trkpt lat="45.21861" lon="-0.78393">
        <ele>12</ele>
        <time>2012-08-03T08:55:03Z</time>
      </trkpt>
      <trkpt lat="45.21856" lon="-0.78394">
        <ele>12</ele>
        <time>2012-08-03T08:55:05Z</time>
      </trkpt>
      <trkpt lat="45.21851" lon="-0.78395">
        <ele>12</ele>
        <time>2012-08-03T08:55:07Z</time>
      </trkpt>
      <trkpt lat="45.21846" lon="-0.78394">
        <ele>12</ele>
        <time>2012-08-03T08:55:09Z</time>
      </trkpt>
      <trkpt lat="45.21841" lon="-0.78395">
        <ele>13</ele>
        <time>2012-08-03T08:55:11Z</time>
      </trkpt>
      <trkpt lat="45.21835" lon="-0.78395">
        <ele>13</ele>
        <time>2012-08-03T08:55:13Z</time>
      </trkpt>
      <trkpt lat="45.2183" lon="-0.78396">
        <ele>14</ele>
        <time>2012-08-03T08:55:15Z</time>
      </trkpt>
      <trkpt lat="45.21825" lon="-0.78397">
        <ele>14</ele>
        <time>2012-08-03T08:55:17Z</time>
      </trkpt>
      <trkpt lat="45.2182" lon="-0.78399">
        <ele>15</ele>
        <time>2012-08-03T08:55:19Z</time>
      </trkpt>
      <trkpt lat="45.21815" lon="-0.784">
        <ele>15</ele>
        <time>2012-08-03T08:55:21Z</time>
      </trkpt>
      <trkpt lat="45.2181" lon="-0.78402">
        <ele>15</ele>
        <time>2012-08-03T08:55:23Z</time>
      </trkpt>
      <trkpt lat="45.21805" lon="-0.78404">
        <ele>15</ele>
        <time>2012-08-03T08:55:25Z</time>
      </trkpt>
      <trkpt lat="45.218" lon="-0.78406">
        <ele>15</ele>
        <time>2012-08-03T08:55:28Z</time>
      </trkpt>
      <trkpt lat="45.21795" lon="-0.78408">
        <ele>15</ele>
        <time>2012-08-03T08:55:30Z</time>
      </trkpt>
      <trkpt lat="45.21788" lon="-0.7841">
        <ele>15</ele>
        <time>2012-08-03T08:55:32Z</time>
      </trkpt>
      <trkpt lat="45.21783" lon="-0.78411">
        <ele>15</ele>
        <time>2012-08-03T08:55:34Z</time>
      </trkpt>
      <trkpt lat="45.21777" lon="-0.78412">
        <ele>16</ele>
        <time>2012-08-03T08:55:36Z</time>
      </trkpt>
      <trkpt lat="45.21772" lon="-0.78413">
        <ele>16</ele>
        <time>2012-08-03T08:55:38Z</time>
      </trkpt>
      <trkpt lat="45.21767" lon="-0.78414">
        <ele>16</ele>
        <time>2012-08-03T08:55:40Z</time>
      </trkpt>
      <trkpt lat="45.21761" lon="-0.78415">
        <ele>16</ele>
        <time>2012-08-03T08:55:42Z</time>
      </trkpt>
      <trkpt lat="45.21756" lon="-0.78415">
        <ele>15</ele>
        <time>2012-08-03T08:55:44Z</time>
      </trkpt>
      <trkpt lat="45.2175" lon="-0.78415">
        <ele>15</ele>
        <time>2012-08-03T08:55:46Z</time>
      </trkpt>
      <trkpt lat="45.21745" lon="-0.78416">
        <ele>15</ele>
        <time>2012-08-03T08:55:48Z</time>
      </trkpt>
      <trkpt lat="45.21739" lon="-0.78416">
        <ele>14</ele>
        <time>2012-08-03T08:55:50Z</time>
      </trkpt>
      <trkpt lat="45.21734" lon="-0.78416">
        <ele>15</ele>
        <time>2012-08-03T08:55:52Z</time>
      </trkpt>
      <trkpt lat="45.21729" lon="-0.78417">
        <ele>16</ele>
        <time>2012-08-03T08:55:54Z</time>
      </trkpt>
      <trkpt lat="45.21723" lon="-0.78417">
        <ele>17</ele>
        <time>2012-08-03T08:55:56Z</time>
      </trkpt>
      <trkpt lat="45.21718" lon="-0.78417">
        <ele>17</ele>
        <time>2012-08-03T08:55:59Z</time>
      </trkpt>
      <trkpt lat="45.2171" lon="-0.78418">
        <ele>17</ele>
        <time>2012-08-03T08:56:01Z</time>
      </trkpt>
      <trkpt lat="45.21704" lon="-0.78419">
        <ele>17</ele>
        <time>2012-08-03T08:56:03Z</time>
      </trkpt>
      <trkpt lat="45.21698" lon="-0.7842">
        <ele>17</ele>
        <time>2012-08-03T08:56:05Z</time>
      </trkpt>
      <trkpt lat="45.21693" lon="-0.7842">
        <ele>18</ele>
        <time>2012-08-03T08:56:07Z</time>
      </trkpt>
      <trkpt lat="45.21687" lon="-0.78417">
        <ele>18</ele>
        <time>2012-08-03T08:56:09Z</time>
      </trkpt>
      <trkpt lat="45.21682" lon="-0.78414">
        <ele>19</ele>
        <time>2012-08-03T08:56:11Z</time>
      </trkpt>
      <trkpt lat="45.21678" lon="-0.78411">
        <ele>19</ele>
        <time>2012-08-03T08:56:13Z</time>
      </trkpt>
      <trkpt lat="45.21673" lon="-0.78407">
        <ele>18</ele>
        <time>2012-08-03T08:56:15Z</time>
      </trkpt>
      <trkpt lat="45.21668" lon="-0.78403">
        <ele>18</ele>
        <time>2012-08-03T08:56:18Z</time>
      </trkpt>
      <trkpt lat="45.21662" lon="-0.78397">
        <ele>17</ele>
        <time>2012-08-03T08:56:20Z</time>
      </trkpt>
      <trkpt lat="45.21658" lon="-0.78393">
        <ele>17</ele>
        <time>2012-08-03T08:56:22Z</time>
      </trkpt>
      <trkpt lat="45.21654" lon="-0.78388">
        <ele>18</ele>
        <time>2012-08-03T08:56:24Z</time>
      </trkpt>
      <trkpt lat="45.2165" lon="-0.78383">
        <ele>17</ele>
        <time>2012-08-03T08:56:26Z</time>
      </trkpt>
      <trkpt lat="45.21648" lon="-0.78377">
        <ele>18</ele>
        <time>2012-08-03T08:56:28Z</time>
      </trkpt>
      <trkpt lat="45.21646" lon="-0.78369">
        <ele>18</ele>
        <time>2012-08-03T08:56:30Z</time>
      </trkpt>
      <trkpt lat="45.21645" lon="-0.78361">
        <ele>18</ele>
        <time>2012-08-03T08:56:32Z</time>
      </trkpt>
      <trkpt lat="45.21645" lon="-0.78354">
        <ele>18</ele>
        <time>2012-08-03T08:56:34Z</time>
      </trkpt>
      <trkpt lat="45.21645" lon="-0.78345">
        <ele>19</ele>
        <time>2012-08-03T08:56:36Z</time>
      </trkpt>
      <trkpt lat="45.21645" lon="-0.78336">
        <ele>19</ele>
        <time>2012-08-03T08:56:39Z</time>
      </trkpt>
      <trkpt lat="45.21646" lon="-0.78322">
        <ele>19</ele>
        <time>2012-08-03T08:56:41Z</time>
      </trkpt>
      <trkpt lat="45.21647" lon="-0.78313">
        <ele>20</ele>
        <time>2012-08-03T08:56:43Z</time>
      </trkpt>
      <trkpt lat="45.21647" lon="-0.78303">
        <ele>20</ele>
        <time>2012-08-03T08:56:45Z</time>
      </trkpt>
      <trkpt lat="45.21648" lon="-0.78294">
        <ele>21</ele>
        <time>2012-08-03T08:56:47Z</time>
      </trkpt>
      <trkpt lat="45.21649" lon="-0.78285">
        <ele>21</ele>
        <time>2012-08-03T08:56:49Z</time>
      </trkpt>
      <trkpt lat="45.2165" lon="-0.78276">
        <ele>21</ele>
        <time>2012-08-03T08:56:51Z</time>
      </trkpt>
      <trkpt lat="45.2165" lon="-0.78267">
        <ele>21</ele>
        <time>2012-08-03T08:56:53Z</time>
      </trkpt>
      <trkpt lat="45.21651" lon="-0.78258">
        <ele>21</ele>
        <time>2012-08-03T08:56:55Z</time>
      </trkpt>
      <trkpt lat="45.21653" lon="-0.78248">
        <ele>21</ele>
        <time>2012-08-03T08:56:57Z</time>
      </trkpt>
      <trkpt lat="45.21653" lon="-0.78238">
        <ele>20</ele>
        <time>2012-08-03T08:56:59Z</time>
      </trkpt>
      <trkpt lat="45.21653" lon="-0.78228">
        <ele>21</ele>
        <time>2012-08-03T08:57:01Z</time>
      </trkpt>
      <trkpt lat="45.21652" lon="-0.78219">
        <ele>20</ele>
        <time>2012-08-03T08:57:03Z</time>
      </trkpt>
      <trkpt lat="45.21651" lon="-0.7821">
        <ele>21</ele>
        <time>2012-08-03T08:57:05Z</time>
      </trkpt>
      <trkpt lat="45.21649" lon="-0.78201">
        <ele>21</ele>
        <time>2012-08-03T08:57:07Z</time>
      </trkpt>
      <trkpt lat="45.21646" lon="-0.78192">
        <ele>22</ele>
        <time>2012-08-03T08:57:10Z</time>
      </trkpt>
      <trkpt lat="45.21644" lon="-0.78183">
        <ele>22</ele>
        <time>2012-08-03T08:57:12Z</time>
      </trkpt>
      <trkpt lat="45.21642" lon="-0.78175">
        <ele>22</ele>
        <time>2012-08-03T08:57:14Z</time>
      </trkpt>
      <trkpt lat="45.21638" lon="-0.78162">
        <ele>22</ele>
        <time>2012-08-03T08:57:16Z</time>
      </trkpt>
      <trkpt lat="45.21636" lon="-0.78154">
        <ele>22</ele>
        <time>2012-08-03T08:57:18Z</time>
      </trkpt>
      <trkpt lat="45.21633" lon="-0.78145">
        <ele>22</ele>
        <time>2012-08-03T08:57:20Z</time>
      </trkpt>
      <trkpt lat="45.21629" lon="-0.78139">
        <ele>21</ele>
        <time>2012-08-03T08:57:22Z</time>
      </trkpt>
      <trkpt lat="45.21624" lon="-0.78139">
        <ele>21</ele>
        <time>2012-08-03T08:57:24Z</time>
      </trkpt>
      <trkpt lat="45.21619" lon="-0.78141">
        <ele>22</ele>
        <time>2012-08-03T08:57:26Z</time>
      </trkpt>
      <trkpt lat="45.21614" lon="-0.78145">
        <ele>22</ele>
        <time>2012-08-03T08:57:28Z</time>
      </trkpt>
      <trkpt lat="45.21609" lon="-0.78149">
        <ele>23</ele>
        <time>2012-08-03T08:57:30Z</time>
      </trkpt>
      <trkpt lat="45.21604" lon="-0.78153">
        <ele>24</ele>
        <time>2012-08-03T08:57:32Z</time>
      </trkpt>
      <trkpt lat="45.21599" lon="-0.78157">
        <ele>24</ele>
        <time>2012-08-03T08:57:34Z</time>
      </trkpt>
      <trkpt lat="45.21594" lon="-0.78161">
        <ele>23</ele>
        <time>2012-08-03T08:57:36Z</time>
      </trkpt>
      <trkpt lat="45.21589" lon="-0.78165">
        <ele>23</ele>
        <time>2012-08-03T08:57:38Z</time>
      </trkpt>
      <trkpt lat="45.21584" lon="-0.78169">
        <ele>23</ele>
        <time>2012-08-03T08:57:40Z</time>
      </trkpt>
      <trkpt lat="45.2158" lon="-0.78173">
        <ele>23</ele>
        <time>2012-08-03T08:57:42Z</time>
      </trkpt>
      <trkpt lat="45.21575" lon="-0.78177">
        <ele>24</ele>
        <time>2012-08-03T08:57:45Z</time>
      </trkpt>
      <trkpt lat="45.21569" lon="-0.78184">
        <ele>24</ele>
        <time>2012-08-03T08:57:47Z</time>
      </trkpt>
      <trkpt lat="45.21564" lon="-0.78189">
        <ele>24</ele>
        <time>2012-08-03T08:57:49Z</time>
      </trkpt>
      <trkpt lat="45.2156" lon="-0.78193">
        <ele>24</ele>
        <time>2012-08-03T08:57:51Z</time>
      </trkpt>
      <trkpt lat="45.21556" lon="-0.78198">
        <ele>24</ele>
        <time>2012-08-03T08:57:53Z</time>
      </trkpt>
      <trkpt lat="45.21552" lon="-0.78203">
        <ele>24</ele>
        <time>2012-08-03T08:57:55Z</time>
      </trkpt>
      <trkpt lat="45.21548" lon="-0.78209">
        <ele>24</ele>
        <time>2012-08-03T08:57:57Z</time>
      </trkpt>
      <trkpt lat="45.21544" lon="-0.78214">
        <ele>24</ele>
        <time>2012-08-03T08:57:59Z</time>
      </trkpt>
      <trkpt lat="45.21541" lon="-0.78219">
        <ele>25</ele>
        <time>2012-08-03T08:58:01Z</time>
      </trkpt>
      <trkpt lat="45.21537" lon="-0.78225">
        <ele>25</ele>
        <time>2012-08-03T08:58:03Z</time>
      </trkpt>
      <trkpt lat="45.21534" lon="-0.78231">
        <ele>25</ele>
        <time>2012-08-03T08:58:05Z</time>
      </trkpt>
      <trkpt lat="45.2153" lon="-0.78236">
        <ele>25</ele>
        <time>2012-08-03T08:58:07Z</time>
      </trkpt>
      <trkpt lat="45.21526" lon="-0.78242">
        <ele>24</ele>
        <time>2012-08-03T08:58:09Z</time>
      </trkpt>
      <trkpt lat="45.21523" lon="-0.78248">
        <ele>24</ele>
        <time>2012-08-03T08:58:11Z</time>
      </trkpt>
      <trkpt lat="45.2152" lon="-0.78254">
        <ele>24</ele>
        <time>2012-08-03T08:58:13Z</time>
      </trkpt>
      <trkpt lat="45.21517" lon="-0.7826">
        <ele>25</ele>
        <time>2012-08-03T08:58:15Z</time>
      </trkpt>
      <trkpt lat="45.21514" lon="-0.78267">
        <ele>25</ele>
        <time>2012-08-03T08:58:17Z</time>
      </trkpt>
      <trkpt lat="45.21511" lon="-0.78273">
        <ele>24</ele>
        <time>2012-08-03T08:58:19Z</time>
      </trkpt>
      <trkpt lat="45.21508" lon="-0.7828">
        <ele>24</ele>
        <time>2012-08-03T08:58:21Z</time>
      </trkpt>
      <trkpt lat="45.21505" lon="-0.78286">
        <ele>23</ele>
        <time>2012-08-03T08:58:23Z</time>
      </trkpt>
      <trkpt lat="45.21503" lon="-0.78293">
        <ele>23</ele>
        <time>2012-08-03T08:58:25Z</time>
      </trkpt>
      <trkpt lat="45.215" lon="-0.78299">
        <ele>23</ele>
        <time>2012-08-03T08:58:27Z</time>
      </trkpt>
      <trkpt lat="45.21497" lon="-0.78306">
        <ele>23</ele>
        <time>2012-08-03T08:58:29Z</time>
      </trkpt>
      <trkpt lat="45.21494" lon="-0.78313">
        <ele>23</ele>
        <time>2012-08-03T08:58:32Z</time>
      </trkpt>
      <trkpt lat="45.21492" lon="-0.78319">
        <ele>23</ele>
        <time>2012-08-03T08:58:34Z</time>
      </trkpt>
      <trkpt lat="45.21489" lon="-0.78326">
        <ele>23</ele>
        <time>2012-08-03T08:58:36Z</time>
      </trkpt>
      <trkpt lat="45.21482" lon="-0.78326">
        <ele>24</ele>
        <time>2012-08-03T08:58:38Z</time>
      </trkpt>
      <trkpt lat="45.21478" lon="-0.78322">
        <ele>24</ele>
        <time>2012-08-03T08:58:40Z</time>
      </trkpt>
      <trkpt lat="45.21474" lon="-0.78318">
        <ele>24</ele>
        <time>2012-08-03T08:58:42Z</time>
      </trkpt>
      <trkpt lat="45.2147" lon="-0.78313">
        <ele>25</ele>
        <time>2012-08-03T08:58:44Z</time>
      </trkpt>
      <trkpt lat="45.21466" lon="-0.78308">
        <ele>24</ele>
        <time>2012-08-03T08:58:46Z</time>
      </trkpt>
      <trkpt lat="45.21463" lon="-0.78303">
        <ele>24</ele>
        <time>2012-08-03T08:58:48Z</time>
      </trkpt>
      <trkpt lat="45.21458" lon="-0.78299">
        <ele>24</ele>
        <time>2012-08-03T08:58:50Z</time>
      </trkpt>
      <trkpt lat="45.21454" lon="-0.78294">
        <ele>24</ele>
        <time>2012-08-03T08:58:52Z</time>
      </trkpt>
      <trkpt lat="45.2145" lon="-0.78289">
        <ele>24</ele>
        <time>2012-08-03T08:58:54Z</time>
      </trkpt>
      <trkpt lat="45.21446" lon="-0.78285">
        <ele>24</ele>
        <time>2012-08-03T08:58:56Z</time>
      </trkpt>
      <trkpt lat="45.21442" lon="-0.7828">
        <ele>24</ele>
        <time>2012-08-03T08:58:58Z</time>
      </trkpt>
      <trkpt lat="45.21438" lon="-0.78275">
        <ele>24</ele>
        <time>2012-08-03T08:59:00Z</time>
      </trkpt>
      <trkpt lat="45.21434" lon="-0.7827">
        <ele>25</ele>
        <time>2012-08-03T08:59:02Z</time>
      </trkpt>
      <trkpt lat="45.2143" lon="-0.78264">
        <ele>25</ele>
        <time>2012-08-03T08:59:05Z</time>
      </trkpt>
      <trkpt lat="45.21424" lon="-0.78258">
        <ele>26</ele>
        <time>2012-08-03T08:59:07Z</time>
      </trkpt>
      <trkpt lat="45.2142" lon="-0.78253">
        <ele>27</ele>
        <time>2012-08-03T08:59:09Z</time>
      </trkpt>
      <trkpt lat="45.21415" lon="-0.78248">
        <ele>28</ele>
        <time>2012-08-03T08:59:11Z</time>
      </trkpt>
      <trkpt lat="45.21411" lon="-0.78243">
        <ele>28</ele>
        <time>2012-08-03T08:59:13Z</time>
      </trkpt>
      <trkpt lat="45.21407" lon="-0.78237">
        <ele>29</ele>
        <time>2012-08-03T08:59:15Z</time>
      </trkpt>
      <trkpt lat="45.21403" lon="-0.78233">
        <ele>29</ele>
        <time>2012-08-03T08:59:17Z</time>
      </trkpt>
      <trkpt lat="45.21399" lon="-0.78228">
        <ele>28</ele>
        <time>2012-08-03T08:59:19Z</time>
      </trkpt>
      <trkpt lat="45.21395" lon="-0.78223">
        <ele>28</ele>
        <time>2012-08-03T08:59:22Z</time>
      </trkpt>
      <trkpt lat="45.21389" lon="-0.78215">
        <ele>27</ele>
        <time>2012-08-03T08:59:24Z</time>
      </trkpt>
      <trkpt lat="45.21384" lon="-0.78211">
        <ele>27</ele>
        <time>2012-08-03T08:59:26Z</time>
      </trkpt>
      <trkpt lat="45.2138" lon="-0.78206">
        <ele>27</ele>
        <time>2012-08-03T08:59:28Z</time>
      </trkpt>
      <trkpt lat="45.21376" lon="-0.78201">
        <ele>27</ele>
        <time>2012-08-03T08:59:30Z</time>
      </trkpt>
      <trkpt lat="45.21372" lon="-0.78195">
        <ele>27</ele>
        <time>2012-08-03T08:59:32Z</time>
      </trkpt>
      <trkpt lat="45.21368" lon="-0.7819">
        <ele>26</ele>
        <time>2012-08-03T08:59:34Z</time>
      </trkpt>
      <trkpt lat="45.21364" lon="-0.78185">
        <ele>26</ele>
        <time>2012-08-03T08:59:36Z</time>
      </trkpt>
      <trkpt lat="45.2136" lon="-0.7818">
        <ele>27</ele>
        <time>2012-08-03T08:59:38Z</time>
      </trkpt>
      <trkpt lat="45.21356" lon="-0.78175">
        <ele>27</ele>
        <time>2012-08-03T08:59:40Z</time>
      </trkpt>
      <trkpt lat="45.21352" lon="-0.7817">
        <ele>26</ele>
        <time>2012-08-03T08:59:42Z</time>
      </trkpt>
      <trkpt lat="45.21348" lon="-0.78166">
        <ele>26</ele>
        <time>2012-08-03T08:59:44Z</time>
      </trkpt>
      <trkpt lat="45.21342" lon="-0.78158">
        <ele>25</ele>
        <time>2012-08-03T08:59:47Z</time>
      </trkpt>
      <trkpt lat="45.21338" lon="-0.78153">
        <ele>26</ele>
        <time>2012-08-03T08:59:49Z</time>
      </trkpt>
      <trkpt lat="45.21334" lon="-0.78148">
        <ele>26</ele>
        <time>2012-08-03T08:59:51Z</time>
      </trkpt>
      <trkpt lat="45.2133" lon="-0.78143">
        <ele>26</ele>
        <time>2012-08-03T08:59:53Z</time>
      </trkpt>
      <trkpt lat="45.21326" lon="-0.78138">
        <ele>26</ele>
        <time>2012-08-03T08:59:55Z</time>
      </trkpt>
      <trkpt lat="45.21323" lon="-0.78133">
        <ele>27</ele>
        <time>2012-08-03T08:59:57Z</time>
      </trkpt>
      <trkpt lat="45.21319" lon="-0.78128">
        <ele>27</ele>
        <time>2012-08-03T08:59:59Z</time>
      </trkpt>
      <trkpt lat="45.21315" lon="-0.78123">
        <ele>27</ele>
        <time>2012-08-03T09:00:01Z</time>
      </trkpt>
      <trkpt lat="45.21311" lon="-0.78118">
        <ele>27</ele>
        <time>2012-08-03T09:00:03Z</time>
      </trkpt>
      <trkpt lat="45.21307" lon="-0.78114">
        <ele>28</ele>
        <time>2012-08-03T09:00:05Z</time>
      </trkpt>
      <trkpt lat="45.21302" lon="-0.78112">
        <ele>28</ele>
        <time>2012-08-03T09:00:07Z</time>
      </trkpt>
      <trkpt lat="45.21297" lon="-0.7811">
        <ele>28</ele>
        <time>2012-08-03T09:00:09Z</time>
      </trkpt>
      <trkpt lat="45.21291" lon="-0.78109">
        <ele>28</ele>
        <time>2012-08-03T09:00:11Z</time>
      </trkpt>
      <trkpt lat="45.21286" lon="-0.78109">
        <ele>27</ele>
        <time>2012-08-03T09:00:13Z</time>
      </trkpt>
      <trkpt lat="45.21281" lon="-0.7811">
        <ele>27</ele>
        <time>2012-08-03T09:00:16Z</time>
      </trkpt>
      <trkpt lat="45.21275" lon="-0.78111">
        <ele>27</ele>
        <time>2012-08-03T09:00:18Z</time>
      </trkpt>
      <trkpt lat="45.21267" lon="-0.78114">
        <ele>27</ele>
        <time>2012-08-03T09:00:20Z</time>
      </trkpt>
      <trkpt lat="45.21262" lon="-0.78115">
        <ele>27</ele>
        <time>2012-08-03T09:00:22Z</time>
      </trkpt>
      <trkpt lat="45.21257" lon="-0.78117">
        <ele>27</ele>
        <time>2012-08-03T09:00:24Z</time>
      </trkpt>
      <trkpt lat="45.21252" lon="-0.78119">
        <ele>26</ele>
        <time>2012-08-03T09:00:26Z</time>
      </trkpt>
      <trkpt lat="45.21246" lon="-0.78121">
        <ele>26</ele>
        <time>2012-08-03T09:00:28Z</time>
      </trkpt>
      <trkpt lat="45.21241" lon="-0.78123">
        <ele>26</ele>
        <time>2012-08-03T09:00:30Z</time>
      </trkpt>
      <trkpt lat="45.21235" lon="-0.78124">
        <ele>26</ele>
        <time>2012-08-03T09:00:32Z</time>
      </trkpt>
      <trkpt lat="45.2123" lon="-0.78126">
        <ele>25</ele>
        <time>2012-08-03T09:00:34Z</time>
      </trkpt>
      <trkpt lat="45.21224" lon="-0.78128">
        <ele>25</ele>
        <time>2012-08-03T09:00:36Z</time>
      </trkpt>
      <trkpt lat="45.21219" lon="-0.7813">
        <ele>26</ele>
        <time>2012-08-03T09:00:38Z</time>
      </trkpt>
      <trkpt lat="45.21214" lon="-0.78132">
        <ele>26</ele>
        <time>2012-08-03T09:00:40Z</time>
      </trkpt>
      <trkpt lat="45.21208" lon="-0.78133">
        <ele>26</ele>
        <time>2012-08-03T09:00:42Z</time>
      </trkpt>
      <trkpt lat="45.21203" lon="-0.78134">
        <ele>26</ele>
        <time>2012-08-03T09:00:44Z</time>
      </trkpt>
      <trkpt lat="45.21198" lon="-0.78136">
        <ele>26</ele>
        <time>2012-08-03T09:00:46Z</time>
      </trkpt>
      <trkpt lat="45.21192" lon="-0.78137">
        <ele>27</ele>
        <time>2012-08-03T09:00:48Z</time>
      </trkpt>
      <trkpt lat="45.21187" lon="-0.78139">
        <ele>27</ele>
        <time>2012-08-03T09:00:50Z</time>
      </trkpt>
      <trkpt lat="45.21178" lon="-0.78141">
        <ele>28</ele>
        <time>2012-08-03T09:00:53Z</time>
      </trkpt>
      <trkpt lat="45.21173" lon="-0.78142">
        <ele>28</ele>
        <time>2012-08-03T09:00:55Z</time>
      </trkpt>
      <trkpt lat="45.21167" lon="-0.78145">
        <ele>27</ele>
        <time>2012-08-03T09:00:57Z</time>
      </trkpt>
      <trkpt lat="45.21162" lon="-0.78147">
        <ele>27</ele>
        <time>2012-08-03T09:00:59Z</time>
      </trkpt>
      <trkpt lat="45.21157" lon="-0.78149">
        <ele>27</ele>
        <time>2012-08-03T09:01:01Z</time>
      </trkpt>
      <trkpt lat="45.21151" lon="-0.78151">
        <ele>27</ele>
        <time>2012-08-03T09:01:03Z</time>
      </trkpt>
      <trkpt lat="45.21146" lon="-0.78153">
        <ele>26</ele>
        <time>2012-08-03T09:01:06Z</time>
      </trkpt>
      <trkpt lat="45.21138" lon="-0.78155">
        <ele>26</ele>
        <time>2012-08-03T09:01:08Z</time>
      </trkpt>
      <trkpt lat="45.21132" lon="-0.78156">
        <ele>25</ele>
        <time>2012-08-03T09:01:10Z</time>
      </trkpt>
      <trkpt lat="45.21127" lon="-0.78158">
        <ele>25</ele>
        <time>2012-08-03T09:01:12Z</time>
      </trkpt>
      <trkpt lat="45.21121" lon="-0.78158">
        <ele>25</ele>
        <time>2012-08-03T09:01:14Z</time>
      </trkpt>
      <trkpt lat="45.21115" lon="-0.78158">
        <ele>25</ele>
        <time>2012-08-03T09:01:16Z</time>
      </trkpt>
      <trkpt lat="45.2111" lon="-0.78157">
        <ele>24</ele>
        <time>2012-08-03T09:01:18Z</time>
      </trkpt>
      <trkpt lat="45.21104" lon="-0.78156">
        <ele>24</ele>
        <time>2012-08-03T09:01:20Z</time>
      </trkpt>
      <trkpt lat="45.21099" lon="-0.78154">
        <ele>24</ele>
        <time>2012-08-03T09:01:22Z</time>
      </trkpt>
      <trkpt lat="45.21094" lon="-0.78153">
        <ele>24</ele>
        <time>2012-08-03T09:01:24Z</time>
      </trkpt>
      <trkpt lat="45.21089" lon="-0.7815">
        <ele>24</ele>
        <time>2012-08-03T09:01:26Z</time>
      </trkpt>
      <trkpt lat="45.21084" lon="-0.78148">
        <ele>24</ele>
        <time>2012-08-03T09:01:28Z</time>
      </trkpt>
      <trkpt lat="45.21079" lon="-0.78144">
        <ele>23</ele>
        <time>2012-08-03T09:01:30Z</time>
      </trkpt>
      <trkpt lat="45.21075" lon="-0.7814">
        <ele>23</ele>
        <time>2012-08-03T09:01:32Z</time>
      </trkpt>
      <trkpt lat="45.2107" lon="-0.78136">
        <ele>23</ele>
        <time>2012-08-03T09:01:35Z</time>
      </trkpt>
      <trkpt lat="45.21064" lon="-0.7813">
        <ele>23</ele>
        <time>2012-08-03T09:01:37Z</time>
      </trkpt>
      <trkpt lat="45.21059" lon="-0.78126">
        <ele>23</ele>
        <time>2012-08-03T09:01:39Z</time>
      </trkpt>
      <trkpt lat="45.21055" lon="-0.78122">
        <ele>23</ele>
        <time>2012-08-03T09:01:41Z</time>
      </trkpt>
      <trkpt lat="45.2105" lon="-0.78117">
        <ele>23</ele>
        <time>2012-08-03T09:01:43Z</time>
      </trkpt>
      <trkpt lat="45.21046" lon="-0.78113">
        <ele>23</ele>
        <time>2012-08-03T09:01:45Z</time>
      </trkpt>
      <trkpt lat="45.21041" lon="-0.78109">
        <ele>24</ele>
        <time>2012-08-03T09:01:47Z</time>
      </trkpt>
      <trkpt lat="45.21037" lon="-0.78105">
        <ele>24</ele>
        <time>2012-08-03T09:01:50Z</time>
      </trkpt>
      <trkpt lat="45.2103" lon="-0.781">
        <ele>25</ele>
        <time>2012-08-03T09:01:52Z</time>
      </trkpt>
      <trkpt lat="45.21026" lon="-0.78096">
        <ele>25</ele>
        <time>2012-08-03T09:01:54Z</time>
      </trkpt>
      <trkpt lat="45.21024" lon="-0.78095">
        <ele>25</ele>
        <time>2012-08-03T09:01:56Z</time>
      </trkpt>
      <trkpt lat="45.2102" lon="-0.78093">
        <ele>25</ele>
        <time>2012-08-03T09:01:58Z</time>
      </trkpt>
      <trkpt lat="45.21015" lon="-0.78092">
        <ele>24</ele>
        <time>2012-08-03T09:02:00Z</time>
      </trkpt>
      <trkpt lat="45.2101" lon="-0.78093">
        <ele>24</ele>
        <time>2012-08-03T09:02:02Z</time>
      </trkpt>
      <trkpt lat="45.21001" lon="-0.78095">
        <ele>24</ele>
        <time>2012-08-03T09:02:05Z</time>
      </trkpt>
      <trkpt lat="45.20995" lon="-0.78096">
        <ele>24</ele>
        <time>2012-08-03T09:02:07Z</time>
      </trkpt>
      <trkpt lat="45.2099" lon="-0.78097">
        <ele>24</ele>
        <time>2012-08-03T09:02:09Z</time>
      </trkpt>
      <trkpt lat="45.20984" lon="-0.78097">
        <ele>24</ele>
        <time>2012-08-03T09:02:11Z</time>
      </trkpt>
      <trkpt lat="45.20979" lon="-0.78097">
        <ele>24</ele>
        <time>2012-08-03T09:02:13Z</time>
      </trkpt>
      <trkpt lat="45.20973" lon="-0.78097">
        <ele>24</ele>
        <time>2012-08-03T09:02:15Z</time>
      </trkpt>
      <trkpt lat="45.20967" lon="-0.78097">
        <ele>24</ele>
        <time>2012-08-03T09:02:17Z</time>
      </trkpt>
      <trkpt lat="45.20961" lon="-0.78097">
        <ele>24</ele>
        <time>2012-08-03T09:02:20Z</time>
      </trkpt>
      <trkpt lat="45.20953" lon="-0.78098">
        <ele>23</ele>
        <time>2012-08-03T09:02:22Z</time>
      </trkpt>
      <trkpt lat="45.20947" lon="-0.78098">
        <ele>23</ele>
        <time>2012-08-03T09:02:24Z</time>
      </trkpt>
      <trkpt lat="45.20941" lon="-0.78097">
        <ele>23</ele>
        <time>2012-08-03T09:02:26Z</time>
      </trkpt>
      <trkpt lat="45.20935" lon="-0.78097">
        <ele>22</ele>
        <time>2012-08-03T09:02:28Z</time>
      </trkpt>
      <trkpt lat="45.20929" lon="-0.78097">
        <ele>22</ele>
        <time>2012-08-03T09:02:30Z</time>
      </trkpt>
      <trkpt lat="45.20923" lon="-0.78097">
        <ele>22</ele>
        <time>2012-08-03T09:02:32Z</time>
      </trkpt>
      <trkpt lat="45.20918" lon="-0.78097">
        <ele>23</ele>
        <time>2012-08-03T09:02:34Z</time>
      </trkpt>
      <trkpt lat="45.20911" lon="-0.78097">
        <ele>23</ele>
        <time>2012-08-03T09:02:36Z</time>
      </trkpt>
      <trkpt lat="45.20906" lon="-0.78097">
        <ele>23</ele>
        <time>2012-08-03T09:02:38Z</time>
      </trkpt>
      <trkpt lat="45.209" lon="-0.78097">
        <ele>24</ele>
        <time>2012-08-03T09:02:40Z</time>
      </trkpt>
      <trkpt lat="45.20894" lon="-0.78097">
        <ele>24</ele>
        <time>2012-08-03T09:02:42Z</time>
      </trkpt>
      <trkpt lat="45.20888" lon="-0.78097">
        <ele>24</ele>
        <time>2012-08-03T09:02:44Z</time>
      </trkpt>
      <trkpt lat="45.20882" lon="-0.78098">
        <ele>24</ele>
        <time>2012-08-03T09:02:47Z</time>
      </trkpt>
      <trkpt lat="45.20876" lon="-0.78097">
        <ele>23</ele>
        <time>2012-08-03T09:02:49Z</time>
      </trkpt>
      <trkpt lat="45.20871" lon="-0.78097">
        <ele>23</ele>
        <time>2012-08-03T09:02:51Z</time>
      </trkpt>
      <trkpt lat="45.20862" lon="-0.78097">
        <ele>23</ele>
        <time>2012-08-03T09:02:53Z</time>
      </trkpt>
      <trkpt lat="45.20856" lon="-0.78097">
        <ele>23</ele>
        <time>2012-08-03T09:02:55Z</time>
      </trkpt>
      <trkpt lat="45.2085" lon="-0.78097">
        <ele>22</ele>
        <time>2012-08-03T09:02:57Z</time>
      </trkpt>
      <trkpt lat="45.20845" lon="-0.78097">
        <ele>22</ele>
        <time>2012-08-03T09:02:59Z</time>
      </trkpt>
      <trkpt lat="45.20839" lon="-0.78096">
        <ele>21</ele>
        <time>2012-08-03T09:03:01Z</time>
      </trkpt>
      <trkpt lat="45.20834" lon="-0.78097">
        <ele>21</ele>
        <time>2012-08-03T09:03:03Z</time>
      </trkpt>
      <trkpt lat="45.20828" lon="-0.78097">
        <ele>21</ele>
        <time>2012-08-03T09:03:05Z</time>
      </trkpt>
      <trkpt lat="45.2082" lon="-0.78097">
        <ele>21</ele>
        <time>2012-08-03T09:03:08Z</time>
      </trkpt>
      <trkpt lat="45.20814" lon="-0.78097">
        <ele>21</ele>
        <time>2012-08-03T09:03:10Z</time>
      </trkpt>
      <trkpt lat="45.20808" lon="-0.78097">
        <ele>21</ele>
        <time>2012-08-03T09:03:12Z</time>
      </trkpt>
      <trkpt lat="45.20803" lon="-0.78097">
        <ele>22</ele>
        <time>2012-08-03T09:03:14Z</time>
      </trkpt>
      <trkpt lat="45.20797" lon="-0.78097">
        <ele>21</ele>
        <time>2012-08-03T09:03:16Z</time>
      </trkpt>
      <trkpt lat="45.20792" lon="-0.78097">
        <ele>22</ele>
        <time>2012-08-03T09:03:18Z</time>
      </trkpt>
      <trkpt lat="45.20786" lon="-0.78097">
        <ele>21</ele>
        <time>2012-08-03T09:03:20Z</time>
      </trkpt>
      <trkpt lat="45.20779" lon="-0.78097">
        <ele>21</ele>
        <time>2012-08-03T09:03:23Z</time>
      </trkpt>
      <trkpt lat="45.20774" lon="-0.78097">
        <ele>21</ele>
        <time>2012-08-03T09:03:25Z</time>
      </trkpt>
      <trkpt lat="45.20772" lon="-0.78097">
        <ele>21</ele>
        <time>2012-08-03T09:03:27Z</time>
      </trkpt>
      <trkpt lat="45.20771" lon="-0.78096">
        <ele>21</ele>
        <time>2012-08-03T09:03:29Z</time>
      </trkpt>
      <trkpt lat="45.20768" lon="-0.78096">
        <ele>21</ele>
        <time>2012-08-03T09:03:31Z</time>
      </trkpt>
      <trkpt lat="45.20726" lon="-0.78415">
        <ele>22</ele>
        <time>2012-08-03T09:03:33Z</time>
      </trkpt>
      <trkpt lat="45.20726" lon="-0.78419">
        <ele>23</ele>
        <time>2012-08-03T09:03:35Z</time>
      </trkpt>
      <trkpt lat="45.20726" lon="-0.78423">
        <ele>22</ele>
        <time>2012-08-03T09:03:37Z</time>
      </trkpt>
      <trkpt lat="45.20726" lon="-0.78427">
        <ele>22</ele>
        <time>2012-08-03T09:03:39Z</time>
      </trkpt>
      <trkpt lat="45.20726" lon="-0.78431">
        <ele>23</ele>
        <time>2012-08-03T09:03:41Z</time>
      </trkpt>
      <trkpt lat="45.20726" lon="-0.78437">
        <ele>22</ele>
        <time>2012-08-03T09:03:43Z</time>
      </trkpt>
      <trkpt lat="45.20726" lon="-0.78441">
        <ele>23</ele>
        <time>2012-08-03T09:03:45Z</time>
      </trkpt>
      <trkpt lat="45.20726" lon="-0.78444">
        <ele>22</ele>
        <time>2012-08-03T09:03:47Z</time>
      </trkpt>
      <trkpt lat="45.20726" lon="-0.78448">
        <ele>22</ele>
        <time>2012-08-03T09:03:49Z</time>
      </trkpt>
      <trkpt lat="45.20726" lon="-0.78452">
        <ele>23</ele>
        <time>2012-08-03T09:03:51Z</time>
      </trkpt>
      <trkpt lat="45.20726" lon="-0.78456">
        <ele>22</ele>
        <time>2012-08-03T09:03:53Z</time>
      </trkpt>
      <trkpt lat="45.20726" lon="-0.7846">
        <ele>22</ele>
        <time>2012-08-03T09:03:56Z</time>
      </trkpt>
      <trkpt lat="45.20726" lon="-0.78464">
        <ele>22</ele>
        <time>2012-08-03T09:03:58Z</time>
      </trkpt>
      <trkpt lat="45.20726" lon="-0.78467">
        <ele>22</ele>
        <time>2012-08-03T09:04:00Z</time>
      </trkpt>
      <trkpt lat="45.20727" lon="-0.78471">
        <ele>22</ele>
        <time>2012-08-03T09:04:02Z</time>
      </trkpt>
      <trkpt lat="45.20727" lon="-0.78474">
        <ele>22</ele>
        <time>2012-08-03T09:04:04Z</time>
      </trkpt>
      <trkpt lat="45.20727" lon="-0.78478">
        <ele>22</ele>
        <time>2012-08-03T09:04:06Z</time>
      </trkpt>
      <trkpt lat="45.20728" lon="-0.78483">
        <ele>22</ele>
        <time>2012-08-03T09:04:08Z</time>
      </trkpt>
      <trkpt lat="45.20728" lon="-0.78486">
        <ele>22</ele>
        <time>2012-08-03T09:04:10Z</time>
      </trkpt>
      <trkpt lat="45.20728" lon="-0.7849">
        <ele>22</ele>
        <time>2012-08-03T09:04:12Z</time>
      </trkpt>
      <trkpt lat="45.20729" lon="-0.78495">
        <ele>22</ele>
        <time>2012-08-03T09:04:14Z</time>
      </trkpt>
      <trkpt lat="45.20729" lon="-0.785">
        <ele>22</ele>
        <time>2012-08-03T09:04:16Z</time>
      </trkpt>
      <trkpt lat="45.20729" lon="-0.78504">
        <ele>22</ele>
        <time>2012-08-03T09:04:18Z</time>
      </trkpt>
      <trkpt lat="45.20728" lon="-0.78508">
        <ele>22</ele>
        <time>2012-08-03T09:04:20Z</time>
      </trkpt>
      <trkpt lat="45.20728" lon="-0.78512">
        <ele>22</ele>
        <time>2012-08-03T09:04:22Z</time>
      </trkpt>
      <trkpt lat="45.20728" lon="-0.78516">
        <ele>22</ele>
        <time>2012-08-03T09:04:25Z</time>
      </trkpt>
      <trkpt lat="45.20727" lon="-0.78519">
        <ele>22</ele>
        <time>2012-08-03T09:04:27Z</time>
      </trkpt>
      <trkpt lat="45.20727" lon="-0.78523">
        <ele>22</ele>
        <time>2012-08-03T09:04:29Z</time>
      </trkpt>
      <trkpt lat="45.20726" lon="-0.78527">
        <ele>22</ele>
        <time>2012-08-03T09:04:31Z</time>
      </trkpt>
      <trkpt lat="45.20724" lon="-0.7853">
        <ele>22</ele>
        <time>2012-08-03T09:04:33Z</time>
      </trkpt>
      <trkpt lat="45.20723" lon="-0.78533">
        <ele>22</ele>
        <time>2012-08-03T09:04:35Z</time>
      </trkpt>
      <trkpt lat="45.20721" lon="-0.78538">
        <ele>22</ele>
        <time>2012-08-03T09:04:37Z</time>
      </trkpt>
      <trkpt lat="45.2072" lon="-0.78541">
        <ele>23</ele>
        <time>2012-08-03T09:04:39Z</time>
      </trkpt>
      <trkpt lat="45.20718" lon="-0.78544">
        <ele>23</ele>
        <time>2012-08-03T09:04:41Z</time>
      </trkpt>
      <trkpt lat="45.20717" lon="-0.78548">
        <ele>22</ele>
        <time>2012-08-03T09:04:44Z</time>
      </trkpt>
      <trkpt lat="45.20715" lon="-0.78552">
        <ele>22</ele>
        <time>2012-08-03T09:04:46Z</time>
      </trkpt>
      <trkpt lat="45.20714" lon="-0.78555">
        <ele>22</ele>
        <time>2012-08-03T09:04:48Z</time>
      </trkpt>
      <trkpt lat="45.20713" lon="-0.78558">
        <ele>22</ele>
        <time>2012-08-03T09:04:50Z</time>
      </trkpt>
      <trkpt lat="45.20711" lon="-0.78561">
        <ele>22</ele>
        <time>2012-08-03T09:04:52Z</time>
      </trkpt>
      <trkpt lat="45.2071" lon="-0.78563">
        <ele>22</ele>
        <time>2012-08-03T09:04:54Z</time>
      </trkpt>
      <trkpt lat="45.20709" lon="-0.78567">
        <ele>22</ele>
        <time>2012-08-03T09:04:56Z</time>
      </trkpt>
      <trkpt lat="45.20707" lon="-0.78572">
        <ele>22</ele>
        <time>2012-08-03T09:04:58Z</time>
      </trkpt>
      <trkpt lat="45.20705" lon="-0.78576">
        <ele>22</ele>
        <time>2012-08-03T09:05:00Z</time>
      </trkpt>
      <trkpt lat="45.20704" lon="-0.78579">
        <ele>22</ele>
        <time>2012-08-03T09:05:02Z</time>
      </trkpt>
      <trkpt lat="45.20702" lon="-0.78582">
        <ele>22</ele>
        <time>2012-08-03T09:05:04Z</time>
      </trkpt>
      <trkpt lat="45.20701" lon="-0.78586">
        <ele>22</ele>
        <time>2012-08-03T09:05:07Z</time>
      </trkpt>
      <trkpt lat="45.20699" lon="-0.78589">
        <ele>21</ele>
        <time>2012-08-03T09:05:09Z</time>
      </trkpt>
      <trkpt lat="45.20698" lon="-0.78592">
        <ele>22</ele>
        <time>2012-08-03T09:05:11Z</time>
      </trkpt>
      <trkpt lat="45.20697" lon="-0.78596">
        <ele>22</ele>
        <time>2012-08-03T09:05:13Z</time>
      </trkpt>
      <trkpt lat="45.20696" lon="-0.786">
        <ele>22</ele>
        <time>2012-08-03T09:05:15Z</time>
      </trkpt>
      <trkpt lat="45.20694" lon="-0.78603">
        <ele>22</ele>
        <time>2012-08-03T09:05:17Z</time>
      </trkpt>
      <trkpt lat="45.20693" lon="-0.78606">
        <ele>21</ele>
        <time>2012-08-03T09:05:19Z</time>
      </trkpt>
      <trkpt lat="45.20691" lon="-0.78611">
        <ele>21</ele>
        <time>2012-08-03T09:05:21Z</time>
      </trkpt>
      <trkpt lat="45.20689" lon="-0.78614">
        <ele>22</ele>
        <time>2012-08-03T09:05:23Z</time>
      </trkpt>
      <trkpt lat="45.20688" lon="-0.78617">
        <ele>22</ele>
        <time>2012-08-03T09:05:25Z</time>
      </trkpt>
      <trkpt lat="45.20686" lon="-0.78621">
        <ele>22</ele>
        <time>2012-08-03T09:05:27Z</time>
      </trkpt>
      <trkpt lat="45.20684" lon="-0.78624">
        <ele>22</ele>
        <time>2012-08-03T09:05:29Z</time>
      </trkpt>
      <trkpt lat="45.20683" lon="-0.78627">
        <ele>22</ele>
        <time>2012-08-03T09:05:31Z</time>
      </trkpt>
      <trkpt lat="45.20681" lon="-0.7863">
        <ele>22</ele>
        <time>2012-08-03T09:05:33Z</time>
      </trkpt>
      <trkpt lat="45.20679" lon="-0.78633">
        <ele>22</ele>
        <time>2012-08-03T09:05:35Z</time>
      </trkpt>
      <trkpt lat="45.20678" lon="-0.78635">
        <ele>22</ele>
        <time>2012-08-03T09:05:37Z</time>
      </trkpt>
      <trkpt lat="45.20676" lon="-0.78637">
        <ele>22</ele>
        <time>2012-08-03T09:05:40Z</time>
      </trkpt>
      <trkpt lat="45.20674" lon="-0.7864">
        <ele>22</ele>
        <time>2012-08-03T09:05:42Z</time>
      </trkpt>
      <trkpt lat="45.20672" lon="-0.78642">
        <ele>22</ele>
        <time>2012-08-03T09:05:44Z</time>
      </trkpt>
      <trkpt lat="45.2067" lon="-0.78645">
        <ele>22</ele>
        <time>2012-08-03T09:05:46Z</time>
      </trkpt>
      <trkpt lat="45.20668" lon="-0.78648">
        <ele>22</ele>
        <time>2012-08-03T09:05:48Z</time>
      </trkpt>
      <trkpt lat="45.20665" lon="-0.78651">
        <ele>21</ele>
        <time>2012-08-03T09:05:50Z</time>
      </trkpt>
      <trkpt lat="45.20663" lon="-0.78654">
        <ele>21</ele>
        <time>2012-08-03T09:05:52Z</time>
      </trkpt>
      <trkpt lat="45.20662" lon="-0.78658">
        <ele>21</ele>
        <time>2012-08-03T09:05:54Z</time>
      </trkpt>
      <trkpt lat="45.20661" lon="-0.78662">
        <ele>21</ele>
        <time>2012-08-03T09:05:56Z</time>
      </trkpt>
      <trkpt lat="45.20659" lon="-0.78665">
        <ele>21</ele>
        <time>2012-08-03T09:05:58Z</time>
      </trkpt>
      <trkpt lat="45.20658" lon="-0.78669">
        <ele>21</ele>
        <time>2012-08-03T09:06:00Z</time>
      </trkpt>
      <trkpt lat="45.20657" lon="-0.78673">
        <ele>21</ele>
        <time>2012-08-03T09:06:02Z</time>
      </trkpt>
      <trkpt lat="45.20656" lon="-0.78677">
        <ele>21</ele>
        <time>2012-08-03T09:06:04Z</time>
      </trkpt>
      <trkpt lat="45.20653" lon="-0.78683">
        <ele>21</ele>
        <time>2012-08-03T09:06:06Z</time>
      </trkpt>
      <trkpt lat="45.20652" lon="-0.78687">
        <ele>21</ele>
        <time>2012-08-03T09:06:08Z</time>
      </trkpt>
      <trkpt lat="45.2065" lon="-0.7869">
        <ele>21</ele>
        <time>2012-08-03T09:06:10Z</time>
      </trkpt>
      <trkpt lat="45.20649" lon="-0.78693">
        <ele>21</ele>
        <time>2012-08-03T09:06:12Z</time>
      </trkpt>
      <trkpt lat="45.20647" lon="-0.78696">
        <ele>21</ele>
        <time>2012-08-03T09:06:14Z</time>
      </trkpt>
      <trkpt lat="45.20645" lon="-0.78699">
        <ele>20</ele>
        <time>2012-08-03T09:06:17Z</time>
      </trkpt>
      <trkpt lat="45.20643" lon="-0.78702">
        <ele>20</ele>
        <time>2012-08-03T09:06:19Z</time>
      </trkpt>
      <trkpt lat="45.20641" lon="-0.78705">
        <ele>20</ele>
        <time>2012-08-03T09:06:21Z</time>
      </trkpt>
      <trkpt lat="45.20639" lon="-0.78708">
        <ele>20</ele>
        <time>2012-08-03T09:06:23Z</time>
      </trkpt>
      <trkpt lat="45.20638" lon="-0.78712">
        <ele>21</ele>
        <time>2012-08-03T09:06:25Z</time>
      </trkpt>
      <trkpt lat="45.20637" lon="-0.78715">
        <ele>21</ele>
        <time>2012-08-03T09:06:27Z</time>
      </trkpt>
      <trkpt lat="45.20636" lon="-0.78718">
        <ele>20</ele>
        <time>2012-08-03T09:06:29Z</time>
      </trkpt>
      <trkpt lat="45.20635" lon="-0.78721">
        <ele>20</ele>
        <time>2012-08-03T09:06:31Z</time>
      </trkpt>
      <trkpt lat="45.20635" lon="-0.78724">
        <ele>20</ele>
        <time>2012-08-03T09:06:33Z</time>
      </trkpt>
      <trkpt lat="45.20634" lon="-0.78728">
        <ele>20</ele>
        <time>2012-08-03T09:06:35Z</time>
      </trkpt>
      <trkpt lat="45.20633" lon="-0.78732">
        <ele>20</ele>
        <time>2012-08-03T09:06:37Z</time>
      </trkpt>
      <trkpt lat="45.20631" lon="-0.78737">
        <ele>20</ele>
        <time>2012-08-03T09:06:39Z</time>
      </trkpt>
      <trkpt lat="45.20629" lon="-0.7874">
        <ele>20</ele>
        <time>2012-08-03T09:06:41Z</time>
      </trkpt>
      <trkpt lat="45.20627" lon="-0.78743">
        <ele>20</ele>
        <time>2012-08-03T09:06:43Z</time>
      </trkpt>
      <trkpt lat="45.20625" lon="-0.78747">
        <ele>20</ele>
        <time>2012-08-03T09:06:46Z</time>
      </trkpt>
      <trkpt lat="45.20624" lon="-0.7875">
        <ele>20</ele>
        <time>2012-08-03T09:06:48Z</time>
      </trkpt>
      <trkpt lat="45.20623" lon="-0.78753">
        <ele>20</ele>
        <time>2012-08-03T09:06:50Z</time>
      </trkpt>
      <trkpt lat="45.20622" lon="-0.78756">
        <ele>20</ele>
        <time>2012-08-03T09:06:52Z</time>
      </trkpt>
      <trkpt lat="45.20619" lon="-0.78762">
        <ele>20</ele>
        <time>2012-08-03T09:06:54Z</time>
      </trkpt>
      <trkpt lat="45.20617" lon="-0.78765">
        <ele>20</ele>
        <time>2012-08-03T09:06:56Z</time>
      </trkpt>
      <trkpt lat="45.20615" lon="-0.78769">
        <ele>20</ele>
        <time>2012-08-03T09:06:58Z</time>
      </trkpt>
      <trkpt lat="45.20613" lon="-0.78771">
        <ele>20</ele>
        <time>2012-08-03T09:07:00Z</time>
      </trkpt>
      <trkpt lat="45.20611" lon="-0.78773">
        <ele>19</ele>
        <time>2012-08-03T09:07:02Z</time>
      </trkpt>
      <trkpt lat="45.20609" lon="-0.78774">
        <ele>19</ele>
        <time>2012-08-03T09:07:05Z</time>
      </trkpt>
      <trkpt lat="45.20607" lon="-0.78776">
        <ele>19</ele>
        <time>2012-08-03T09:07:07Z</time>
      </trkpt>
      <trkpt lat="45.20605" lon="-0.78777">
        <ele>19</ele>
        <time>2012-08-03T09:07:09Z</time>
      </trkpt>
      <trkpt lat="45.20603" lon="-0.78778">
        <ele>19</ele>
        <time>2012-08-03T09:07:11Z</time>
      </trkpt>
      <trkpt lat="45.20601" lon="-0.78779">
        <ele>19</ele>
        <time>2012-08-03T09:07:13Z</time>
      </trkpt>
      <trkpt lat="45.20598" lon="-0.78781">
        <ele>20</ele>
        <time>2012-08-03T09:07:15Z</time>
      </trkpt>
      <trkpt lat="45.20596" lon="-0.78783">
        <ele>20</ele>
        <time>2012-08-03T09:07:17Z</time>
      </trkpt>
      <trkpt lat="45.20594" lon="-0.78785">
        <ele>20</ele>
        <time>2012-08-03T09:07:19Z</time>
      </trkpt>
      <trkpt lat="45.20592" lon="-0.78787">
        <ele>20</ele>
        <time>2012-08-03T09:07:21Z</time>
      </trkpt>
      <trkpt lat="45.20591" lon="-0.78789">
        <ele>20</ele>
        <time>2012-08-03T09:07:23Z</time>
      </trkpt>
      <trkpt lat="45.20589" lon="-0.78791">
        <ele>20</ele>
        <time>2012-08-03T09:07:25Z</time>
      </trkpt>
      <trkpt lat="45.20586" lon="-0.78793">
        <ele>20</ele>
        <time>2012-08-03T09:07:27Z</time>
      </trkpt>
      <trkpt lat="45.20584" lon="-0.78795">
        <ele>20</ele>
        <time>2012-08-03T09:07:29Z</time>
      </trkpt>
      <trkpt lat="45.20582" lon="-0.78797">
        <ele>20</ele>
        <time>2012-08-03T09:07:31Z</time>
      </trkpt>
      <trkpt lat="45.20579" lon="-0.78801">
        <ele>20</ele>
        <time>2012-08-03T09:07:33Z</time>
      </trkpt>
      <trkpt lat="45.20577" lon="-0.78805">
        <ele>20</ele>
        <time>2012-08-03T09:07:35Z</time>
      </trkpt>
      <trkpt lat="45.20576" lon="-0.78808">
        <ele>20</ele>
        <time>2012-08-03T09:07:37Z</time>
      </trkpt>
      <trkpt lat="45.20575" lon="-0.78812">
        <ele>20</ele>
        <time>2012-08-03T09:07:39Z</time>
      </trkpt>
      <trkpt lat="45.20573" lon="-0.78816">
        <ele>20</ele>
        <time>2012-08-03T09:07:42Z</time>
      </trkpt>
      <trkpt lat="45.20573" lon="-0.7882">
        <ele>20</ele>
        <time>2012-08-03T09:07:44Z</time>
      </trkpt>
      <trkpt lat="45.20573" lon="-0.78824">
        <ele>20</ele>
        <time>2012-08-03T09:07:46Z</time>
      </trkpt>
      <trkpt lat="45.20573" lon="-0.78827">
        <ele>20</ele>
        <time>2012-08-03T09:07:48Z</time>
      </trkpt>
      <trkpt lat="45.20573" lon="-0.78832">
        <ele>20</ele>
        <time>2012-08-03T09:07:50Z</time>
      </trkpt>
      <trkpt lat="45.20573" lon="-0.78836">
        <ele>20</ele>
        <time>2012-08-03T09:07:52Z</time>
      </trkpt>
      <trkpt lat="45.20573" lon="-0.7884">
        <ele>19</ele>
        <time>2012-08-03T09:07:54Z</time>
      </trkpt>
      <trkpt lat="45.20573" lon="-0.78846">
        <ele>20</ele>
        <time>2012-08-03T09:07:56Z</time>
      </trkpt>
      <trkpt lat="45.20572" lon="-0.78852">
        <ele>20</ele>
        <time>2012-08-03T09:07:58Z</time>
      </trkpt>
      <trkpt lat="45.20572" lon="-0.78856">
        <ele>20</ele>
        <time>2012-08-03T09:08:00Z</time>
      </trkpt>
      <trkpt lat="45.20572" lon="-0.7886">
        <ele>20</ele>
        <time>2012-08-03T09:08:02Z</time>
      </trkpt>
      <trkpt lat="45.20572" lon="-0.78863">
        <ele>20</ele>
        <time>2012-08-03T09:08:04Z</time>
      </trkpt>
      <trkpt lat="45.20572" lon="-0.78866">
        <ele>20</ele>
        <time>2012-08-03T09:08:06Z</time>
      </trkpt>
      <trkpt lat="45.20571" lon="-0.78869">
        <ele>20</ele>
        <time>2012-08-03T09:08:09Z</time>
      </trkpt>
      <trkpt lat="45.20571" lon="-0.78873">
        <ele>20</ele>
        <time>2012-08-03T09:08:11Z</time>
      </trkpt>
      <trkpt lat="45.20571" lon="-0.78876">
        <ele>20</ele>
        <time>2012-08-03T09:08:13Z</time>
      </trkpt>
      <trkpt lat="45.2057" lon="-0.78879">
        <ele>20</ele>
        <time>2012-08-03T09:08:15Z</time>
      </trkpt>
      <trkpt lat="45.2057" lon="-0.78883">
        <ele>20</ele>
        <time>2012-08-03T09:08:17Z</time>
      </trkpt>
      <trkpt lat="45.2057" lon="-0.78886">
        <ele>20</ele>
        <time>2012-08-03T09:08:19Z</time>
      </trkpt>
      <trkpt lat="45.20571" lon="-0.78891">
        <ele>20</ele>
        <time>2012-08-03T09:08:21Z</time>
      </trkpt>
      <trkpt lat="45.20572" lon="-0.78895">
        <ele>20</ele>
        <time>2012-08-03T09:08:23Z</time>
      </trkpt>
      <trkpt lat="45.20572" lon="-0.78899">
        <ele>20</ele>
        <time>2012-08-03T09:08:25Z</time>
      </trkpt>
      <trkpt lat="45.20572" lon="-0.78902">
        <ele>20</ele>
        <time>2012-08-03T09:08:27Z</time>
      </trkpt>
      <trkpt lat="45.20573" lon="-0.78906">
        <ele>20</ele>
        <time>2012-08-03T09:08:29Z</time>
      </trkpt>
      <trkpt lat="45.20572" lon="-0.7891">
        <ele>21</ele>
        <time>2012-08-03T09:08:31Z</time>
      </trkpt>
      <trkpt lat="45.2057" lon="-0.78912">
        <ele>20</ele>
        <time>2012-08-03T09:08:33Z</time>
      </trkpt>
      <trkpt lat="45.20568" lon="-0.78913">
        <ele>21</ele>
        <time>2012-08-03T09:08:35Z</time>
      </trkpt>
      <trkpt lat="45.20565" lon="-0.78914">
        <ele>20</ele>
        <time>2012-08-03T09:08:37Z</time>
      </trkpt>
      <trkpt lat="45.20562" lon="-0.78914">
        <ele>20</ele>
        <time>2012-08-03T09:08:39Z</time>
      </trkpt>
      <trkpt lat="45.20559" lon="-0.78914">
        <ele>20</ele>
        <time>2012-08-03T09:08:41Z</time>
      </trkpt>
      <trkpt lat="45.20557" lon="-0.78913">
        <ele>20</ele>
        <time>2012-08-03T09:08:43Z</time>
      </trkpt>
      <trkpt lat="45.20555" lon="-0.78912">
        <ele>19</ele>
        <time>2012-08-03T09:08:46Z</time>
      </trkpt>
      <trkpt lat="45.20552" lon="-0.7891">
        <ele>19</ele>
        <time>2012-08-03T09:08:48Z</time>
      </trkpt>
      <trkpt lat="45.2055" lon="-0.7891">
        <ele>19</ele>
        <time>2012-08-03T09:08:50Z</time>
      </trkpt>
      <trkpt lat="45.20546" lon="-0.78909">
        <ele>19</ele>
        <time>2012-08-03T09:08:52Z</time>
      </trkpt>
      <trkpt lat="45.20543" lon="-0.78908">
        <ele>19</ele>
        <time>2012-08-03T09:08:54Z</time>
      </trkpt>
      <trkpt lat="45.20541" lon="-0.78908">
        <ele>19</ele>
        <time>2012-08-03T09:08:56Z</time>
      </trkpt>
      <trkpt lat="45.20538" lon="-0.78908">
        <ele>19</ele>
        <time>2012-08-03T09:08:58Z</time>
      </trkpt>
      <trkpt lat="45.20536" lon="-0.78908">
        <ele>19</ele>
        <time>2012-08-03T09:09:00Z</time>
      </trkpt>
      <trkpt lat="45.20533" lon="-0.78908">
        <ele>19</ele>
        <time>2012-08-03T09:09:02Z</time>
      </trkpt>
      <trkpt lat="45.2053" lon="-0.78907">
        <ele>19</ele>
        <time>2012-08-03T09:09:04Z</time>
      </trkpt>
      <trkpt lat="45.20528" lon="-0.78907">
        <ele>19</ele>
        <time>2012-08-03T09:09:07Z</time>
      </trkpt>
      <trkpt lat="45.20525" lon="-0.78907">
        <ele>19</ele>
        <time>2012-08-03T09:09:09Z</time>
      </trkpt>
      <trkpt lat="45.20522" lon="-0.78906">
        <ele>18</ele>
        <time>2012-08-03T09:09:11Z</time>
      </trkpt>
      <trkpt lat="45.2052" lon="-0.78906">
        <ele>18</ele>
        <time>2012-08-03T09:09:13Z</time>
      </trkpt>
      <trkpt lat="45.20517" lon="-0.78906">
        <ele>18</ele>
        <time>2012-08-03T09:09:15Z</time>
      </trkpt>
      <trkpt lat="45.20515" lon="-0.78904">
        <ele>18</ele>
        <time>2012-08-03T09:09:17Z</time>
      </trkpt>
      <trkpt lat="45.2051" lon="-0.78903">
        <ele>18</ele>
        <time>2012-08-03T09:09:19Z</time>
      </trkpt>
      <trkpt lat="45.20508" lon="-0.78903">
        <ele>18</ele>
        <time>2012-08-03T09:09:21Z</time>
      </trkpt>
      <trkpt lat="45.20506" lon="-0.78902">
        <ele>18</ele>
        <time>2012-08-03T09:09:23Z</time>
      </trkpt>
      <trkpt lat="45.20503" lon="-0.78901">
        <ele>18</ele>
        <time>2012-08-03T09:09:25Z</time>
      </trkpt>
      <trkpt lat="45.205" lon="-0.78901">
        <ele>18</ele>
        <time>2012-08-03T09:09:27Z</time>
      </trkpt>
      <trkpt lat="45.20498" lon="-0.78902">
        <ele>18</ele>
        <time>2012-08-03T09:09:29Z</time>
      </trkpt>
      <trkpt lat="45.20495" lon="-0.78904">
        <ele>18</ele>
        <time>2012-08-03T09:09:31Z</time>
      </trkpt>
      <trkpt lat="45.20493" lon="-0.78907">
        <ele>18</ele>
        <time>2012-08-03T09:09:33Z</time>
      </trkpt>
      <trkpt lat="45.20492" lon="-0.7891">
        <ele>18</ele>
        <time>2012-08-03T09:09:36Z</time>
      </trkpt>
      <trkpt lat="45.20492" lon="-0.78913">
        <ele>18</ele>
        <time>2012-08-03T09:09:38Z</time>
      </trkpt>
      <trkpt lat="45.20493" lon="-0.78917">
        <ele>18</ele>
        <time>2012-08-03T09:09:40Z</time>
      </trkpt>
      <trkpt lat="45.20493" lon="-0.78921">
        <ele>18</ele>
        <time>2012-08-03T09:09:42Z</time>
      </trkpt>
      <trkpt lat="45.20494" lon="-0.78925">
        <ele>18</ele>
        <time>2012-08-03T09:09:44Z</time>
      </trkpt>
      <trkpt lat="45.20496" lon="-0.7893">
        <ele>18</ele>
        <time>2012-08-03T09:09:46Z</time>
      </trkpt>
      <trkpt lat="45.20496" lon="-0.78932">
        <ele>18</ele>
        <time>2012-08-03T09:09:48Z</time>
      </trkpt>
      <trkpt lat="45.20497" lon="-0.78932">
        <ele>17</ele>
        <time>2012-08-03T09:09:50Z</time>
      </trkpt>
      <trkpt lat="45.20498" lon="-0.78932">
        <ele>17</ele>
        <time>2012-08-03T09:09:53Z</time>
      </trkpt>
      <trkpt lat="45.20499" lon="-0.78932">
        <ele>17</ele>
        <time>2012-08-03T09:09:55Z</time>
      </trkpt>
      <trkpt lat="45.20499" lon="-0.78932">
        <ele>17</ele>
        <time>2012-08-03T09:09:57Z</time>
      </trkpt>
      <trkpt lat="45.20498" lon="-0.78933">
        <ele>17</ele>
        <time>2012-08-03T09:09:59Z</time>
      </trkpt>
      <trkpt lat="45.20498" lon="-0.78933">
        <ele>17</ele>
        <time>2012-08-03T09:10:01Z</time>
      </trkpt>
      <trkpt lat="45.20497" lon="-0.78933">
        <ele>17</ele>
        <time>2012-08-03T09:10:03Z</time>
      </trkpt>
      <trkpt lat="45.20497" lon="-0.78934">
        <ele>17</ele>
        <time>2012-08-03T09:10:06Z</time>
      </trkpt>
      <trkpt lat="45.20497" lon="-0.78934">
        <ele>17</ele>
        <time>2012-08-03T09:10:08Z</time>
      </trkpt>
      <trkpt lat="45.20498" lon="-0.78934">
        <ele>17</ele>
        <time>2012-08-03T09:10:10Z</time>
      </trkpt>
      <trkpt lat="45.20498" lon="-0.78935">
        <ele>17</ele>
        <time>2012-08-03T09:10:12Z</time>
      </trkpt>
      <trkpt lat="45.20498" lon="-0.78935">
        <ele>17</ele>
        <time>2012-08-03T09:10:14Z</time>
      </trkpt>
      <trkpt lat="45.20498" lon="-0.78935">
        <ele>17</ele>
        <time>2012-08-03T09:10:16Z</time>
      </trkpt>
      <trkpt lat="45.20498" lon="-0.78935">
        <ele>17</ele>
        <time>2012-08-03T09:10:18Z</time>
      </trkpt>
      <trkpt lat="45.20498" lon="-0.78936">
        <ele>17</ele>
        <time>2012-08-03T09:10:20Z</time>
      </trkpt>
      <trkpt lat="45.20497" lon="-0.78937">
        <ele>17</ele>
        <time>2012-08-03T09:10:22Z</time>
      </trkpt>
      <trkpt lat="45.20497" lon="-0.78939">
        <ele>17</ele>
        <time>2012-08-03T09:10:24Z</time>
      </trkpt>
      <trkpt lat="45.20496" lon="-0.78942">
        <ele>17</ele>
        <time>2012-08-03T09:10:27Z</time>
      </trkpt>
      <trkpt lat="45.20496" lon="-0.78945">
        <ele>17</ele>
        <time>2012-08-03T09:10:29Z</time>
      </trkpt>
      <trkpt lat="45.20496" lon="-0.78948">
        <ele>17</ele>
        <time>2012-08-03T09:10:31Z</time>
      </trkpt>
      <trkpt lat="45.20496" lon="-0.7895">
        <ele>17</ele>
        <time>2012-08-03T09:10:33Z</time>
      </trkpt>
      <trkpt lat="45.20495" lon="-0.78952">
        <ele>17</ele>
        <time>2012-08-03T09:10:35Z</time>
      </trkpt>
      <trkpt lat="45.20494" lon="-0.78955">
        <ele>17</ele>
        <time>2012-08-03T09:10:37Z</time>
      </trkpt>
      <trkpt lat="45.20494" lon="-0.78958">
        <ele>17</ele>
        <time>2012-08-03T09:10:39Z</time>
      </trkpt>
      <trkpt lat="45.20493" lon="-0.7896">
        <ele>17</ele>
        <time>2012-08-03T09:10:42Z</time>
      </trkpt>
      <trkpt lat="45.20493" lon="-0.78962">
        <ele>17</ele>
        <time>2012-08-03T09:10:44Z</time>
      </trkpt>
      <trkpt lat="45.20493" lon="-0.78966">
        <ele>17</ele>
        <time>2012-08-03T09:10:46Z</time>
      </trkpt>
      <trkpt lat="45.20493" lon="-0.78968">
        <ele>17</ele>
        <time>2012-08-03T09:10:48Z</time>
      </trkpt>
      <trkpt lat="45.20492" lon="-0.78971">
        <ele>17</ele>
        <time>2012-08-03T09:10:50Z</time>
      </trkpt>
      <trkpt lat="45.20492" lon="-0.78973">
        <ele>17</ele>
        <time>2012-08-03T09:10:52Z</time>
      </trkpt>
      <trkpt lat="45.20492" lon="-0.78974">
        <ele>17</ele>
        <time>2012-08-03T09:10:55Z</time>
      </trkpt>
      <trkpt lat="45.20492" lon="-0.78976">
        <ele>17</ele>
        <time>2012-08-03T09:10:57Z</time>
      </trkpt>
      <trkpt lat="45.20492" lon="-0.78978">
        <ele>17</ele>
        <time>2012-08-03T09:10:59Z</time>
      </trkpt>
      <trkpt lat="45.20492" lon="-0.78981">
        <ele>17</ele>
        <time>2012-08-03T09:11:01Z</time>
      </trkpt>
      <trkpt lat="45.20492" lon="-0.78984">
        <ele>17</ele>
        <time>2012-08-03T09:11:03Z</time>
      </trkpt>
      <trkpt lat="45.20491" lon="-0.78988">
        <ele>17</ele>
        <time>2012-08-03T09:11:05Z</time>
      </trkpt>
      <trkpt lat="45.2049" lon="-0.78991">
        <ele>17</ele>
        <time>2012-08-03T09:11:07Z</time>
      </trkpt>
      <trkpt lat="45.2049" lon="-0.78995">
        <ele>17</ele>
        <time>2012-08-03T09:11:10Z</time>
      </trkpt>
      <trkpt lat="45.20489" lon="-0.78999">
        <ele>17</ele>
        <time>2012-08-03T09:11:12Z</time>
      </trkpt>
      <trkpt lat="45.20489" lon="-0.79002">
        <ele>17</ele>
        <time>2012-08-03T09:11:14Z</time>
      </trkpt>
      <trkpt lat="45.20488" lon="-0.79008">
        <ele>17</ele>
        <time>2012-08-03T09:11:16Z</time>
      </trkpt>
      <trkpt lat="45.20488" lon="-0.79011">
        <ele>17</ele>
        <time>2012-08-03T09:11:18Z</time>
      </trkpt>
      <trkpt lat="45.20488" lon="-0.79015">
        <ele>17</ele>
        <time>2012-08-03T09:11:20Z</time>
      </trkpt>
      <trkpt lat="45.20487" lon="-0.79019">
        <ele>18</ele>
        <time>2012-08-03T09:11:23Z</time>
      </trkpt>
      <trkpt lat="45.20486" lon="-0.79023">
        <ele>18</ele>
        <time>2012-08-03T09:11:25Z</time>
      </trkpt>
      <trkpt lat="45.20486" lon="-0.79026">
        <ele>18</ele>
        <time>2012-08-03T09:11:27Z</time>
      </trkpt>
      <trkpt lat="45.20486" lon="-0.79027">
        <ele>18</ele>
        <time>2012-08-03T09:11:29Z</time>
      </trkpt>
      <trkpt lat="45.20485" lon="-0.79029">
        <ele>18</ele>
        <time>2012-08-03T09:11:31Z</time>
      </trkpt>
      <trkpt lat="45.20484" lon="-0.79033">
        <ele>18</ele>
        <time>2012-08-03T09:11:33Z</time>
      </trkpt>
      <trkpt lat="45.20484" lon="-0.79036">
        <ele>18</ele>
        <time>2012-08-03T09:11:35Z</time>
      </trkpt>
      <trkpt lat="45.20483" lon="-0.7904">
        <ele>18</ele>
        <time>2012-08-03T09:11:38Z</time>
      </trkpt>
      <trkpt lat="45.20482" lon="-0.79044">
        <ele>18</ele>
        <time>2012-08-03T09:11:40Z</time>
      </trkpt>
      <trkpt lat="45.20482" lon="-0.79047">
        <ele>18</ele>
        <time>2012-08-03T09:11:42Z</time>
      </trkpt>
      <trkpt lat="45.20481" lon="-0.79051">
        <ele>18</ele>
        <time>2012-08-03T09:11:44Z</time>
      </trkpt>
      <trkpt lat="45.2048" lon="-0.79057">
        <ele>18</ele>
        <time>2012-08-03T09:11:46Z</time>
      </trkpt>
      <trkpt lat="45.2048" lon="-0.7906">
        <ele>18</ele>
        <time>2012-08-03T09:11:48Z</time>
      </trkpt>
      <trkpt lat="45.2048" lon="-0.79064">
        <ele>18</ele>
        <time>2012-08-03T09:11:50Z</time>
      </trkpt>
      <trkpt lat="45.20479" lon="-0.79068">
        <ele>18</ele>
        <time>2012-08-03T09:11:52Z</time>
      </trkpt>
      <trkpt lat="45.20479" lon="-0.79071">
        <ele>18</ele>
        <time>2012-08-03T09:11:54Z</time>
      </trkpt>
      <trkpt lat="45.20478" lon="-0.79074">
        <ele>18</ele>
        <time>2012-08-03T09:11:56Z</time>
      </trkpt>
      <trkpt lat="45.20478" lon="-0.79077">
        <ele>18</ele>
        <time>2012-08-03T09:11:58Z</time>
      </trkpt>
      <trkpt lat="45.20478" lon="-0.7908">
        <ele>18</ele>
        <time>2012-08-03T09:12:01Z</time>
      </trkpt>
      <trkpt lat="45.20477" lon="-0.79084">
        <ele>18</ele>
        <time>2012-08-03T09:12:03Z</time>
      </trkpt>
      <trkpt lat="45.20476" lon="-0.79088">
        <ele>18</ele>
        <time>2012-08-03T09:12:05Z</time>
      </trkpt>
      <trkpt lat="45.20475" lon="-0.79093">
        <ele>18</ele>
        <time>2012-08-03T09:12:07Z</time>
      </trkpt>
      <trkpt lat="45.20475" lon="-0.79097">
        <ele>18</ele>
        <time>2012-08-03T09:12:09Z</time>
      </trkpt>
      <trkpt lat="45.20473" lon="-0.79103">
        <ele>18</ele>
        <time>2012-08-03T09:12:11Z</time>
      </trkpt>
      <trkpt lat="45.20472" lon="-0.79107">
        <ele>18</ele>
        <time>2012-08-03T09:12:13Z</time>
      </trkpt>
      <trkpt lat="45.20472" lon="-0.7911">
        <ele>18</ele>
        <time>2012-08-03T09:12:15Z</time>
      </trkpt>
      <trkpt lat="45.20472" lon="-0.79114">
        <ele>17</ele>
        <time>2012-08-03T09:12:17Z</time>
      </trkpt>
      <trkpt lat="45.20471" lon="-0.79118">
        <ele>17</ele>
        <time>2012-08-03T09:12:19Z</time>
      </trkpt>
      <trkpt lat="45.2047" lon="-0.79121">
        <ele>18</ele>
        <time>2012-08-03T09:12:21Z</time>
      </trkpt>
      <trkpt lat="45.2047" lon="-0.79124">
        <ele>18</ele>
        <time>2012-08-03T09:12:24Z</time>
      </trkpt>
      <trkpt lat="45.20472" lon="-0.79126">
        <ele>18</ele>
        <time>2012-08-03T09:12:26Z</time>
      </trkpt>
      <trkpt lat="45.20475" lon="-0.79126">
        <ele>19</ele>
        <time>2012-08-03T09:12:28Z</time>
      </trkpt>
      <trkpt lat="45.20477" lon="-0.79128">
        <ele>19</ele>
        <time>2012-08-03T09:12:30Z</time>
      </trkpt>
      <trkpt lat="45.20479" lon="-0.79129">
        <ele>19</ele>
        <time>2012-08-03T09:12:32Z</time>
      </trkpt>
      <trkpt lat="45.20481" lon="-0.7913">
        <ele>19</ele>
        <time>2012-08-03T09:12:34Z</time>
      </trkpt>
      <trkpt lat="45.20483" lon="-0.79132">
        <ele>19</ele>
        <time>2012-08-03T09:12:36Z</time>
      </trkpt>
      <trkpt lat="45.20486" lon="-0.79133">
        <ele>19</ele>
        <time>2012-08-03T09:12:38Z</time>
      </trkpt>
      <trkpt lat="45.20488" lon="-0.79133">
        <ele>19</ele>
        <time>2012-08-03T09:12:40Z</time>
      </trkpt>
      <trkpt lat="45.2049" lon="-0.79133">
        <ele>19</ele>
        <time>2012-08-03T09:12:42Z</time>
      </trkpt>
      <trkpt lat="45.20492" lon="-0.79132">
        <ele>20</ele>
        <time>2012-08-03T09:12:45Z</time>
      </trkpt>
      <trkpt lat="45.20495" lon="-0.79131">
        <ele>20</ele>
        <time>2012-08-03T09:12:47Z</time>
      </trkpt>
      <trkpt lat="45.20498" lon="-0.79132">
        <ele>20</ele>
        <time>2012-08-03T09:12:49Z</time>
      </trkpt>
      <trkpt lat="45.205" lon="-0.79131">
        <ele>20</ele>
        <time>2012-08-03T09:12:51Z</time>
      </trkpt>
      <trkpt lat="45.20503" lon="-0.79131">
        <ele>20</ele>
        <time>2012-08-03T09:12:53Z</time>
      </trkpt>
      <trkpt lat="45.20507" lon="-0.79132">
        <ele>20</ele>
        <time>2012-08-03T09:12:55Z</time>
      </trkpt>
      <trkpt lat="45.2051" lon="-0.79134">
        <ele>21</ele>
        <time>2012-08-03T09:12:57Z</time>
      </trkpt>
      <trkpt lat="45.20512" lon="-0.79135">
        <ele>21</ele>
        <time>2012-08-03T09:12:59Z</time>
      </trkpt>
      <trkpt lat="45.20515" lon="-0.79136">
        <ele>21</ele>
        <time>2012-08-03T09:13:01Z</time>
      </trkpt>
      <trkpt lat="45.20518" lon="-0.79137">
        <ele>22</ele>
        <time>2012-08-03T09:13:03Z</time>
      </trkpt>
      <trkpt lat="45.2052" lon="-0.7914">
        <ele>22</ele>
        <time>2012-08-03T09:13:06Z</time>
      </trkpt>
      <trkpt lat="45.20523" lon="-0.79142">
        <ele>22</ele>
        <time>2012-08-03T09:13:08Z</time>
      </trkpt>
      <trkpt lat="45.20526" lon="-0.79145">
        <ele>21</ele>
        <time>2012-08-03T09:13:10Z</time>
      </trkpt>
      <trkpt lat="45.20528" lon="-0.79149">
        <ele>22</ele>
        <time>2012-08-03T09:13:12Z</time>
      </trkpt>
      <trkpt lat="45.20529" lon="-0.79152">
        <ele>22</ele>
        <time>2012-08-03T09:13:14Z</time>
      </trkpt>
      <trkpt lat="45.20531" lon="-0.79155">
        <ele>22</ele>
        <time>2012-08-03T09:13:16Z</time>
      </trkpt>
      <trkpt lat="45.20532" lon="-0.79159">
        <ele>22</ele>
        <time>2012-08-03T09:13:18Z</time>
      </trkpt>
      <trkpt lat="45.20533" lon="-0.79162">
        <ele>22</ele>
        <time>2012-08-03T09:13:20Z</time>
      </trkpt>
      <trkpt lat="45.20535" lon="-0.79164">
        <ele>22</ele>
        <time>2012-08-03T09:13:22Z</time>
      </trkpt>
      <trkpt lat="45.20538" lon="-0.79169">
        <ele>23</ele>
        <time>2012-08-03T09:13:24Z</time>
      </trkpt>
      <trkpt lat="45.20539" lon="-0.79172">
        <ele>23</ele>
        <time>2012-08-03T09:13:26Z</time>
      </trkpt>
      <trkpt lat="45.2054" lon="-0.79175">
        <ele>23</ele>
        <time>2012-08-03T09:13:27Z</time>
      </trkpt>
    </trkseg>
  </trk>
</gpx>